[[{"header":{"parameterUnit":"m.s-1","parameterCategory":1,"la1":30.6,"la2":29.2853,"lo1":-89.7004,"lo2":-87.6739,"dy":0.0162,"dx":0.0183,"nx":112,"ny":82,"refTime":"2023-05-30T12:00:00:Z","depth":0,"parameterNumber":2,"parameterNumberName":"U-component_of_WINDS"},"data":[0.0,0.0,0.0,0.0,0.0,0.0,0.0,0.0,0.0,0.0,0.0,0.0,0.0,0.0,0.0,0.0,0.0,0.0,0.0,0.0,0.0,0.0,0.0,0.0,0.0,0.0,0.0,0.0,0.0,0.0,0.0,0.0,0.0,0.0,0.0,0.0,0.0,0.0,0.0,0.0,0.0,0.0,0.0,0.0,0.0,0.0,0.0,0.0,0.0,0.0,0.0,0.0,0.0,0.0,0.0,0.0,0.0,0.0,0.0,0.0,0.0,0.0,0.0,0.0,0.0,0.0,0.0,0.0,0.0,0.0,0.0,0.0,0.0,0.0,0.0,0.0,0.0,0.0,0.0,0.0,0.0,0.0,0.0,0.0,0.0,0.0,0.0,0.0,0.0,0.0,0.0,2.3587,2.7796,3.0519,3.0587,3.0666,2.8497,2.3337,0.0,0.0,0.0,0.0,0.0,0.0,0.0,0.0,0.0,0.0,0.0,0.0,0.0,0.0,0.0,0.0,0.0,0.0,0.0,0.0,0.0,0.0,0.0,0.0,0.0,0.0,0.0,0.0,0.0,0.0,0.0,0.0,0.0,0.0,0.0,0.0,0.0,0.0,0.0,0.0,0.0,0.0,0.0,0.0,0.0,0.0,0.0,0.0,0.0,0.0,0.0,0.0,0.0,0.0,0.0,0.0,0.0,0.0,0.0,0.0,0.0,0.0,0.0,0.0,0.0,0.0,0.0,0.0,0.0,0.0,0.0,0.0,0.0,0.0,0.0,0.0,0.0,0.0,0.0,0.0,0.0,0.0,0.0,0.0,0.0,0.0,0.0,0.0,0.0,0.0,0.0,0.0,0.0,0.0,0.0,0.0,0.0,0.0,0.0,0.0,0.0,0.0,0.0,0.0,2.3765,2.8384,2.9851,3.0519,3.0587,3.0666,2.8497,2.3337,0.0,0.0,0.0,0.0,0.0,0.0,0.0,0.0,0.0,0.0,0.0,0.0,0.0,0.0,0.0,0.0,0.0,0.0,0.0,0.0,0.0,0.0,0.0,0.0,0.0,0.0,0.0,0.0,0.0,0.0,0.0,0.0,0.0,0.0,0.0,0.0,0.0,0.0,0.0,0.0,0.0,0.0,0.0,0.0,0.0,0.0,0.0,0.0,0.0,0.0,0.0,0.0,0.0,0.0,0.0,0.0,0.0,0.0,0.0,0.0,0.0,0.0,0.0,0.0,0.0,0.0,0.0,0.0,0.0,0.0,0.0,0.0,0.0,0.0,0.0,0.0,0.0,0.0,0.0,0.0,0.0,0.0,0.0,0.0,0.0,0.0,0.0,0.0,0.0,0.0,0.0,0.0,0.0,0.0,0.0,0.0,0.0,0.0,0.0,0.0,0.0,0.0,0.0,2.1966,2.4841,2.9503,3.0331,3.0582,3.0607,3.0723,2.858,2.3332,2.3004,0.0,0.0,0.0,0.0,0.0,0.0,0.0,0.0,0.0,0.0,0.0,0.0,0.0,0.0,0.0,0.0,0.0,0.0,0.0,0.0,0.0,0.0,0.0,0.0,0.0,0.0,0.0,0.0,0.0,0.0,0.0,0.0,0.0,0.0,0.0,0.0,0.0,0.0,0.0,0.0,0.0,0.0,0.0,0.0,0.0,0.0,0.0,0.0,0.0,0.0,0.0,0.0,0.0,0.0,0.0,0.0,0.0,0.0,0.0,0.0,0.0,0.0,0.0,0.0,0.0,0.0,0.0,0.0,0.0,0.0,0.0,0.0,0.0,0.0,0.0,0.0,0.0,0.0,0.0,0.0,0.0,0.0,0.0,0.0,0.0,0.0,0.0,0.0,0.0,0.0,0.0,0.0,0.0,0.0,0.0,0.0,0.0,0.0,0.0,0.0,0.0,0.0,2.425,2.6567,2.9746,3.0394,3.0568,3.0606,3.0767,2.8687,2.3637,2.3116,0.0,0.0,0.0,0.0,0.0,0.0,0.0,0.0,0.0,0.0,0.0,0.0,0.0,0.0,0.0,0.0,0.0,0.0,0.0,0.0,0.0,0.0,0.0,0.0,0.0,0.0,0.0,0.0,0.0,0.0,0.0,0.0,0.0,0.0,0.0,0.0,0.0,0.0,0.0,0.0,0.0,0.0,0.0,0.0,0.0,0.0,0.0,0.0,0.0,0.0,0.0,0.0,0.0,0.0,0.0,0.0,0.0,0.0,0.0,0.0,0.0,0.0,0.0,0.0,0.0,0.0,0.0,0.0,0.0,0.0,0.0,0.0,0.0,0.0,0.0,0.0,0.0,0.0,0.0,0.0,0.0,0.0,0.0,0.0,0.0,0.0,0.0,0.0,0.0,0.0,0.0,0.0,0.0,0.0,0.0,0.0,0.0,0.0,0.0,0.0,0.0,0.0,2.7179,2.9765,3.0316,3.0456,3.0539,3.0594,3.0674,2.8858,2.4485,2.3456,0.0,0.0,0.0,0.0,0.0,0.0,0.0,0.0,0.0,0.0,0.0,0.0,0.0,0.0,0.0,0.0,0.0,0.0,0.0,0.0,0.0,0.0,0.0,0.0,0.0,0.0,0.0,0.0,0.0,0.0,0.0,0.0,0.0,0.0,0.0,0.0,0.0,0.0,0.0,0.0,0.0,0.0,0.0,0.0,0.0,0.0,0.0,0.0,0.0,0.0,0.0,0.0,0.0,0.0,0.0,0.0,0.0,0.0,0.0,0.0,0.0,0.0,0.0,0.0,0.0,0.0,0.0,0.0,0.0,0.0,0.0,0.0,0.0,0.0,0.0,0.0,0.0,0.0,0.0,0.0,0.0,0.0,0.0,0.0,0.0,0.0,0.0,0.0,0.0,0.0,0.0,0.0,0.0,0.0,0.0,0.0,0.0,0.0,0.0,0.0,0.0,0.0,2.6787,2.9198,0.0,3.0564,3.0629,3.0656,3.0691,2.887,2.4565,0.0,0.0,0.0,0.0,0.0,0.0,0.0,0.0,0.0,0.0,0.0,0.0,0.0,0.0,0.0,0.0,0.0,0.0,0.0,0.0,0.0,0.0,0.0,0.0,0.0,0.0,0.0,0.0,0.0,0.0,0.0,0.0,0.0,0.0,0.0,0.0,0.0,0.0,0.0,0.0,0.0,0.0,0.0,0.0,0.0,0.0,0.0,0.0,0.0,0.0,0.0,0.0,0.0,0.0,0.0,0.0,0.0,0.0,0.0,0.0,0.0,0.0,0.0,0.0,0.0,0.0,0.0,0.0,0.0,0.0,0.0,0.0,0.0,0.0,0.0,0.0,0.0,0.0,0.0,0.0,0.0,0.0,0.0,0.0,0.0,0.0,0.0,0.0,0.0,0.0,0.0,0.0,0.0,0.0,0.0,0.0,0.0,0.0,0.0,0.0,0.0,0.0,2.4399,2.7054,2.9261,0.0,3.0621,3.07,3.0668,3.0685,2.8975,2.4915,0.0,0.0,0.0,0.0,0.0,0.0,0.0,0.0,0.0,0.0,0.0,0.0,0.0,0.0,0.0,0.0,0.0,0.0,0.0,0.0,0.0,0.0,0.0,0.0,0.0,0.0,0.0,0.0,0.0,0.0,0.0,0.0,0.0,0.0,0.0,0.0,0.0,0.0,0.0,0.0,0.0,0.0,0.0,0.0,0.0,0.0,0.0,0.0,0.0,0.0,0.0,0.0,0.0,0.0,0.0,0.0,0.0,0.0,0.0,0.0,0.0,0.0,0.0,0.0,0.0,0.0,0.0,0.0,0.0,0.0,0.0,0.0,0.0,0.0,0.0,0.0,0.0,0.0,0.0,0.0,0.0,0.0,0.0,0.0,0.0,0.0,0.0,0.0,0.0,0.0,0.0,0.0,0.0,0.0,0.0,0.0,0.0,0.0,0.0,0.0,0.0,0.0,2.5505,2.8486,3.0597,3.0601,3.0665,3.066,3.0604,3.0656,2.9171,0.0,0.0,0.0,0.0,0.0,0.0,0.0,0.0,0.0,0.0,0.0,0.0,0.0,0.0,0.0,0.0,0.0,0.0,0.0,0.0,0.0,0.0,0.0,0.0,0.0,0.0,0.0,0.0,0.0,0.0,0.0,0.0,0.0,0.0,0.0,0.0,0.0,0.0,0.0,0.0,0.0,0.0,0.0,0.0,0.0,0.0,0.0,0.0,0.0,0.0,0.0,0.0,0.0,0.0,0.0,0.0,0.0,0.0,0.0,0.0,0.0,0.0,0.0,0.0,0.0,0.0,0.0,0.0,0.0,0.0,0.0,0.0,0.0,0.0,0.0,0.0,0.0,0.0,0.0,0.0,0.0,0.0,0.0,0.0,0.0,0.0,0.0,0.0,0.0,0.0,0.0,0.0,0.0,0.0,0.0,0.0,0.0,0.0,0.0,0.0,0.0,0.0,0.0,2.6426,2.8907,3.0675,3.0665,3.0698,3.0689,3.0676,3.0606,2.8955,2.5209,0.0,0.0,0.0,0.0,0.0,0.0,0.0,0.0,0.0,0.0,0.0,0.0,0.0,0.0,0.0,0.0,0.0,0.0,0.0,0.0,0.0,0.0,0.0,0.0,0.0,0.0,0.0,0.0,0.0,0.0,0.0,0.0,0.0,0.0,0.0,0.0,0.0,0.0,0.0,0.0,0.0,0.0,0.0,0.0,0.0,0.0,0.0,0.0,0.0,0.0,0.0,0.0,0.0,0.0,0.0,0.0,0.0,0.0,0.0,0.0,0.0,0.0,0.0,0.0,0.0,0.0,0.0,0.0,0.0,0.0,0.0,0.0,0.0,0.0,0.0,0.0,0.0,0.0,0.0,0.0,0.0,0.0,0.0,0.0,0.0,0.0,0.0,0.0,0.0,0.0,0.0,0.0,0.0,0.0,0.0,0.0,0.0,0.0,0.0,0.0,0.0,0.0,2.6816,2.9075,3.0693,3.0652,3.0654,3.0645,3.0614,3.0544,2.9117,2.5834,0.0,0.0,0.0,0.0,0.0,0.0,0.0,0.0,0.0,0.0,0.0,0.0,0.0,0.0,0.0,0.0,0.0,0.0,0.0,0.0,0.0,0.0,0.0,0.0,0.0,0.0,0.0,0.0,0.0,0.0,0.0,0.0,0.0,0.0,0.0,0.0,0.0,0.0,0.0,0.0,0.0,0.0,0.0,0.0,0.0,0.0,0.0,0.0,0.0,0.0,0.0,0.0,0.0,0.0,0.0,0.0,0.0,0.0,0.0,0.0,0.0,0.0,0.0,0.0,0.0,0.0,0.0,0.0,0.0,0.0,0.0,0.0,0.0,0.0,0.0,0.0,0.0,0.0,0.0,0.0,0.0,0.0,0.0,0.0,0.0,0.0,0.0,0.0,0.0,0.0,0.0,0.0,0.0,0.0,0.0,0.0,0.0,0.0,0.0,0.0,0.0,0.0,2.6932,2.912,3.0664,3.06,3.0581,3.054,3.0432,3.0419,2.9363,2.6923,0.0,0.0,0.0,0.0,0.0,0.0,0.0,0.0,0.0,0.0,0.0,0.0,0.0,0.0,0.0,0.0,0.0,0.0,0.0,0.0,0.0,0.0,0.0,0.0,0.0,0.0,0.0,0.0,0.0,0.0,0.0,0.0,0.0,0.0,0.0,0.0,0.0,0.0,0.0,0.0,0.0,0.0,0.0,0.0,0.0,0.0,0.0,0.0,0.0,0.0,0.0,0.0,0.0,0.0,0.0,0.0,0.0,0.0,0.0,0.0,2.1663,0.0,0.0,0.0,0.0,0.0,0.0,0.0,0.0,0.0,0.0,0.0,0.0,0.0,0.0,0.0,0.0,0.0,0.0,0.0,0.0,0.0,0.0,0.0,0.0,0.0,0.0,0.0,0.0,0.0,0.0,0.0,0.0,0.0,0.0,0.0,0.0,0.0,0.0,0.0,0.0,0.0,2.7828,2.9458,3.0625,3.0595,3.0557,3.0311,2.9841,2.9742,2.8576,2.5886,0.0,0.0,0.0,0.0,0.0,0.0,0.0,0.0,0.0,0.0,0.0,0.0,0.0,0.0,0.0,0.0,0.0,0.0,0.0,0.0,0.0,0.0,0.0,0.0,0.0,0.0,0.0,0.0,0.0,0.0,0.0,0.0,0.0,0.0,0.0,0.0,0.0,0.0,0.0,0.0,0.0,0.0,0.0,0.0,0.0,0.0,0.0,0.0,0.0,0.0,0.0,0.0,0.0,0.0,0.0,0.0,0.0,0.0,0.0,0.0,0.0,2.1857,0.0,0.0,0.0,0.0,0.0,0.0,0.0,0.0,0.0,0.0,0.0,0.0,0.0,0.0,0.0,0.0,0.0,0.0,0.0,0.0,0.0,0.0,0.0,0.0,0.0,0.0,0.0,0.0,0.0,0.0,0.0,0.0,0.0,0.0,0.0,0.0,0.0,0.0,0.0,0.0,2.8556,2.948,3.0102,3.0085,2.9769,2.9474,2.9147,2.9094,2.8316,2.657,2.5544,0.0,0.0,0.0,0.0,0.0,0.0,0.0,0.0,0.0,0.0,0.0,0.0,0.0,0.0,0.0,0.0,0.0,0.0,0.0,0.0,0.0,0.0,0.0,0.0,0.0,0.0,0.0,0.0,0.0,0.0,0.0,0.0,0.0,0.0,0.0,0.0,0.0,0.0,0.0,0.0,0.0,0.0,0.0,0.0,0.0,0.0,0.0,0.0,0.0,0.0,0.0,0.0,0.0,1.7781,1.8028,1.8206,1.9114,1.9683,2.0064,2.074,2.1872,2.3168,0.0,0.0,0.0,0.0,0.0,0.0,0.0,0.0,0.0,0.0,0.0,0.0,0.0,0.0,0.0,0.0,0.0,0.0,0.0,0.0,0.0,0.0,0.0,0.0,0.0,2.7885,2.8084,0.0,0.0,0.0,0.0,0.0,0.0,0.0,0.0,0.0,0.0,0.0,0.0,2.8721,2.9164,2.94,2.9345,2.8897,2.8549,2.8456,2.8432,2.8095,2.7373,2.5761,2.452,0.0,0.0,0.0,0.0,0.0,0.0,0.0,0.0,0.0,0.0,0.0,0.0,0.0,0.0,0.0,0.0,0.0,0.0,0.0,0.0,0.0,0.0,0.0,0.0,0.0,0.0,0.0,0.0,0.0,0.0,0.0,0.0,0.6596,0.7829,0.0,0.0,0.0,0.0,0.0,0.0,0.0,0.0,0.0,0.0,0.0,0.0,0.0,1.2742,1.4135,1.4714,1.5243,1.5735,1.6367,1.7022,1.7675,1.7827,1.8277,1.8934,1.9609,0.0,2.1784,2.2624,0.0,0.0,0.0,0.0,0.0,0.0,0.0,0.0,0.0,0.0,0.0,0.0,0.0,0.0,0.0,0.0,0.0,0.0,0.0,0.0,0.0,0.0,2.7986,2.8051,2.8143,2.8112,0.0,2.6999,2.6393,2.6299,2.606,0.0,0.0,0.0,0.0,0.0,0.0,0.0,2.7532,2.8227,2.8721,2.8706,2.864,2.8366,2.779,2.7735,2.7315,2.6283,2.5977,2.5264,2.4104,2.4297,0.0,0.0,0.0,0.0,0.0,0.0,0.0,0.0,0.0,0.0,0.0,0.0,0.0,0.0,0.0,0.0,0.0,0.0,0.0,0.0,0.0,0.0,0.0,0.0,0.0,0.0,0.0,0.0,0.0,0.6042,0.7001,0.7493,0.7915,0.8003,0.0,0.0,0.0,0.0,0.0,0.0,0.0,0.0,0.0,0.9965,1.0934,1.1964,1.3194,1.3978,1.4678,1.5287,1.5604,1.6167,1.6914,1.6914,1.7368,1.8112,1.885,1.9407,1.9999,2.1541,2.2294,2.2504,0.0,0.0,0.0,0.0,2.3575,2.3692,2.4459,2.471,0.0,0.0,0.0,0.0,0.0,0.0,0.0,0.0,0.0,0.0,0.0,0.0,0.0,2.7478,2.7368,2.7103,2.6981,2.6242,2.5697,0.0,2.6577,2.6663,2.5904,0.0,0.0,0.0,0.0,0.0,2.7972,2.7807,2.762,2.762,2.6718,2.6151,2.6236,2.5912,2.5628,2.5561,2.5259,2.4846,2.4273,2.3857,2.323,0.0,0.0,0.0,0.0,0.0,0.0,0.0,0.0,0.0,0.0,0.0,0.0,0.0,0.0,0.0,0.0,0.0,0.0,0.0,0.0,0.0,0.0,0.0,0.0,0.0,0.0,0.0,0.0,0.6316,0.6722,0.6641,0.6984,0.7108,0.0,0.0,0.0,0.0,0.0,0.0,0.7149,0.7555,0.8055,0.8788,0.9733,1.0821,1.1882,1.274,1.3476,1.4015,1.4218,1.4772,1.5514,1.5753,1.6285,1.7047,1.7829,1.8221,1.8561,2.0475,2.1715,2.2374,2.1979,2.2126,2.253,2.2739,2.2801,2.2895,2.3645,2.3919,2.3919,2.3919,0.0,2.4008,2.3299,0.0,0.0,0.0,0.0,2.5456,2.5625,2.5615,2.562,2.6016,2.5828,2.5497,2.5353,2.4933,2.4802,0.0,2.617,2.6212,2.539,0.0,0.0,0.0,0.0,2.6692,2.7176,2.6499,2.6,2.6,2.4922,2.4356,2.4697,2.4547,2.4467,2.4498,2.4302,2.4028,2.3719,2.3044,2.2798,2.3154,0.0,0.0,0.0,0.0,0.0,0.0,0.0,0.0,0.0,0.0,0.0,0.0,0.0,0.0,0.0,0.0,0.0,0.0,0.0,0.0,0.0,0.0,0.0,0.0,0.0,0.0,0.0,0.0,0.0,0.4691,0.5817,0.0,0.0,0.0,0.0,0.5061,0.5136,0.5289,0.5395,0.5474,0.6241,0.7914,0.8058,0.851,0.9358,1.0273,1.0725,1.0725,1.1556,1.2373,1.3183,1.3957,1.4709,1.5476,1.628,1.7034,1.7841,1.9965,2.0718,2.0602,2.1194,2.1322,2.1272,2.1988,2.2252,2.2342,2.3095,2.332,2.332,2.332,2.3743,2.406,2.3474,2.4141,0.0,0.0,2.3799,2.4147,2.3618,2.3477,2.3462,2.3462,2.3462,2.3308,2.2805,2.3345,2.4319,0.0,2.4546,2.3666,2.4166,0.0,2.3474,2.3489,2.3546,2.3531,2.3542,2.3531,2.3504,2.3504,2.3912,2.3984,2.3465,2.4451,2.4443,2.2761,2.3229,2.304,2.1885,2.2281,2.2513,2.2435,2.3342,0.0,0.0,0.0,0.0,0.0,0.0,0.0,0.0,0.0,0.0,0.0,0.0,0.0,0.0,0.0,0.0,0.0,0.0,0.0,0.0,0.0,0.0,0.0,0.0,0.0,0.0,0.0,0.0,0.4618,0.4161,0.0,0.0,0.3561,0.3698,0.3706,0.3593,0.3585,0.3613,0.3618,0.417,0.538,0.5905,0.6685,0.7603,0.8452,0.8913,0.8913,0.9755,1.064,1.1432,1.2243,1.3339,1.465,1.539,1.6156,1.6978,1.8209,1.9214,2.0018,2.0751,2.1213,2.1518,2.1775,2.1891,2.192,2.2178,2.2249,2.2249,2.2249,2.2446,2.2536,2.2355,2.2581,2.2863,2.24,2.2446,2.2611,2.2731,2.2538,2.2221,2.2124,2.1819,2.1395,2.0713,2.0536,2.0731,2.1573,2.2787,2.3553,2.3154,2.3225,2.3323,2.3323,2.3323,2.3323,2.3323,2.3009,2.2776,2.2776,2.2326,2.208,2.2249,2.2324,2.2246,2.2016,2.2229,2.2151,2.1697,2.1904,2.2329,2.3088,2.3462,2.355,0.0,0.0,0.0,0.0,0.0,0.0,0.0,0.0,0.0,0.0,0.0,0.0,0.0,0.0,0.0,0.0,0.0,0.0,0.0,0.0,0.0,0.0,0.0,0.0,0.0,0.0,0.3292,0.3727,0.2936,0.2408,0.2544,0.2135,0.2086,0.246,0.2033,0.1944,0.221,0.2209,0.2611,0.3547,0.4406,0.5156,0.5881,0.7012,0.765,0.7722,0.8589,0.9437,1.0334,1.1182,1.2332,1.3738,1.4495,1.5102,1.5671,1.6774,1.772,1.8646,1.9433,1.9965,2.033,2.033,2.033,2.033,2.033,2.033,2.033,2.033,2.0466,2.0614,2.0367,2.0614,2.0895,2.0416,2.0641,2.0984,2.0877,2.0771,2.0565,2.0224,1.9863,1.9457,1.8967,1.8531,1.8395,1.877,2.0457,2.1636,2.1226,2.1307,2.1536,2.1974,2.1867,2.1917,2.2356,2.1932,2.16,2.16,2.1121,2.0881,2.1037,2.1099,2.1113,2.1037,2.128,2.128,2.1086,2.1037,2.1539,2.2557,2.3176,2.3655,2.4082,0.0,0.0,0.0,0.0,0.0,0.0,0.0,0.0,0.0,0.0,0.0,0.0,0.0,0.0,0.0,0.0,0.0,0.0,0.0,0.0,0.0,0.0,0.0,0.1869,0.2015,0.205,0.1815,0.2253,0.2491,0.2168,0.1557,0.1206,0.1206,0.0404,0.0337,0.1141,0.1276,0.1679,0.2618,0.3489,0.4011,0.4122,0.5913,0.6831,0.7007,0.791,0.8824,0.9875,1.0685,1.1655,1.2714,1.3494,1.3892,1.4016,1.567,1.6296,1.6408,1.7288,1.7611,1.76,1.76,1.7589,1.7578,1.7578,1.7578,1.7578,1.7578,1.8066,1.8437,1.7818,1.8437,1.9202,1.797,1.8561,1.9297,1.7938,1.8112,1.8501,1.7743,1.7578,1.7578,1.7523,1.7523,1.7523,1.7523,1.7523,1.7763,1.8437,1.8012,1.8011,1.9361,1.9048,0.0,2.0457,2.0085,1.9759,1.9772,2.0308,2.0446,1.9823,2.0841,2.1037,1.9786,2.0346,2.0446,1.9798,1.9798,2.0124,2.079,2.2532,2.385,2.4771,0.0,0.0,0.0,0.0,0.0,0.0,0.0,0.0,0.0,0.0,0.0,0.0,0.0,0.0,0.0,0.0,0.0,0.0,0.0,0.0,0.0,0.0,0.1467,0.1982,0.1767,0.1497,0.1474,0.1054,0.0735,0.0592,-0.0133,-0.0603,-0.0603,-0.082,-0.083,-0.0621,0.0,0.0783,0.1635,0.1919,0.2353,0.3086,0.3583,0.4242,0.5,0.5912,0.6836,0.792,0.9516,1.0692,1.158,1.2624,1.3369,1.3958,1.4402,1.459,1.4824,1.7507,1.8358,1.8114,1.8114,1.7891,1.7578,1.7578,1.7578,1.7578,1.7578,1.772,1.7818,1.7677,1.7818,1.8055,1.7731,1.7884,1.8101,1.7677,1.7743,1.7743,1.6978,1.681,1.6641,1.613,1.6026,1.6026,1.6026,1.6026,1.6404,1.7643,1.772,1.7733,1.8089,1.7998,0.0,1.8429,1.8313,1.8317,1.8686,1.855,1.8522,1.8698,1.8731,1.8561,1.8221,1.8862,1.919,1.898,1.9527,2.0306,2.1429,2.3071,2.3882,0.0,0.0,0.0,0.0,0.0,0.0,0.0,0.0,0.0,0.0,0.0,0.0,0.0,0.0,0.0,0.0,0.0,0.0,0.0,0.0,0.0,0.0,0.0746,0.0704,0.1214,0.0987,0.0604,0.0268,-0.0339,-0.0821,-0.1162,-0.1724,-0.2081,-0.2081,-0.2041,-0.1846,-0.1421,-0.0938,-0.0218,0.0727,0.109,0.1607,0.2214,0.2584,0.3113,0.3744,0.4702,0.5738,0.6776,0.8311,0.9757,0.0,1.1616,1.2403,1.3239,1.3646,1.3791,0.0,0.0,0.0,0.0,0.0,1.6447,1.6376,1.6376,1.6493,1.6687,1.6687,1.6451,1.6203,1.6203,1.5965,1.5668,1.5668,1.5887,1.6048,1.5773,1.5877,1.5934,1.5235,1.5012,1.4904,1.4501,1.4688,1.4805,1.4451,1.4932,0.0,1.6099,1.6451,1.6864,1.7453,1.7322,1.7323,1.7924,1.7767,1.7678,1.798,1.7745,1.769,1.798,1.7745,0.0,0.0,0.0,1.8821,1.915,1.956,0.0,0.0,0.0,2.294,2.3448,0.0,0.0,0.0,2.5323,2.5339,0.0,0.0,0.0,0.0,0.0,0.0,0.0,0.0,0.0,0.0,0.0,0.0,0.0,0.0,0.0,0.0,0.0391,0.0,0.0,-0.0136,-0.0407,-0.1079,-0.145,-0.1894,-0.2664,-0.3081,-0.3268,-0.3268,-0.3277,-0.2845,-0.1971,0.0,0.0,0.0,0.0,0.1038,0.1213,0.2122,0.2679,0.2968,0.3906,0.491,0.6056,0.7149,0.868,1.0484,1.0708,1.1242,1.207,1.3091,1.3528,1.3541,1.3878,1.3949,1.3941,1.3908,1.4208,1.4622,1.4622,0.0,0.0,1.5252,1.474,1.4096,1.4096,1.358,1.3009,1.3009,1.3451,1.3835,1.3174,1.3511,1.3835,1.3174,1.3009,1.3009,1.3009,1.3545,1.3846,1.313,1.4145,1.4874,1.4213,1.4815,1.582,1.7026,1.6743,1.68,1.8021,1.7689,1.7368,1.7434,0.0,0.0,1.7434,1.739,1.7357,1.7357,1.8058,1.8821,1.9631,1.977,2.0136,2.0795,2.0934,2.1839,2.349,2.3561,2.4424,2.5987,2.4913,2.5108,0.0,0.0,0.0,0.0,0.0,0.0,0.0,0.0,0.0,0.0,0.0,0.0,0.0,0.0,0.0,0.0953,0.047,0.0,0.0,-0.0779,-0.1067,-0.0349,-0.1067,-0.1659,-0.1804,-0.3327,-0.4203,-0.4203,-0.421,-0.411,-0.3961,-0.3199,0.0,-0.2542,-0.1544,-0.1006,-0.1011,0.0078,0.1015,0.188,0.0,0.0,0.4991,0.6063,0.7218,0.8461,1.011,1.0415,1.0045,1.1842,1.2592,1.2698,1.3924,1.4375,1.4342,1.3998,1.3975,1.4048,1.4048,1.4128,1.4199,1.4199,1.3933,1.3555,1.3555,1.3293,0.0,1.3009,1.3122,1.3174,1.3061,1.3122,1.3174,1.3009,1.3009,1.3009,1.3009,1.313,1.3191,1.3009,1.3243,1.3425,1.3252,1.4451,1.5498,1.5742,1.5692,1.572,1.5984,1.5914,1.5994,1.6356,1.6075,1.6004,1.6367,1.6065,1.5853,1.5853,1.6528,1.7523,1.8886,1.943,2.0041,2.0795,2.1718,2.2599,2.349,2.3895,2.478,2.6165,2.5379,2.5914,0.0,0.0,0.0,0.0,0.0,0.0,0.0,0.0,0.0,0.0,0.0,0.0116,0.0,0.0,0.0128,0.0468,0.0207,-0.0212,-0.0714,-0.1241,-0.1542,-0.1432,-0.2478,-0.3327,-0.3771,-0.4784,-0.5423,-0.5423,-0.5412,-0.514,-0.4602,-0.419,-0.3671,-0.3124,-0.2113,-0.1568,-0.1568,-0.0549,0.0235,0.0784,0.1333,0.2426,0.3904,0.4985,0.63,0.7859,0.8836,0.9291,0.9372,1.0346,1.0801,1.0858,1.1576,1.2534,1.3398,1.3171,1.3286,1.3491,1.3491,1.3711,1.3892,1.3892,1.3507,1.3045,1.3045,1.2661,1.2171,1.2007,1.2026,1.1989,1.1832,1.1787,1.1787,1.1787,1.1787,1.1787,1.1787,1.1764,1.1626,1.1205,1.1804,1.2219,1.1804,1.3097,1.4213,1.4213,1.4213,1.4213,1.4213,1.4213,1.4285,1.4544,1.469,1.489,1.5106,1.5292,1.54,1.5352,1.6073,1.7146,1.8661,1.9008,1.9542,2.0295,2.0851,2.1499,2.2151,2.2623,2.3553,2.4756,2.4817,2.579,0.0,0.0,0.0,0.0,0.0,0.0,0.0,0.0,0.0,0.0,0.0,0.0,0.0,0.0,0.0,0.0,-0.0142,-0.0645,-0.1461,-0.1945,-0.2488,-0.3176,-0.4122,-0.5005,-0.5692,-0.6133,-0.6302,-0.6302,-0.6329,-0.6025,-0.5148,-0.5069,-0.4671,-0.3799,-0.2774,-0.2302,-0.2302,-0.1033,-0.0318,-0.0318,0.0791,0.1813,0.2832,0.3912,0.5381,0.7242,0.7399,0.8161,0.9296,0.9074,0.915,0.9296,0.9296,1.0271,1.1774,1.1922,1.2435,1.2941,1.2941,1.3247,1.3557,1.3557,1.3119,1.2538,1.2538,1.2018,1.1376,1.1142,1.1076,1.1022,1.0788,1.0752,1.0705,1.0705,1.0665,1.0624,1.0624,1.0528,1.0319,0.9652,1.062,1.1279,1.062,1.1633,1.2642,1.2948,1.3009,1.3009,1.3009,1.3009,1.3009,1.3009,1.3606,1.3974,1.3974,1.4688,1.5148,1.508,1.5823,1.6978,1.8447,1.8501,1.8874,1.9798,1.9911,2.0322,2.0967,2.1496,2.2376,2.3544,2.4318,2.558,-0.4363,-0.3802,-0.3195,-0.3044,-0.2096,-0.1255,0.0,0.0,0.0,0.0,0.0,0.0,0.0,0.0,0.0,0.0,-0.0802,-0.15,-0.1579,-0.322,-0.4353,-0.4496,-0.4583,-0.4745,-0.4822,-0.5801,-0.6451,-0.6451,-0.6573,-0.6569,-0.6483,-0.6483,-0.6401,-0.6315,-0.5232,-0.4731,-0.4731,-0.2659,-0.1582,-0.1581,-0.0409,0.0729,0.1778,0.2841,0.3904,0.5074,0.6018,0.7557,0.9221,0.8313,0.8466,0.9296,0.9296,0.9448,0.9744,1.064,1.1594,1.2398,1.2398,1.2444,1.249,1.249,1.2247,1.1959,1.1959,1.1706,1.1416,1.1383,1.1376,1.1369,1.1336,1.1136,1.0949,1.0949,1.0748,1.0624,1.0624,1.0618,1.0555,1.0498,1.0611,1.0674,1.0611,1.0744,1.1358,1.2765,1.3009,1.3009,1.3009,1.3009,1.3009,1.3009,1.307,1.313,1.313,1.3846,1.4323,1.4314,1.5099,1.6187,1.7677,1.7743,1.8382,1.9747,2.03,2.0923,2.1523,2.2049,2.2991,2.4277,2.5052,2.6026,-0.5483,-0.4371,-0.3287,0.0,-0.2481,-0.132,-0.1326,-0.0627,0.0,0.0,0.0,0.0,0.0,0.0,-0.0216,0.0,-0.1342,-0.2049,-0.3228,-0.4115,-0.4945,-0.565,-0.5741,-0.5741,-0.5741,-0.627,-0.6607,-0.6607,-0.6664,-0.6702,-0.6702,-0.6702,-0.6702,-0.6702,-0.569,-0.51,-0.51,-0.3601,-0.2514,-0.176,-0.133,-0.0082,0.1623,0.2645,0.4036,0.5631,0.6103,0.6795,0.7553,0.7099,0.7176,0.7557,0.7557,0.7936,0.8613,1.0185,1.1087,1.1539,1.2077,1.2305,1.2305,1.2305,1.2218,1.2124,1.2124,1.2031,1.1897,1.173,1.1683,1.1643,1.147,1.1336,1.1108,1.0479,1.0741,1.0929,1.0311,1.025,1.0323,1.0323,1.0323,1.0323,1.0323,1.0724,1.132,1.1963,1.178,1.16,1.16,1.16,1.1787,1.2266,1.2328,1.2328,1.2328,1.3476,1.4025,1.3545,1.4688,1.6195,1.807,1.8126,1.8934,2.0778,2.1029,2.1306,2.1553,2.2061,2.2613,2.3171,2.4284,2.528,-0.6032,-0.4862,-0.3825,-0.4189,-0.3227,-0.213,-0.1809,-0.1035,-0.033,-0.007,0.0,0.0,0.0,-0.022,-0.0666,-0.1507,-0.205,-0.2989,-0.452,-0.4921,-0.5517,-0.6374,-0.6508,-0.6552,-0.6593,-0.6698,-0.6763,-0.6763,-0.68,-0.682,-0.682,-0.682,-0.682,-0.682,-0.6051,-0.5619,-0.5619,-0.4603,-0.3498,-0.2303,-0.1951,-0.0755,0.1241,0.2526,0.4075,0.5867,0.618,0.6338,0.6338,0.6338,0.6338,0.6338,0.6338,0.6718,0.7629,0.9362,1.0185,1.049,1.1248,1.1477,1.1477,1.1477,1.1477,1.1545,1.1774,1.1922,1.1877,1.1972,1.1991,1.1937,1.1724,1.1394,1.0975,1.0551,1.0496,1.051,1.0366,1.0164,1.0101,1.0378,1.0453,1.0453,1.0453,1.1005,1.1423,1.1423,1.1069,1.0795,1.0795,1.0795,1.1047,1.1603,1.1667,1.1794,1.2112,1.3351,1.404,1.3732,1.4972,1.6495,1.8236,1.8306,1.9218,2.1119,2.128,2.1468,2.1719,2.2272,2.2535,2.2548,2.3748,2.4567,-0.5362,-0.5088,-0.4884,-0.5024,-0.4698,-0.4111,-0.3107,-0.2169,-0.1232,-0.0218,0.0,0.0,0.0,-0.0817,-0.1585,-0.1586,-0.3308,-0.4606,-0.4686,-0.5628,-0.6312,-0.6454,-0.6603,-0.6753,0.0,-0.6919,-0.6922,-0.6922,-0.7048,-0.7126,-0.7126,-0.7126,-0.7126,-0.7126,-0.7037,-0.7037,-0.7037,-0.5883,-0.4723,-0.3563,-0.2359,-0.1127,0.0087,0.215,0.3675,0.4844,0.5867,0.6338,0.6338,0.6338,0.6338,0.6338,0.6338,0.6338,0.649,0.748,0.8542,0.9372,0.9372,0.9372,0.9372,0.9372,0.9372,0.9599,1.0565,1.0864,1.1087,1.199,1.2285,1.2285,1.2278,1.1392,1.0683,1.1637,1.0125,0.9034,1.093,1.0579,1.0158,1.1142,1.1354,1.1354,1.1354,1.1354,1.1423,1.1423,1.141,1.1403,1.1403,1.1403,1.1396,1.1396,1.1396,1.1805,1.2744,1.3595,1.4507,1.5349,1.6218,1.6994,1.777,1.7831,1.8611,2.0226,2.0724,2.1414,2.2284,2.2836,2.3053,2.3113,2.393,2.4292,-0.6281,-0.5871,-0.5396,-0.5538,-0.5047,-0.4419,-0.4058,-0.2758,-0.1534,-0.1115,-0.0872,-0.0571,-0.0073,-0.1245,-0.2354,-0.2576,-0.3806,-0.4921,-0.5631,-0.6103,-0.6349,-0.6597,-0.6668,0.0,0.0,0.0,0.0,-0.7068,-0.7112,-0.7139,-0.7139,-0.7139,-0.7139,-0.7139,-0.7139,-0.7139,-0.7139,-0.6694,-0.5534,-0.3568,-0.1577,0.0,0.1127,0.1823,0.3065,0.4716,0.5115,0.5628,0.6338,0.6338,0.6338,0.6338,0.6338,0.6338,0.6338,0.6641,0.7022,0.748,0.8841,0.9296,0.9296,0.9296,0.9296,0.9523,1.049,1.034,1.0045,1.1013,1.0795,1.0421,1.1168,1.1021,1.0733,1.1101,1.1113,1.0967,1.0973,1.1263,1.1565,1.1932,1.2004,1.2004,1.2004,1.2004,1.2004,1.2004,1.1677,1.1423,1.1423,1.1423,1.1423,1.1423,1.1423,1.156,1.1901,1.2706,1.331,1.3627,1.5006,1.6268,1.7332,1.8029,1.9005,2.046,2.1202,2.1726,2.2056,2.2737,2.3078,2.3138,2.3365,2.3767,-0.6734,-0.6258,-0.5701,-0.5847,-0.5478,-0.5067,-0.4691,-0.3577,-0.2474,-0.1755,-0.1618,-0.1426,-0.058,-0.196,-0.3247,-0.3329,-0.4347,-0.5327,-0.6019,-0.6098,-0.6227,-0.6576,-0.6668,-0.6797,0.0,0.0,0.0,-0.7139,-0.7139,-0.7139,-0.7139,-0.7139,-0.7139,-0.7139,-0.7139,-0.7139,-0.7139,-0.7139,-0.5888,-0.357,-0.1149,0.035,0.104,0.142,0.2532,0.4123,0.4499,0.5315,0.6338,0.6338,0.6338,0.6338,0.6338,0.6338,0.6338,0.6338,0.6338,0.649,0.7783,0.8237,0.8237,0.8237,0.8237,0.8389,0.9437,0.9291,0.8993,0.9965,0.982,0.9448,1.0115,1.0265,1.034,1.0708,1.1019,1.1248,1.1316,1.1242,1.1477,1.215,1.1996,1.1848,1.2224,1.2305,1.2305,1.2305,1.1977,1.1737,1.1737,1.1737,1.1737,1.1737,1.1737,1.1877,1.2221,1.2709,1.3194,1.3599,1.4942,1.6099,1.6921,1.7915,1.8929,2.0128,2.0974,2.1565,2.1877,2.2689,2.3078,2.3078,2.3078,2.3365,-0.6639,-0.6261,-0.5861,-0.6006,-0.6152,-0.6025,-0.5002,-0.4766,-0.4139,-0.2108,-0.225,-0.2456,-0.137,-0.2885,-0.4197,-0.3847,-0.4914,-0.5823,-0.5823,-0.5823,-0.5986,0.0,0.0,0.0,0.0,0.0,0.0,-0.7139,0.0,-0.7139,-0.7139,-0.7139,-0.7139,-0.7139,-0.7139,-0.7139,-0.7139,-0.7051,-0.5888,-0.3659,-0.1254,-0.0089,-0.0087,0.1018,0.207,0.3157,0.4184,0.5237,0.6338,0.6338,0.6338,0.6338,0.6338,0.6338,0.6338,0.6338,0.6338,0.6338,0.6338,0.6338,0.6338,0.6338,0.6338,0.649,0.748,0.7783,0.7931,0.8922,0.9221,0.9145,0.9221,0.9221,0.9448,1.0484,0.997,0.9825,1.1774,1.072,0.9976,1.1848,1.1465,1.1087,1.215,1.2305,1.2305,1.2305,1.2305,1.2305,1.2305,1.2305,1.2305,1.2305,1.2305,1.2666,1.3528,1.36,1.4027,1.5021,1.6,1.6498,1.6498,1.7501,1.8395,1.9243,2.0074,2.091,2.1753,2.2567,2.3005,2.3017,2.3017,2.3078,-0.6634,-0.6353,-0.6152,-0.6193,-0.6234,-0.6257,-0.5944,-0.5237,-0.4486,-0.373,-0.3549,-0.3173,-0.2137,-0.3659,-0.4904,-0.4225,-0.529,0.0,-0.6146,-0.6146,0.0,-0.6444,0.0,-0.6759,-0.6915,-0.7058,0.0,0.0,-0.7139,-0.7139,-0.7139,-0.7139,-0.7139,-0.7139,-0.7139,-0.7139,-0.7139,-0.6248,-0.5534,-0.491,-0.2505,-0.134,-0.1331,-0.0086,0.1422,0.3147,0.3419,0.4608,0.6338,0.6338,0.6338,0.6338,0.6338,0.6338,0.6338,0.6338,0.6338,0.6338,0.6338,0.6338,0.6338,0.6338,0.6338,0.649,0.748,0.7249,0.6868,0.7936,0.7629,0.7249,0.8012,0.8161,0.8466,0.9442,0.9523,0.9674,1.0938,1.0789,1.0565,1.1087,1.1013,1.1087,1.215,1.2305,1.2305,1.2305,1.2305,1.2305,1.2305,1.2305,1.2305,1.2305,1.2305,1.2372,1.2666,1.2666,1.2732,1.3018,1.4585,1.5587,1.5587,1.7148,1.8076,1.8337,1.9177,1.9748,1.9944,2.0846,2.1553,2.2199,2.2199,2.2506,-0.6556,-0.636,-0.6338,-0.6338,-0.6338,-0.6227,-0.6088,-0.5601,-0.4998,-0.4182,-0.4161,-0.3959,-0.2905,-0.4188,-0.5186,0.0,0.0,0.0,-0.6061,-0.6061,-0.6363,0.0,-0.7224,0.0,-0.8134,-0.7889,-0.7763,0.0,-0.7401,-0.7139,-0.7139,-0.7139,-0.7139,-0.7139,-0.7139,-0.7139,-0.7139,-0.5983,-0.5179,-0.4554,-0.2683,-0.1522,-0.0985,-0.0343,0.0924,0.2423,0.0,0.3673,0.5628,0.5628,0.5867,0.6338,0.6338,0.6338,0.6338,0.6338,0.6338,0.6338,0.6338,0.6338,0.6338,0.6338,0.6338,0.6412,0.6945,0.6718,0.6416,0.6945,0.6718,0.6416,0.7022,0.748,0.7936,0.8542,0.8998,0.9448,1.004,0.9814,0.9508,0.9508,0.9814,1.034,1.0875,1.095,1.095,1.095,1.095,1.1174,1.162,1.1996,1.2305,1.2305,1.2305,1.2305,1.2305,1.2305,1.2305,1.2305,1.4091,1.5234,1.5234,1.701,1.8008,1.8008,1.8854,1.9299,1.9299,2.0204,2.1037,2.1877,2.1877,2.2322,-0.6675,-0.6398,-0.6338,-0.6338,-0.6338,-0.6179,-0.5871,-0.58,-0.5419,-0.4223,-0.4457,-0.4597,-0.3703,-0.4523,-0.5233,-0.5013,0.0,-0.5817,-0.5857,-0.5864,-0.6324,-0.7668,-0.7939,-0.8511,-0.9756,-0.8993,-0.852,-0.8877,-0.7753,-0.7139,-0.7139,-0.7139,-0.7139,-0.7139,-0.7139,-0.7139,-0.7139,-0.616,-0.5087,-0.4014,-0.2681,-0.1522,-0.0448,-0.0172,0.0588,0.1589,0.0,0.0,0.453,0.4608,0.5237,0.6103,0.6261,0.6338,0.6338,0.6338,0.6338,0.6338,0.6338,0.6338,0.6338,0.6338,0.6338,0.6338,0.6338,0.6338,0.6338,0.6338,0.6338,0.6338,0.6338,0.6949,0.7629,0.7629,0.8237,0.8922,0.9069,0.8389,0.7859,0.8008,0.8618,0.9145,0.9301,0.9296,0.9296,0.9296,0.9296,0.9593,1.0484,1.1465,1.215,1.2298,1.2305,1.2305,1.2305,1.2305,1.2305,1.2305,1.4019,1.5092,1.5163,1.6862,1.7862,1.8008,1.8721,1.911,1.911,1.9879,2.0719,2.1553,2.1553,2.2002,-0.731,-0.676,-0.6338,-0.6338,-0.6338,-0.6179,-0.5871,-0.58,0.0,0.0,-0.4829,-0.478,-0.4355,-0.467,-0.506,-0.5254,0.0,0.0,0.0,0.0,-0.6579,0.0,0.0,0.0,0.0,0.0,0.0,0.0,0.0,-0.7139,-0.7139,-0.7139,-0.7139,-0.7139,-0.7139,-0.7139,-0.7139,-0.6874,-0.6694,-0.6422,-0.4283,-0.3215,-0.2943,-0.0943,0.0588,0.1589,0.1599,0.0,0.3435,0.4295,0.4844,0.5079,0.5944,0.6338,0.6338,0.6338,0.6338,0.6338,0.6338,0.6338,0.6338,0.6338,0.6338,0.6338,0.6338,0.6338,0.6338,0.6338,0.6338,0.6338,0.6338,0.6416,0.6567,0.6567,0.6721,0.7022,0.7859,0.7936,0.8008,0.8841,0.8542,0.8313,0.9145,0.9296,0.9296,0.9296,0.9296,0.9372,0.9523,1.0415,1.1391,1.2224,1.2305,1.2305,1.2305,1.2305,1.2305,1.2305,1.331,1.4307,1.5163,1.6289,1.7217,1.8008,1.8144,1.8202,1.8202,1.8405,1.8921,1.9759,1.9759,2.0204,-0.7651,-0.7183,-0.6949,-0.6416,-0.6338,-0.6139,-0.5677,0.0,0.0,-0.4806,-0.468,-0.4636,-0.4543,-0.4711,0.0,-0.5108,0.0,0.0,0.0,0.0,0.0,0.0,0.0,0.0,0.0,0.0,0.0,0.0,0.0,-0.7753,-0.7139,-0.7139,-0.7139,-0.7139,-0.7139,-0.7139,-0.7139,-0.7139,-0.6786,-0.616,-0.5087,-0.3907,-0.2634,-0.1448,-0.0334,0.0742,0.0796,0.0,0.2347,0.2893,0.375,0.4766,0.5237,0.5786,0.6257,0.5709,0.5473,0.5392,0.4844,0.5002,0.5473,0.5473,0.5867,0.6338,0.6338,0.6338,0.6338,0.6338,0.6338,0.6338,0.6338,0.6338,0.6338,0.6338,0.6338,0.6412,0.6949,0.7022,0.7176,0.7629,0.7326,0.7176,0.7629,0.7706,0.7706,0.7706,0.7706,0.7936,0.8466,0.9367,1.0415,1.1391,1.1539,1.1694,1.2224,1.2305,1.2305,1.2305,1.3164,1.3882,1.4378,1.579,1.6784,1.7285,1.7725,1.8008,1.8008,1.8008,1.8462,1.9299,1.9299,1.9759,-0.8212,-0.779,-0.7503,-0.6788,-0.649,-0.6177,-0.5566,-0.5428,0.0,-0.4642,-0.4519,-0.4519,-0.4519,-0.466,-0.4843,0.0,-0.5308,-0.5657,0.0,0.0,0.0,0.0,0.0,0.0,0.0,0.0,0.0,0.0,0.0,0.0,-0.7139,-0.7139,-0.7139,-0.7139,-0.7139,-0.7139,-0.7139,-0.7139,-0.6694,-0.5805,-0.551,-0.431,-0.2509,-0.2023,-0.1238,-0.0325,-0.0079,0.0,0.0,0.1489,0.2582,0.4064,0.4295,0.4844,0.555,0.4686,0.4373,0.4217,0.3357,0.3671,0.4373,0.4373,0.5237,0.6338,0.6338,0.6338,0.6338,0.6338,0.6338,0.6338,0.6338,0.6338,0.6338,0.6338,0.6338,0.6338,0.6338,0.6338,0.6338,0.6338,0.6338,0.6338,0.6338,0.6338,0.6338,0.6338,0.6338,0.6567,0.7403,0.8389,0.9367,1.034,1.0864,1.1465,1.2224,1.2305,1.2305,1.2305,1.3025,1.3455,1.3673,1.5367,1.6419,1.6636,1.7501,1.8008,1.8008,1.8008,1.8337,1.9044,1.9044,1.9365,-0.9508,-0.8519,-0.741,-0.7584,-0.6945,-0.6177,-0.5566,0.0,-0.5253,-0.4642,-0.4519,-0.4519,-0.4519,-0.4539,-0.4596,-0.4874,-0.4965,-0.5186,-0.5725,0.0,0.0,0.0,0.0,0.0,0.0,0.0,0.0,0.0,0.0,0.0,-0.7139,-0.7139,-0.7139,-0.7139,-0.7139,-0.7139,-0.7139,-0.7139,-0.7051,-0.6959,-0.5689,-0.5023,-0.4748,-0.2571,-0.1546,-0.1379,-0.0396,0.0,0.0,0.1176,0.1724,0.1958,0.2891,0.3279,0.3357,0.3279,0.3279,0.3202,0.3124,0.3202,0.3279,0.3279,0.4608,0.6338,0.6338,0.6338,0.6338,0.6338,0.6338,0.6338,0.6338,0.6338,0.6338,0.6338,0.6338,0.6338,0.6338,0.6338,0.6338,0.6338,0.6338,0.6338,0.6338,0.6338,0.6338,0.6338,0.6338,0.6338,0.6416,0.7326,0.8313,0.9296,1.1099,1.2224,1.2298,1.2305,1.2305,1.2305,1.2378,1.2806,1.3673,1.4736,1.5728,1.6567,1.7501,1.8008,1.8008,1.8008,1.8008,1.8144,1.8144,1.8134,-0.8337,-0.8179,-0.7941,-0.6997,-0.6279,-0.5769,-0.5504,0.0,-0.4863,-0.4587,-0.4519,-0.4519,-0.4519,-0.4519,-0.456,-0.4623,-0.4799,-0.5003,-0.5237,0.0,0.0,0.0,0.0,0.0,0.0,0.0,0.0,0.0,0.0,0.0,-0.7139,-0.7139,-0.7139,-0.7139,-0.7139,-0.7139,-0.7139,-0.7054,-0.7014,-0.6924,-0.5741,-0.4713,-0.3987,-0.245,-0.1288,-0.0636,-0.0158,0.0,0.0,0.0471,0.102,0.1645,0.2035,0.2579,0.3046,0.2425,0.219,0.2113,0.1488,0.1643,0.219,0.219,0.3205,0.4373,0.4373,0.5315,0.618,0.555,0.5786,0.6338,0.6338,0.6338,0.6338,0.6338,0.6338,0.6338,0.6338,0.6338,0.6338,0.6338,0.6338,0.6338,0.6338,0.6338,0.6338,0.6338,0.6338,0.649,0.7099,0.8089,0.9069,1.0115,1.0938,1.162,1.2224,1.2305,1.2305,1.2305,1.2305,1.2445,1.2806,1.4378,1.5376,1.572,1.7226,1.8008,1.8008,1.8008,1.8008,1.8008,1.8008,1.8008,-0.7817,-0.7862,-0.792,-0.6737,-0.5987,-0.5484,0.0,0.0,-0.4636,-0.444,-0.4433,-0.4519,-0.4519,-0.4519,-0.4519,-0.4519,-0.4643,-0.4816,-0.4908,-0.6302,0.0,0.0,0.0,0.0,0.0,0.0,0.0,0.0,0.0,0.0,0.0,-0.7139,-0.7139,-0.7139,-0.7139,-0.7122,-0.7078,-0.6976,-0.6731,-0.6342,-0.5444,-0.4437,-0.3399,-0.2252,-0.1273,-0.0471,0.0,0.0,0.0,0.0,0.0471,0.1098,0.1098,0.1566,0.2111,0.141,0.1098,0.102,0.0235,0.0471,0.1098,0.1098,0.1801,0.2579,0.2267,0.3671,0.5234,0.4844,0.5473,0.6257,0.5944,0.6099,0.6338,0.6338,0.6338,0.6338,0.6338,0.6338,0.6338,0.6338,0.6338,0.6338,0.6338,0.6338,0.6338,0.6338,0.6338,0.6641,0.7706,0.8694,0.9669,1.0714,1.1087,1.1545,1.2224,1.2305,1.2305,1.2305,1.2305,1.2305,1.2305,1.4163,1.5234,1.5234,1.701,1.8008,1.8008,1.8008,1.8008,1.8008,1.8008,1.8076,-0.8705,-0.7887,-0.703,-0.7402,-0.6456,-0.5325,-0.5169,-0.4904,-0.4606,-0.4257,-0.4365,-0.4519,-0.4519,-0.4519,-0.4519,-0.4519,-0.4522,-0.4572,-0.4877,-0.6418,0.0,0.0,0.0,0.0,0.0,0.0,0.0,0.0,0.0,0.0,0.0,-0.7139,-0.7139,-0.7139,-0.7139,-0.7071,-0.6932,-0.6929,-0.6336,-0.51,-0.4994,-0.4373,-0.3397,-0.2138,-0.1568,0.0,0.0,0.0,0.0,0.0,0.0,0.0,0.0,0.0,0.0,0.0,0.0,0.0,0.0,0.0,0.0,0.0,0.0706,0.1411,0.0392,0.1488,0.3357,0.4375,0.5473,0.6025,0.5002,0.5473,0.6338,0.6338,0.6338,0.6338,0.6338,0.6338,0.6338,0.6338,0.6338,0.6338,0.6338,0.6338,0.6338,0.6338,0.6338,0.6641,0.7706,0.8694,0.9669,1.0714,1.1694,1.2298,1.2305,1.2305,1.2305,1.2305,1.2305,1.2305,1.2305,1.4163,1.5234,1.5234,1.701,1.8008,1.8008,1.8008,1.8008,1.8008,1.8008,1.8232,-0.7767,-0.7259,-0.6815,-0.6333,-0.5389,-0.4613,-0.4663,-0.4446,-0.4236,-0.4194,-0.4362,-0.4519,-0.4519,-0.4519,-0.4519,-0.4519,-0.4519,-0.4712,0.0,0.0,0.0,0.0,0.0,0.0,0.0,0.0,0.0,0.0,0.0,0.0,0.0,-0.7048,-0.7041,-0.7136,-0.7048,-0.6973,-0.6929,-0.6722,-0.6427,-0.6047,-0.447,-0.3474,-0.3159,-0.1336,0.0,0.0,0.0,0.0,0.0,0.0,0.0,0.0,0.0,0.0,0.0,0.0,0.0,0.0,0.0,0.0,0.0,0.0,0.0236,0.0471,0.0079,0.1488,0.3202,0.3513,0.4373,0.5157,0.4766,0.5473,0.6338,0.6338,0.6338,0.6338,0.6338,0.6338,0.6338,0.6338,0.6338,0.6338,0.6338,0.6338,0.6338,0.6338,0.6338,0.6641,0.7706,0.8089,0.8689,0.9669,1.064,1.1545,1.2224,1.2305,1.2305,1.2305,1.2305,1.2305,1.2305,1.3528,1.4171,1.4171,1.5446,1.6088,1.6088,1.6088,1.658,1.7435,1.7722,1.8439,-0.7436,-0.6742,-0.6187,-0.5706,-0.4856,0.0,-0.4348,-0.4195,-0.4046,-0.409,-0.4321,-0.4519,-0.4519,-0.4519,-0.4519,-0.4519,-0.4736,-0.51,0.0,0.0,0.0,0.0,0.0,0.0,0.0,0.0,0.0,0.0,0.0,0.0,0.0,-0.6892,-0.6881,-0.697,-0.6888,-0.6814,-0.6756,-0.6566,-0.6281,-0.5826,-0.4403,-0.3515,-0.3046,-0.1331,0.0,0.0,0.0,0.0,0.0,0.0,0.0,0.0,0.0,0.0,0.0,0.0,0.0,0.0,0.0,0.0,0.0,0.0,0.0,0.0,0.0,0.1175,0.2423,0.2033,0.2969,0.4062,0.4062,0.4921,0.5786,0.6183,0.6338,0.6338,0.6338,0.6338,0.6338,0.6338,0.6338,0.6338,0.6338,0.6338,0.6338,0.6338,0.6338,0.6641,0.7706,0.7783,0.8161,0.9221,1.019,1.1087,1.1694,1.2077,1.2305,1.2305,1.2305,1.2305,1.2305,1.3164,1.3673,1.3673,1.4665,1.5234,1.5234,1.5295,1.6067,1.7415,1.7737,1.8666,0.0,-0.6449,-0.5408,-0.553,-0.4824,-0.4076,-0.4117,-0.4046,0.0,-0.4019,-0.425,-0.4505,-0.4515,-0.4519,-0.4519,-0.457,-0.5109,-0.5729,0.0,0.0,0.0,0.0,0.0,0.0,0.0,0.0,0.0,0.0,0.0,0.0,0.0,-0.6688,-0.6685,-0.6685,-0.6675,-0.6607,-0.6474,-0.6461,-0.5909,-0.4844,-0.4766,-0.4217,-0.3202,-0.2113,0.0,0.0,0.0,0.0,0.0,0.0,0.0,0.0,0.0,0.0,0.0,0.0,0.0,0.0,0.0,0.0,0.0,0.0,0.0,0.0,0.0,0.0706,0.1254,0.0314,0.1409,0.3046,0.3046,0.3904,0.4999,0.6025,0.6338,0.6338,0.6338,0.6338,0.6338,0.6338,0.6338,0.6338,0.6338,0.6338,0.6338,0.6338,0.6338,0.6644,0.7553,0.7706,0.8084,0.8993,0.9965,1.0634,1.0714,1.1694,1.2305,1.2305,1.2305,1.2305,1.2305,1.3171,1.36,1.36,1.4545,1.5062,1.5062,1.5365,1.6328,1.768,1.8141,1.8945,-0.8448,0.0,-0.5865,-0.5455,-0.4846,-0.4221,0.0,-0.3792,-0.3877,-0.3995,-0.4168,-0.4331,-0.4498,-0.4519,-0.468,-0.5164,-0.5378,-0.6119,0.0,0.0,0.0,0.0,0.0,0.0,0.0,0.0,0.0,0.0,0.0,0.0,0.0,-0.699,-0.6525,-0.6525,-0.642,-0.6396,-0.6471,-0.6366,-0.6213,-0.5944,-0.5079,-0.453,-0.4295,-0.2426,0.0,0.0,0.0,0.0,0.0,0.0,0.0,0.0,0.0,0.0,0.0,0.0,0.0,0.0,0.0,0.0,0.0,0.0,0.0,0.0,0.0,0.0157,0.0314,0.0079,0.0941,0.2113,0.289,0.3904,0.4999,0.6025,0.6338,0.6338,0.6338,0.6338,0.6338,0.6338,0.6338,0.6338,0.6338,0.6338,0.6338,0.6338,0.6338,0.6416,0.6641,0.6644,0.6718,0.6945,0.7931,0.8841,0.9593,1.1248,1.2305,1.2305,1.2305,1.2305,1.2305,1.2519,1.2666,1.2666,1.311,1.3379,1.3379,1.4702,1.5952,1.7123,1.831,1.9372,-0.8398,-0.7273,-0.605,-0.5437,-0.5043,-0.4613,-0.3796,-0.3914,-0.4164,-0.4038,-0.4393,-0.476,-0.4918,-0.5466,-0.5919,-0.6014,-0.6744,0.0,0.0,0.0,0.0,0.0,0.0,0.0,0.0,0.0,0.0,0.0,0.0,0.0,0.0,-0.7434,-0.692,-0.6455,-0.6302,-0.6298,-0.6376,-0.6298,-0.6338,-0.6261,-0.5709,-0.547,-0.5392,-0.3752,-0.2737,0.0,0.0,0.0,0.0,0.0,0.0,0.0,0.0,0.0,0.0,0.0,0.0,0.0,0.0,0.0,0.0,0.0,0.0,0.0,0.0,0.0,0.0,0.0,0.0392,0.1257,0.2773,0.3651,0.4458,0.6122,0.6464,0.6444,0.6373,0.6359,0.6339,0.6352,0.6338,0.6338,0.6338,0.6338,0.6338,0.6338,0.6338,0.6338,0.6338,0.6338,0.6338,0.6338,0.7629,0.8694,0.9221,1.1174,1.2305,1.2305,1.2305,1.2305,1.2305,1.2305,1.2365,1.2505,1.2806,1.3026,1.316,1.4576,1.5927,1.7108,1.8373,1.9599,-0.8267,-0.7469,-0.6569,-0.5669,-0.5437,-0.5178,-0.41,-0.4345,-0.4692,-0.4375,-0.4875,-0.5471,-0.574,-0.6644,0.0,0.0,0.0,0.0,0.0,0.0,0.0,0.0,0.0,0.0,0.0,0.0,0.0,0.0,0.0,0.0,0.0,-0.7931,-0.7403,-0.6567,-0.6416,-0.6338,-0.6338,-0.6338,-0.6338,-0.6338,-0.6338,-0.6338,-0.6261,-0.5157,-0.4217,0.0,0.0,0.0,-0.0235,-0.0235,-0.0157,0.0,0.0,0.0,0.0,0.0,0.0,0.0,0.0,0.0,0.0,0.0,0.0,0.0,0.0,0.0,0.0,0.0,0.0,0.0478,0.251,0.3174,0.3842,0.5918,0.6533,0.6664,0.6536,0.6508,0.6471,0.6349,0.6308,0.6291,0.6291,0.6352,0.6338,0.6338,0.6338,0.6338,0.6338,0.6338,0.6338,0.649,0.8084,0.9221,0.9523,1.1099,1.215,1.2298,1.2305,1.2325,1.2365,1.2371,1.2512,1.2889,1.312,1.34,1.3559,1.4955,1.6155,1.7342,1.8638,1.9756,-0.9191,-0.9283,-0.8789,-0.6625,-0.605,-0.5873,-0.5178,-0.5116,-0.5296,-0.5649,-0.581,-0.6166,-0.7052,-0.6946,-0.7067,0.0,0.0,0.0,0.0,0.0,0.0,0.0,0.0,0.0,0.0,0.0,0.0,0.0,0.0,0.0,0.0,-0.8761,-0.7706,-0.7553,-0.6718,-0.6338,-0.6338,-0.6338,-0.6338,-0.6338,-0.6338,-0.6338,-0.6261,-0.5157,-0.4608,-0.4375,0.0,-0.2268,-0.1333,-0.1333,-0.0784,0.0,0.0,0.0,0.0,0.0,0.0,0.0,0.0,0.0,0.0,0.0,0.0,0.0,0.0,0.0,0.0,0.0,0.0,0.025,0.1501,0.2583,0.3669,0.4856,0.5945,0.6695,0.6671,0.6664,0.6658,0.6637,0.6529,0.6441,0.6441,0.6339,0.6338,0.6338,0.6338,0.6338,0.6338,0.6338,0.6641,0.748,0.7859,0.8685,1.0409,1.0864,1.1391,1.2224,1.2305,1.2418,1.2741,1.2755,1.2826,1.3133,1.3427,1.3601,1.3647,1.5901,1.7122,1.7342,1.9432,2.0401,-0.8725,-0.8766,-0.8625,-0.775,-0.7914,-0.7948,-0.6768,-0.6756,-0.6884,-0.6519,-0.69,-0.7396,0.0,0.0,0.0,0.0,0.0,0.0,0.0,0.0,0.0,0.0,0.0,0.0,0.0,0.0,0.0,0.0,0.0,0.0,0.0,0.0,-0.8908,-0.7859,-0.7326,-0.6872,-0.6338,-0.6338,-0.6338,-0.6338,-0.6338,-0.6338,-0.6261,-0.5786,-0.5234,-0.4603,0.0,-0.2503,-0.1568,-0.0941,-0.0471,0.0,0.0,0.0,0.0,0.0,0.0,0.0,0.0,0.0,0.0,0.0,0.0,0.0,0.0,0.0,0.0,0.0,0.0,0.0253,0.1448,0.2645,0.3765,0.4932,0.6073,0.6915,0.6841,0.6824,0.68,0.6715,0.6644,0.6597,0.6597,0.6542,0.6471,0.6386,0.6376,0.6346,0.6271,0.6338,0.649,0.6945,0.7936,0.8993,0.989,1.1019,1.1842,1.2305,1.2452,1.2681,1.2815,1.306,1.33,1.344,1.3734,1.3881,1.3888,1.6211,1.7342,1.7334,1.959,2.0566,-0.8587,-0.8638,-0.8808,-0.9028,-0.9192,-0.9033,-0.8057,-0.8123,-0.8245,-0.762,-0.8211,-0.8763,0.0,0.0,0.0,0.0,0.0,0.0,0.0,0.0,0.0,0.0,0.0,0.0,0.0,0.0,0.0,0.0,0.0,0.0,0.0,0.0,-0.9959,-0.8237,-0.7936,-0.7326,-0.6338,-0.6338,-0.6338,-0.6338,-0.6338,-0.6338,-0.6338,-0.6338,-0.586,-0.4991,-0.4215,-0.3127,-0.1881,-0.1097,-0.0471,0.0,0.0,0.0,0.0,0.0,0.0,0.0,0.0,0.0,0.0,0.0,0.0,0.0,0.0,0.0,0.0,0.0,0.0,0.0172,0.1132,0.2444,0.3853,0.4714,0.6068,0.7109,0.7,0.6976,0.6943,0.6827,0.6776,0.6753,0.6753,0.6725,0.6661,0.6542,0.6525,0.6485,0.6376,0.6595,0.6905,0.7137,0.8712,0.9808,0.9976,1.1403,1.2331,1.2405,1.2694,1.2856,1.2852,1.336,1.3674,1.3748,1.3975,1.4088,1.4088,1.6041,1.6927,1.7009,1.8948,1.9835,-0.9929,-1.0676,-1.117,-1.0463,-0.8746,-0.7486,-0.8474,-0.852,-0.8605,-0.9339,-0.9728,-1.0073,0.0,0.0,0.0,0.0,0.0,0.0,0.0,0.0,0.0,0.0,0.0,0.0,0.0,0.0,0.0,0.0,0.0,0.0,0.0,0.0,0.0,-0.9221,-0.8313,-0.7326,-0.6338,-0.6338,-0.6338,-0.6338,-0.6338,-0.6338,-0.6338,-0.6338,-0.6261,-0.618,-0.6103,-0.4927,-0.2974,-0.2891,-0.1721,0.0,0.0,0.0,0.0,0.0,0.0,0.0,0.0,0.0,0.0,0.0,0.0,0.0,0.0,0.0,0.0,0.0,0.0,0.0,0.009,0.1875,0.3653,0.3748,0.544,0.7136,0.7129,0.7126,0.7122,0.7109,0.7004,0.6912,0.6912,0.6797,0.6698,0.6685,0.6685,0.6681,0.6671,0.7554,0.8603,0.957,1.051,1.1371,1.2022,1.2224,1.2418,1.2775,1.2808,1.2872,1.3166,1.348,1.3774,1.4048,1.4075,1.4088,1.4088,1.522,1.5779,1.5861,1.7009,1.7577,-0.9337,-1.0026,-1.0548,-1.0065,-0.9369,-0.9036,-0.9895,-0.9962,-0.9673,-0.9452,-1.0221,-1.0855,0.0,0.0,0.0,0.0,0.0,0.0,0.0,0.0,0.0,0.0,0.0,0.0,0.0,0.0,0.0,0.0,0.0,0.0,0.0,0.0,0.0,-1.0265,-0.9291,-0.8237,-0.7253,-0.6644,-0.6338,-0.6338,-0.6338,-0.6338,-0.6338,-0.6338,-0.6338,-0.6338,-0.6268,-0.5085,-0.3044,-0.2427,-0.1333,0.0,0.0,0.0,0.0,0.0,0.0,0.0,0.0,0.0,0.0,0.0,0.0,0.0,0.0,0.0,0.0,0.0,0.0,0.0,0.0,0.179,0.357,0.357,0.5354,0.7139,0.7139,0.7139,0.7139,0.7139,0.7095,0.7061,0.7061,0.701,0.6943,0.6854,0.6844,0.6807,0.6712,0.7675,0.856,0.8968,1.0519,1.1872,1.2795,1.2866,1.2913,1.3026,1.3033,1.3166,1.3467,1.3761,1.3975,1.4082,1.4088,1.4088,1.4088,1.522,1.5696,1.5703,1.6764,1.7342,-0.9766,-1.0281,-1.0899,-1.0746,-1.0454,-1.0423,-1.1335,-1.101,-1.0573,-1.0732,-1.1354,-1.1634,-1.0974,0.0,0.0,0.0,0.0,0.0,0.0,0.0,0.0,0.0,0.0,0.0,0.0,0.0,0.0,0.0,0.0,0.0,0.0,0.0,0.0,0.0,-0.982,-0.8846,-0.7783,-0.6795,-0.6338,-0.6338,-0.6338,-0.6338,-0.6338,-0.6338,-0.6338,-0.6338,-0.6271,-0.5082,-0.3041,-0.2349,-0.1256,0.0,0.0,0.0,0.0,0.0,0.0,0.0,0.0,0.0,0.0,0.0,0.0,0.0,0.0,0.0,0.0,0.0,0.0269,0.0449,0.009,0.179,0.3659,0.4105,0.5708,0.7139,0.7139,0.7139,0.7139,0.7139,0.7139,0.7139,0.7139,0.7139,0.7105,0.701,0.6997,0.6956,0.6854,0.8166,0.9299,0.9973,1.1369,1.2574,1.3141,1.3213,1.3253,1.334,1.3347,1.344,1.3552,1.3928,1.4088,1.4088,1.4088,1.4088,1.4088,1.481,1.5213,1.5213,1.5959,1.6281,-1.1571,-1.2038,-1.2721,-1.2827,-1.1836,-1.1186,-1.2565,-1.1696,-1.124,-1.3607,-1.3502,-1.2639,-1.1628,0.0,0.0,0.0,0.0,0.0,0.0,0.0,0.0,0.0,0.0,0.0,0.0,0.0,0.0,0.0,0.0,0.0,0.0,0.0,0.0,0.0,-0.982,-0.8846,-0.7859,-0.6795,-0.6338,-0.6338,-0.6338,-0.6338,-0.6338,-0.6338,-0.6338,-0.6261,-0.6261,-0.5079,-0.3124,-0.3051,-0.1881,0.0,0.0,0.0,0.0,0.0,0.0,0.0,0.0,0.0,0.0,0.0,0.0,0.0,0.0,0.0,0.0,0.0,0.0897,0.1522,0.0359,0.179,0.3926,0.509,0.6248,0.7139,0.7139,0.7139,0.7139,0.7139,0.7139,0.7139,0.7139,0.7139,0.7139,0.7139,0.7139,0.7139,0.7139,0.9135,1.1384,1.3339,1.3566,1.3446,1.324,1.322,1.334,1.3627,1.3566,1.3566,1.3566,1.3928,1.4088,1.4088,1.4088,1.4088,1.4088,1.4088,1.4088,1.4088,1.4088,1.4088,-0.9335,-1.053,-1.1777,-1.1217,-1.2078,-1.324,-1.3632,-1.3059,-1.2846,-1.4544,-1.4164,-1.3518,-1.3439,0.0,0.0,0.0,0.0,0.0,0.0,0.0,0.0,0.0,0.0,0.0,0.0,0.0,0.0,0.0,0.0,0.0,0.0,0.0,0.0,0.0,-1.0196,-0.9145,-0.8846,-0.7176,-0.6338,-0.6338,-0.6338,-0.6338,-0.6338,-0.6338,-0.6338,-0.618,-0.4681,-0.3665,-0.2968,-0.1488,-0.0549,0.0,0.0,0.0,0.0,0.0,0.0,0.0,0.0,0.0,0.0,0.0,0.0,0.0,0.0,0.0,0.0,0.0,0.0269,0.0807,0.2147,0.3037,0.3659,0.4016,0.562,0.7139,0.7139,0.7139,0.7139,0.7139,0.7139,0.7139,0.7139,0.7139,0.7139,0.7139,0.7139,0.7401,0.8277,0.8973,1.0245,1.2481,1.265,1.2962,1.3745,1.3828,1.3861,1.3948,1.3955,1.3955,1.3955,1.4041,1.4088,1.4088,1.4088,1.4088,1.4088,1.4088,1.4088,1.4088,1.4088,1.4088,-0.8594,-1.0445,-1.2498,-1.2365,-1.3232,-1.4214,-1.4785,-1.4715,0.0,0.0,-1.4943,-1.4844,-1.4672,0.0,0.0,0.0,0.0,0.0,0.0,0.0,0.0,0.0,0.0,0.0,0.0,0.0,0.0,0.0,0.0,0.0,0.0,0.0,0.0,0.0,-1.0351,-0.9296,-0.9296,-0.7326,-0.6338,-0.6338,-0.6338,-0.6338,-0.6338,-0.6338,-0.586,-0.4916,-0.3274,-0.2499,-0.2349,-0.0706,0.0,0.0,0.0,0.0,0.0,0.0,0.0,0.0,0.0,0.0,0.0,0.0,0.0,0.0,0.0,0.0,0.0,0.0,0.0718,0.1612,0.2592,0.3927,0.4994,0.4994,0.6065,0.7139,0.7139,0.7139,0.7139,0.7139,0.7139,0.7139,0.7139,0.7139,0.7139,0.7139,0.7139,0.7577,0.8715,0.889,0.9579,1.1466,1.2066,1.2589,1.3294,1.3822,1.4088,1.4088,1.4088,1.4088,1.4088,1.4088,1.4088,1.4088,1.4088,1.4088,1.4088,1.4088,1.4088,1.4088,1.4088,1.4088,-0.8936,-1.1194,-1.3896,-1.4808,-1.4605,0.0,-1.5732,-1.6348,-1.6258,-1.501,0.0,-1.6498,0.0,0.0,0.0,0.0,0.0,0.0,0.0,0.0,0.0,0.0,0.0,0.0,0.0,0.0,0.0,0.0,0.0,0.0,0.0,0.0,0.0,-1.2305,-1.0351,-0.9296,-0.9296,-0.7326,-0.6338,-0.6338,-0.6338,-0.6338,-0.6338,-0.6338,-0.4996,-0.2803,-0.1952,-0.1567,-0.1415,-0.0393,0.0,0.0,0.0,0.0,0.0,0.0,0.0,0.0,0.0,0.0,0.0,0.0,0.0,0.0,0.0,0.0,0.0,0.0,0.1698,0.3213,0.2236,0.4463,0.6962,0.7051,0.7139,0.7139,0.7139,0.7139,0.7139,0.7139,0.7139,0.7139,0.7139,0.7139,0.7139,0.7139,0.7139,0.7489,0.8627,0.8715,0.9235,1.0438,1.1552,1.2242,1.2413,1.347,1.4088,1.4088,1.4088,1.4088,1.4088,1.4088,1.4088,1.4088,1.4088,1.4088,1.4088,1.4088,1.4088,1.4088,1.4088,1.4088,-0.936,-1.041,-1.2168,-1.2357,-1.381,-1.5205,-1.5488,-1.5641,-1.5885,-1.6656,0.0,0.0,0.0,0.0,0.0,0.0,0.0,0.0,0.0,0.0,0.0,0.0,0.0,0.0,0.0,0.0,0.0,0.0,0.0,0.0,0.0,0.0,0.0,-1.2305,-1.0351,-0.9296,-0.9296,-0.7326,-0.6338,0.0,-0.6338,-0.6338,-0.6338,-0.6338,-0.421,-0.0701,-0.1327,-0.1096,-0.0314,-0.0079,0.0,0.0,0.0,0.0,0.0,0.0,0.0,0.0,0.0,0.0,0.0,0.0,0.0,0.0,0.0,0.0,0.0,0.0,0.1062,0.2325,0.3037,0.4463,0.5983,0.6874,0.7139,0.7139,0.7139,0.7139,0.7139,0.7139,0.7139,0.7139,0.7139,0.7139,0.7139,0.7139,0.7139,0.7228,0.7489,0.7489,0.8273,1.0351,1.0783,1.1735,1.3561,1.3913,1.4088,1.4088,1.4088,1.4088,1.4088,1.4088,1.4088,1.4088,1.4088,1.4088,1.4088,1.4088,1.4088,1.4088,1.4088,1.4088,-1.1655,-1.2037,-1.2349,-1.319,0.0,-1.541,-1.541,-1.5417,-1.5609,-1.6311,0.0,0.0,0.0,0.0,0.0,0.0,0.0,0.0,0.0,0.0,0.0,0.0,0.0,0.0,0.0,0.0,0.0,0.0,0.0,0.0,0.0,-1.2305,-1.2305,-1.2305,-1.0351,-0.9296,-0.9296,-0.7326,-0.6338,-0.6338,-0.6338,-0.6338,-0.6338,-0.6268,-0.437,-0.1013,-0.1406,-0.1019,0.0,0.0,0.0,0.0,0.0,0.0,0.0,0.0,0.0,0.0,0.0,0.0,0.0,0.0,0.0,0.0,0.0,0.0,0.0085,0.0691,0.1761,0.2948,0.4107,0.5356,0.634,0.6962,0.7139,0.7139,0.7139,0.7139,0.7139,0.7139,0.7139,0.7139,0.7139,0.7139,0.7139,0.7139,0.7139,0.7139,0.7139,0.7139,0.7749,0.9579,1.0269,1.13,1.3118,1.3737,1.4088,1.4088,1.4088,1.4088,1.4088,1.4088,1.4088,1.4088,1.4088,1.4088,1.4088,1.4088,1.4088,1.4088,1.4088,1.4088,-1.2896,-1.3636,-1.3543,-1.5022,-1.541,0.0,-1.541,-1.5379,-1.54,0.0,0.0,0.0,0.0,0.0,0.0,0.0,0.0,0.0,0.0,0.0,0.0,0.0,0.0,0.0,0.0,0.0,0.0,0.0,0.0,0.0,-1.2305,-1.2305,-1.2305,-1.2305,-1.0351,-0.9296,-0.9296,-0.7326,-0.6338,-0.6338,-0.6338,-0.6338,-0.6338,-0.6271,-0.4768,-0.2105,-0.1721,-0.102,0.0,0.0,0.0,0.0,0.0,0.0,0.0,0.0,0.0,0.0,0.0,0.0,0.0,0.0,0.0,0.0,0.0,0.0,0.0253,0.1459,0.263,0.3837,0.509,0.6248,0.7139,0.7139,0.7139,0.7139,0.7139,0.7139,0.7139,0.7139,0.7139,0.7139,0.7139,0.7139,0.7139,0.7139,0.7139,0.7139,0.7404,0.7404,0.7925,0.9318,1.0351,1.1381,1.2504,1.3555,1.4088,1.4088,1.4088,1.4088,1.4088,1.4088,1.4088,1.4088,1.4088,1.4088,1.4088,1.4088,1.4088,1.4088,1.4088,1.4088,-0.8543,-1.1832,-1.512,0.0,-1.541,-1.541,0.0,0.0,0.0,0.0,0.0,0.0,0.0,0.0,0.0,0.0,0.0,0.0,0.0,0.0,0.0,0.0,0.0,0.0,0.0,0.0,0.0,0.0,0.0,0.0,-1.2305,-1.2305,-1.2305,-1.2305,-1.0351,-0.9296,-0.9296,-0.7326,-0.6338,-0.6338,-0.6338,-0.6338,-0.6338,-0.6264,-0.4763,-0.2105,-0.1721,-0.102,0.0,0.0,0.0,0.0,0.0,0.0,0.0,0.0,0.0,0.0,0.0,0.0,0.0,0.0,0.0,0.0,0.0,0.0,0.0253,0.1432,0.2686,0.3837,0.509,0.6248,0.7139,0.7139,0.7139,0.7139,0.7139,0.7139,0.7139,0.7139,0.7139,0.7139,0.7139,0.7139,0.7139,0.7139,0.7139,0.7492,0.854,0.8627,0.9492,1.1638,1.198,1.2589,1.3737,1.3997,1.4088,1.4088,1.4088,1.4088,1.4088,1.4088,1.4088,1.4088,1.4088,1.4088,1.4088,1.4088,1.4088,1.4088,1.4088,1.4088,-0.9499,-1.2574,-1.5394,0.0,-1.541,-1.541,-1.541,0.0,0.0,0.0,0.0,0.0,0.0,0.0,0.0,0.0,0.0,0.0,0.0,0.0,0.0,0.0,0.0,0.0,0.0,0.0,0.0,0.0,0.0,-1.2305,-1.2305,-1.2305,-1.2305,-1.2305,-1.0351,-0.9463,-0.9868,-0.7488,-0.6338,-0.6338,-0.6338,-0.6338,-0.6338,-0.6338,-0.4999,-0.2653,-0.25,-0.1488,0.0,0.0,0.0,0.0,0.0,0.0,0.0,0.0,0.0,0.0,0.0,0.0,0.0,0.0,0.0,0.0,0.0,0.0,0.0421,0.2264,0.3199,0.4016,0.5888,0.6694,0.7139,0.7139,0.7139,0.7139,0.7139,0.7139,0.7139,0.7139,0.7139,0.7139,0.7139,0.7139,0.7139,0.7139,0.7139,0.7577,0.8715,0.889,0.9749,1.2066,1.2328,1.2766,1.3997,1.4088,1.4088,1.4088,1.4088,1.4088,1.4088,1.4088,1.4088,1.4088,1.4088,1.4088,1.4088,1.4088,1.4088,1.4088,1.4088,1.4088,-1.0459,0.0,-1.4321,-1.5184,-1.5389,-1.5402,0.0,0.0,0.0,0.0,0.0,0.0,0.0,0.0,0.0,0.0,0.0,0.0,0.0,0.0,0.0,0.0,0.0,0.0,0.0,0.0,0.0,0.0,0.0,-1.2305,-1.2305,-1.2305,-1.2305,-1.2305,-1.0513,-0.9706,-1.0035,-0.7569,-0.6338,-0.6338,-0.6338,-0.6338,-0.6338,-0.6338,-0.5157,-0.3124,-0.3124,-0.1955,0.0,0.0,0.0,0.0,0.0,0.0,0.0,0.0,0.0,0.0,0.0,0.0,0.0,0.0,0.0,0.0,0.0,0.0,0.0505,0.2935,0.363,0.4103,0.6514,0.7139,0.7139,0.7139,0.7139,0.7139,0.7139,0.7139,0.7139,0.7139,0.7139,0.7139,0.7139,0.7139,0.7139,0.7139,0.7139,0.7665,0.9148,0.9323,1.0183,1.2504,1.2766,1.3118,1.3997,1.4088,1.4088,1.4088,1.4088,1.4088,1.4088,1.4088,1.4088,1.4088,1.4088,1.4088,1.4088,1.4088,1.4088,1.4088,1.4088,1.4088,-0.933,-1.0133,0.0,-1.4595,-1.5391,0.0,0.0,0.0,0.0,0.0,0.0,0.0,0.0,0.0,0.0,0.0,0.0,0.0,0.0,0.0,0.0,0.0,0.0,0.0,0.0,0.0,0.0,0.0,0.0,-1.2305,-1.2305,-1.2305,-1.2305,-1.2305,-1.1004,-0.9949,-0.9377,-0.7326,-0.6338,-0.6338,-0.6338,-0.6338,-0.6338,-0.6338,-0.5157,-0.3124,-0.3124,-0.1955,0.0,0.0,0.0,0.0,0.0,0.0,0.0,0.0,0.0,0.0,0.0,0.0,0.0,0.0,0.0,0.0,0.0,0.0,0.0505,0.2935,0.363,0.4103,0.6514,0.7139,0.7139,0.7139,0.7139,0.7139,0.7139,0.7139,0.7139,0.7139,0.7139,0.7139,0.7139,0.7139,0.7139,0.7139,0.7139,0.7921,1.0178,1.0524,1.1391,1.3737,1.3997,1.4004,1.4088,1.4088,1.4088,1.4088,1.4088,1.4088,1.4088,1.4088,1.4088,1.4088,1.4088,1.4088,1.4088,1.4088,1.4088,1.4088,1.4088,1.4088,0.0,0.0,0.0,-1.2422,-1.3606,-1.4184,0.0,0.0,0.0,0.0,0.0,0.0,0.0,0.0,0.0,0.0,0.0,0.0,0.0,0.0,0.0,0.0,0.0,0.0,0.0,0.0,0.0,0.0,0.0,0.0,-1.2305,-1.2305,-1.2305,-1.2305,-1.184,-1.0247,-0.7403,-0.6641,-0.6338,-0.6338,-0.6338,-0.6338,-0.6338,-0.6338,-0.5157,-0.3124,-0.3124,-0.1955,0.0,0.0,0.0,0.0,0.0,0.0,0.0,0.0,0.0,0.0,0.0,0.0,0.0,0.0,0.0,0.0,0.0,0.0,0.0505,0.2935,0.363,0.4103,0.6514,0.7139,0.7139,0.7139,0.7139,0.7139,0.7139,0.7139,0.7139,0.7139,0.7139,0.7139,0.7139,0.7139,0.7139,0.7139,0.7224,0.8177,1.0647,1.1043,1.1942,1.4379,1.4649,1.4649,1.4649,1.4476,1.4362,1.4362,1.4195,1.4088,1.4088,1.4088,1.4088,1.4088,1.4088,1.4088,1.4088,1.4088,1.4088,1.4088,1.4088,1.4088,-0.8727,0.0,0.0,0.0,0.0,-1.2432,0.0,0.0,0.0,0.0,0.0,0.0,0.0,0.0,0.0,0.0,0.0,0.0,0.0,0.0,0.0,0.0,0.0,0.0,0.0,0.0,0.0,0.0,0.0,0.0,-1.2305,-1.2305,-1.2318,-1.2271,-1.1016,-0.9027,-0.6314,-0.6331,-0.6338,-0.6338,-0.6338,-0.6338,-0.6338,-0.6338,-0.5157,-0.3124,-0.3124,-0.1955,0.0,0.0,0.0,0.0,0.0,0.0,0.0,0.0,0.0,0.0,0.0,0.0,0.0,0.0,0.0,0.0,0.0,0.0243,0.1008,0.3017,0.389,0.4641,0.6602,0.7139,0.7139,0.7139,0.7139,0.7139,0.7139,0.7139,0.7139,0.7139,0.7139,0.7139,0.7139,0.7139,0.7156,0.721,0.766,0.8828,1.0865,1.1642,1.2751,1.4777,1.4963,1.4963,1.4963,1.4783,1.4629,1.4529,1.3978,1.3572,1.3476,1.347,1.347,1.347,1.3913,1.4088,1.4088,1.4088,1.4088,1.4088,1.4088,1.4135,0.0,0.0,0.0,0.0,0.0,0.0,0.0,0.0,0.0,0.0,0.0,0.0,0.0,0.0,0.0,0.0,0.0,0.0,0.0,0.0,0.0,0.0,0.0,0.0,0.0,0.0,0.0,0.0,0.0,-1.2305,-1.2305,-1.2305,-1.2264,-1.2276,-0.8529,-0.6453,-0.627,-0.6314,-0.6338,-0.6338,-0.6338,-0.6338,-0.6261,-0.6261,-0.5079,-0.3124,-0.3046,-0.1878,0.0,0.0,0.0,0.0,0.0,0.0,0.0,0.0,0.0,0.0,0.0,0.0,0.0,0.0,0.0,0.0,0.0,0.081,0.2011,0.3268,0.4495,0.5625,0.6782,0.7139,0.7139,0.7139,0.7139,0.7139,0.7139,0.7139,0.7139,0.7139,0.7139,0.7139,0.7139,0.7139,0.7193,0.735,0.845,0.9781,1.1171,1.2403,1.361,1.4894,1.499,1.499,1.4983,1.4977,1.485,1.4475,1.3448,1.2697,1.2357,1.2345,1.2339,1.2339,1.347,1.4088,1.4088,1.4088,1.4088,1.4088,1.4095,1.4262,-0.6829,0.0,0.0,0.0,0.0,0.0,0.0,0.0,0.0,0.0,0.0,0.0,0.0,0.0,0.0,0.0,0.0,0.0,0.0,0.0,0.0,0.0,0.0,0.0,0.0,0.0,0.0,0.0,-1.2271,-1.2305,-1.2305,-1.2305,-1.2264,-1.2276,-1.122,-0.9251,-0.6346,-0.6314,-0.6338,-0.6338,-0.6338,-0.6338,-0.6261,-0.5473,-0.4375,-0.3046,-0.2347,-0.1254,0.0,0.0,0.0,0.0,0.0,0.0,0.0,0.0,0.0,0.0,0.0,0.0,0.0,0.0,0.0,0.0,0.0,0.0804,0.2066,0.3258,0.4495,0.5625,0.6782,0.7139,0.7139,0.7139,0.7139,0.7139,0.7139,0.7139,0.7139,0.7139,0.7139,0.7139,0.7139,0.7139,0.7193,0.735,0.7738,0.8881,1.1303,1.1947,1.3104,1.5304,1.5591,1.5204,1.4245,1.3963,1.3823,1.375,1.3194,1.3332,1.4261,1.406,1.3857,1.3857,1.4018,1.4088,1.4088,1.4088,1.4088,1.4088,1.4302,1.4669,0.0,0.0,0.0,0.0,0.0,0.0,-0.9594,-1.0839,0.0,0.0,0.0,0.0,0.0,0.0,0.0,0.0,0.0,0.0,0.0,0.0,0.0,0.0,0.0,0.0,0.0,0.0,0.0,-1.2235,-1.2324,-1.2271,-1.2271,-1.2271,-1.2305,-1.2322,-1.0666,-0.8707,-0.6328,-0.6283,-0.6338,-0.6338,-0.6338,-0.6338,-0.6261,-0.5157,-0.4139,-0.3046,-0.2035,-0.102,0.0,0.0,0.0,0.0,0.0,0.0,0.0,0.0,0.0,0.0,0.0,0.0,0.0,0.0,0.0,0.0079,0.055,0.151,0.2754,0.3912,0.5102,0.6248,0.6962,0.7139,0.7139,0.7139,0.7139,0.7139,0.7139,0.7139,0.7139,0.7139,0.7139,0.7139,0.7139,0.7193,0.7288,0.7444,0.8056,0.9155,1.0765,1.1477,1.2431,1.398,1.4178,1.3884,1.3102,1.2879,1.2753,1.2642,1.204,1.2205,1.3399,1.3249,1.3432,1.3977,1.4268,1.4456,1.4449,1.4208,1.4148,1.4282,1.4696,1.507,0.0,0.0,0.0,0.0,0.0,0.0,-0.9817,-1.0492,-1.1334,0.0,0.0,0.0,0.0,0.0,0.0,0.0,0.0,0.0,0.0,0.0,0.0,0.0,0.0,0.0,0.0,-1.0622,-1.1014,-1.2065,-1.2114,-1.2128,-1.2128,-1.2128,-1.2019,-1.1812,-0.8165,-0.619,-0.6236,-0.6197,-0.621,-0.621,-0.621,-0.6217,-0.6234,-0.506,-0.3973,-0.3046,-0.1879,-0.0863,0.0,0.0,0.0,0.0,0.0,0.0,0.0,0.0,0.0,0.0,0.0,0.0,0.0,0.0,0.0,0.0236,0.1256,0.2527,0.385,0.502,0.6168,0.7139,0.7139,0.7139,0.7139,0.7139,0.7139,0.7139,0.7139,0.7139,0.7139,0.7139,0.7139,0.7139,0.7139,0.7255,0.7404,0.7573,0.874,0.9665,0.9972,1.0974,1.175,1.1848,1.1945,1.1853,1.1653,1.1658,1.1564,1.1362,1.041,1.0333,1.1364,1.1513,1.2054,1.3162,1.4424,1.4963,1.4963,1.4436,1.4335,1.4629,1.515,1.5418,0.0,0.0,0.0,0.0,0.0,0.0,-0.6827,-0.7433,-0.819,0.0,0.0,0.0,0.0,0.0,0.0,0.0,0.0,0.0,0.0,0.0,0.0,0.0,0.0,0.0,0.0,-1.0607,-1.0672,-1.0923,-1.0911,-1.096,-1.096,-1.096,-1.0317,-0.889,-0.6702,-0.5664,-0.5847,-0.585,-0.5818,-0.5891,-0.5891,-0.5956,-0.5999,-0.4098,-0.3224,-0.2968,-0.1097,-0.0157,0.0,0.0,0.0,0.0,0.0,0.0,0.0,0.0,0.0,0.0,0.0,0.0,0.0,0.0,0.0,0.0235,0.1253,0.2509,0.4063,0.6121,0.6919,0.7139,0.7139,0.7139,0.7139,0.7139,0.7139,0.7139,0.7139,0.7139,0.7139,0.7139,0.7139,0.7139,0.7139,0.7166,0.7278,0.7556,0.7809,0.8493,0.9857,1.0194,1.0779,1.175,1.1945,1.1458,1.0485,1.0386,1.0373,1.0334,1.004,1.0511,1.1722,1.2581,1.3136,1.3321,1.443,1.4963,1.4963,1.485,1.4943,1.5231,1.5344,1.5524,0.0,0.0,0.0,-0.5484,0.0,0.0,0.0,-0.7187,-0.7811,0.0,0.0,0.0,0.0,0.0,0.0,0.0,0.0,0.0,0.0,0.0,0.0,0.0,0.0,0.0,0.0,-1.0578,-1.0626,-1.0626,-1.0614,-1.062,-1.062,-1.062,-0.9796,-0.8023,-0.6941,-0.6175,-0.5731,-0.5752,-0.58,-0.58,-0.58,-0.584,-0.5842,-0.4291,-0.3375,-0.2918,-0.1308,-0.0388,0.0,0.0,0.0,0.0,0.0,0.0,0.0,0.0,0.0,0.0,0.0,0.0,0.0,0.0,0.0,0.0314,0.1876,0.3622,0.5423,0.6753,0.7139,0.7139,0.7139,0.7139,0.7139,0.7139,0.7139,0.7139,0.7139,0.7139,0.7139,0.7139,0.7139,0.7139,0.7139,0.7204,0.7333,0.7563,0.7658,0.7976,0.889,0.9019,0.9213,0.9899,0.9998,0.9702,0.9019,0.9019,0.9019,0.9019,0.9019,0.9899,1.1848,1.2411,1.3305,1.4546,1.5086,1.5398,1.5398,1.5398,1.5398,1.5398,1.5545,1.5691,0.0,0.0,0.0,0.0,0.0,-0.5024,0.0,0.0,0.0,-0.8973,0.0,0.0,0.0,0.0,0.0,0.0,0.0,0.0,0.0,0.0,0.0,0.0,0.0,0.0,0.0,-1.0361,-1.0365,-1.0555,-1.0593,-1.058,-1.0618,-1.0288,-0.9442,-0.8027,-0.7371,-0.6591,-0.5617,-0.5731,-0.5718,-0.5718,-0.5718,-0.5732,-0.5688,-0.4464,-0.3507,-0.2847,-0.1582,-0.0688,0.0,0.0,0.0,0.0,0.0,0.0,0.0,0.0,0.0,0.0,0.0,0.0,0.0,0.0,0.0157,0.0707,0.2608,0.4665,0.6527,0.6946,0.7139,0.7139,0.7139,0.7139,0.7139,0.7139,0.7139,0.7139,0.7139,0.7139,0.7139,0.7139,0.7139,0.7139,0.7139,0.7244,0.738,0.7533,0.7678,0.7824,0.7977,0.8021,0.8038,0.8038,0.8038,0.8038,0.8038,0.8038,0.8038,0.8038,0.8038,0.892,1.1068,1.1653,1.3108,1.573,1.5832,1.5832,1.5832,1.5832,1.5712,1.5484,1.5718,1.5832,0.0,0.0,0.0,0.0,-0.4377,0.0,0.0,0.0,-0.5012,-0.5205,0.0,0.0,0.0,0.0,0.0,0.0,0.0,0.0,0.0,0.0,0.0,0.0,0.0,0.0,0.0,0.0,-0.9455,-1.0514,-1.0625,-1.0622,-1.0598,-0.9145,-0.8238,-0.8021,-0.6441,-0.554,-0.5452,-0.547,-0.5476,-0.5476,-0.5476,-0.5484,-0.5544,-0.3713,-0.2917,-0.2775,-0.0973,-0.0076,0.0,0.0,0.0,0.0,0.0,0.0,0.0,0.0,0.0,0.0,0.0,0.0,0.0,0.0,0.0628,0.1658,0.3123,0.4345,0.551,0.6796,0.7139,0.7139,0.7139,0.7139,0.7139,0.7139,0.7139,0.7139,0.7139,0.7139,0.7139,0.7139,0.7139,0.7139,0.7139,0.7153,0.7217,0.7373,0.7526,0.7675,0.7818,0.7957,0.8038,0.8038,0.8038,0.8038,0.8038,0.8038,0.8038,0.8038,0.8038,0.8137,0.8432,1.0681,1.3108,1.573,1.5832,1.5832,1.5832,1.5832,1.5812,1.5785,1.5812,1.5832,0.0,0.0,0.0,0.0,0.0,0.0,0.0,0.0,-0.4248,0.0,0.0,0.0,0.0,0.0,0.0,0.0,0.0,0.0,0.0,0.0,0.0,0.0,0.0,0.0,0.0,0.0,0.0,0.0,-0.868,-0.8941,-0.8559,-0.7906,-0.7399,-0.7242,-0.6506,-0.5924,-0.5428,-0.5428,-0.5428,-0.5428,-0.5428,-0.5463,-0.5457,-0.4633,-0.3735,-0.2772,-0.1898,-0.0969,0.0,0.0,0.0,0.0,0.0,0.0,0.0,0.0,0.0,0.0,0.0,0.0,0.0,0.0,0.0706,0.1818,0.3225,0.4264,0.539,0.6699,0.7139,0.7139,0.7139,0.7139,0.7139,0.7139,0.7139,0.7139,0.7139,0.7139,0.7139,0.7139,0.7139,0.7139,0.7139,0.7139,0.7193,0.735,0.7502,0.7651,0.7794,0.7943,0.8038,0.8038,0.8038,0.8038,0.8038,0.8038,0.8038,0.8038,0.8726,0.9509,1.019,1.2037,1.3878,1.573,1.5045,1.4657,1.4657,1.3884,1.3499,1.3596,1.437,1.4274,-0.5724,0.0,0.0,0.0,0.0,0.0,0.0,0.0,0.0,0.0,0.0,0.0,0.0,0.0,0.0,-0.3667,0.0,0.0,0.0,0.0,0.0,0.0,0.0,0.0,0.0,0.0,0.0,-0.7072,-0.7438,-0.7721,-0.7723,-0.727,-0.6894,-0.6719,-0.6461,-0.6009,-0.5428,-0.5428,-0.5428,-0.5428,-0.5428,-0.5428,-0.5362,-0.516,-0.4196,-0.2694,-0.2414,-0.1459,0.0,0.0,0.0,0.0,0.0,0.0,0.0,0.0,0.0,0.0,0.0,0.0,0.0,0.0,0.0549,0.1502,0.3142,0.4099,0.5058,0.6611,0.7139,0.7139,0.7139,0.7139,0.7139,0.7139,0.7139,0.7139,0.7139,0.7139,0.7139,0.7139,0.7139,0.7139,0.7139,0.7139,0.7177,0.7292,0.7441,0.759,0.7736,0.7885,0.7994,0.8035,0.8038,0.8038,0.8038,0.8038,0.8038,0.8038,0.892,0.9998,1.1361,1.2328,1.3392,1.4663,1.3782,1.3392,1.3397,1.2334,1.1755,1.1365,1.2716,1.2813,0.0,0.0,0.0,-0.387,0.0,0.0,0.0,0.0,-0.3327,0.0,0.0,0.0,0.0,0.0,-0.3196,-0.2812,-0.276,0.0,0.0,0.0,0.0,0.0,0.0,0.0,0.0,0.0,0.0,-0.8615,-0.7731,-0.7756,-0.918,-0.7632,-0.6715,-0.6719,-0.5881,-0.5428,-0.5428,-0.5428,-0.5428,-0.5428,-0.5428,-0.5428,-0.5362,-0.4486,-0.3549,-0.2618,-0.1727,-0.0853,0.0,0.0,0.0,0.0,0.0,0.0,0.0,0.0,0.0,0.0,0.0,0.0,0.0,0.0,0.0,0.0475,0.2893,0.3604,0.4143,0.6436,0.7139,0.7139,0.7139,0.7139,0.7139,0.7139,0.7139,0.7139,0.7139,0.7139,0.7139,0.7139,0.7139,0.7139,0.7139,0.7139,0.7143,0.7146,0.7278,0.7434,0.7587,0.7729,0.7875,0.8024,0.8038,0.8038,0.8038,0.8038,0.8038,0.8038,0.8038,0.8627,0.9998,1.0096,1.0681,1.2042,1.1945,1.1945,1.1945,1.1945,1.1268,1.0096,1.1365,1.1945,0.0,0.0,-0.7743,-0.5238,0.0,0.0,0.0,0.0,0.0,0.0,0.0,0.0,0.0,0.0,-0.251,-0.2679,-0.2447,-0.2347,0.0,0.0,0.0,0.0,0.0,0.0,0.0,0.0,0.0,-0.7087,-0.695,-0.6784,-0.6728,-0.6145,-0.5815,-0.5815,-0.5557,-0.5428,-0.5428,-0.5428,-0.5428,-0.5428,-0.5428,-0.5428,-0.5362,-0.509,-0.4082,-0.2681,-0.2345,-0.1348,0.0,0.0,0.0,0.0,0.0,0.0,0.0,0.0,0.0,0.0,0.0,0.0,0.0,0.0,0.0,0.0475,0.2893,0.3036,0.2906,0.5292,0.5422,0.4972,0.5783,0.5963,0.6142,0.6959,0.7139,0.7139,0.7139,0.7139,0.7139,0.7139,0.7139,0.7139,0.7139,0.7139,0.7139,0.7139,0.7272,0.7424,0.758,0.7723,0.7868,0.8024,0.8038,0.8038,0.8038,0.8038,0.8038,0.8038,0.8038,0.8627,0.9899,0.9998,1.0583,1.1853,1.1072,1.0681,1.0681,0.9801,0.9118,0.8726,0.9114,0.9801,-0.8433,-0.8758,0.0,-0.6564,-0.6435,0.0,-0.391,0.0,0.0,0.0,0.0,0.0,0.0,0.0,-0.229,-0.3211,-0.2468,-0.1842,0.0,-0.1942,0.0,0.0,0.0,0.0,0.0,0.0,-0.6036,-0.6181,-0.6141,-0.6012,0.0,0.0,-0.5428,-0.5428,-0.5428,-0.5428,-0.5428,-0.5428,-0.5428,-0.5428,-0.5428,-0.5428,-0.5428,-0.5428,-0.4417,-0.2746,-0.3001,-0.1967,0.0,-0.0371,-0.0305,0.0,0.0,0.0,0.0,0.0,0.0,0.0,0.0,0.0,0.0,0.0,0.0,0.0396,0.2398,0.2454,0.2237,0.424,0.4186,0.3835,0.5095,0.544,0.5692,0.6868,0.7139,0.7139,0.7139,0.7139,0.7139,0.7139,0.7139,0.7139,0.7139,0.7139,0.7139,0.7139,0.7224,0.7343,0.7499,0.7645,0.7794,0.7943,0.8007,0.8038,0.8038,0.8038,0.8038,0.8038,0.8038,0.8432,0.9217,0.9316,0.9706,1.0485,0.9706,0.9316,0.9316,0.8432,0.8038,0.8038,0.8038,0.892]},{"header":{"parameterUnit":"m.s-1","parameterCategory":1,"la1":30.6,"la2":29.2853,"lo1":-89.7004,"lo2":-87.6739,"dy":0.0162,"dx":0.0183,"nx":112,"ny":82,"refTime":"2023-05-30T12:00:00:Z","depth":0,"parameterNumber":3,"parameterNumberName":"V-component_of_WINDS"},"data":[0.0,0.0,0.0,0.0,0.0,0.0,0.0,0.0,0.0,0.0,0.0,0.0,0.0,0.0,0.0,0.0,0.0,0.0,0.0,0.0,0.0,0.0,0.0,0.0,0.0,0.0,0.0,0.0,0.0,0.0,0.0,0.0,0.0,0.0,0.0,0.0,0.0,0.0,0.0,0.0,0.0,0.0,0.0,0.0,0.0,0.0,0.0,0.0,0.0,0.0,0.0,0.0,0.0,0.0,0.0,0.0,0.0,0.0,0.0,0.0,0.0,0.0,0.0,0.0,0.0,0.0,0.0,0.0,0.0,0.0,0.0,0.0,0.0,0.0,0.0,0.0,0.0,0.0,0.0,0.0,0.0,0.0,0.0,0.0,0.0,0.0,0.0,0.0,0.0,0.0,0.0,-0.5229,-0.5214,-0.4697,-0.2878,-0.4378,-0.3499,0.1019,0.0,0.0,0.0,0.0,0.0,0.0,0.0,0.0,0.0,0.0,0.0,0.0,0.0,0.0,0.0,0.0,0.0,0.0,0.0,0.0,0.0,0.0,0.0,0.0,0.0,0.0,0.0,0.0,0.0,0.0,0.0,0.0,0.0,0.0,0.0,0.0,0.0,0.0,0.0,0.0,0.0,0.0,0.0,0.0,0.0,0.0,0.0,0.0,0.0,0.0,0.0,0.0,0.0,0.0,0.0,0.0,0.0,0.0,0.0,0.0,0.0,0.0,0.0,0.0,0.0,0.0,0.0,0.0,0.0,0.0,0.0,0.0,0.0,0.0,0.0,0.0,0.0,0.0,0.0,0.0,0.0,0.0,0.0,0.0,0.0,0.0,0.0,0.0,0.0,0.0,0.0,0.0,0.0,0.0,0.0,0.0,0.0,0.0,0.0,0.0,0.0,0.0,0.0,0.0,-0.6758,-0.6423,-0.5803,-0.4697,-0.2878,-0.4378,-0.3499,0.1019,0.0,0.0,0.0,0.0,0.0,0.0,0.0,0.0,0.0,0.0,0.0,0.0,0.0,0.0,0.0,0.0,0.0,0.0,0.0,0.0,0.0,0.0,0.0,0.0,0.0,0.0,0.0,0.0,0.0,0.0,0.0,0.0,0.0,0.0,0.0,0.0,0.0,0.0,0.0,0.0,0.0,0.0,0.0,0.0,0.0,0.0,0.0,0.0,0.0,0.0,0.0,0.0,0.0,0.0,0.0,0.0,0.0,0.0,0.0,0.0,0.0,0.0,0.0,0.0,0.0,0.0,0.0,0.0,0.0,0.0,0.0,0.0,0.0,0.0,0.0,0.0,0.0,0.0,0.0,0.0,0.0,0.0,0.0,0.0,0.0,0.0,0.0,0.0,0.0,0.0,0.0,0.0,0.0,0.0,0.0,0.0,0.0,0.0,0.0,0.0,0.0,0.0,0.0,-0.5937,-0.5964,-0.6608,-0.5896,-0.5049,-0.4233,-0.3094,-0.1373,0.1121,0.2164,0.0,0.0,0.0,0.0,0.0,0.0,0.0,0.0,0.0,0.0,0.0,0.0,0.0,0.0,0.0,0.0,0.0,0.0,0.0,0.0,0.0,0.0,0.0,0.0,0.0,0.0,0.0,0.0,0.0,0.0,0.0,0.0,0.0,0.0,0.0,0.0,0.0,0.0,0.0,0.0,0.0,0.0,0.0,0.0,0.0,0.0,0.0,0.0,0.0,0.0,0.0,0.0,0.0,0.0,0.0,0.0,0.0,0.0,0.0,0.0,0.0,0.0,0.0,0.0,0.0,0.0,0.0,0.0,0.0,0.0,0.0,0.0,0.0,0.0,0.0,0.0,0.0,0.0,0.0,0.0,0.0,0.0,0.0,0.0,0.0,0.0,0.0,0.0,0.0,0.0,0.0,0.0,0.0,0.0,0.0,0.0,0.0,0.0,0.0,0.0,0.0,0.0,-0.5487,-0.5587,-0.6323,-0.5771,-0.5252,-0.4779,-0.2624,-0.0501,0.129,0.2226,0.0,0.0,0.0,0.0,0.0,0.0,0.0,0.0,0.0,0.0,0.0,0.0,0.0,0.0,0.0,0.0,0.0,0.0,0.0,0.0,0.0,0.0,0.0,0.0,0.0,0.0,0.0,0.0,0.0,0.0,0.0,0.0,0.0,0.0,0.0,0.0,0.0,0.0,0.0,0.0,0.0,0.0,0.0,0.0,0.0,0.0,0.0,0.0,0.0,0.0,0.0,0.0,0.0,0.0,0.0,0.0,0.0,0.0,0.0,0.0,0.0,0.0,0.0,0.0,0.0,0.0,0.0,0.0,0.0,0.0,0.0,0.0,0.0,0.0,0.0,0.0,0.0,0.0,0.0,0.0,0.0,0.0,0.0,0.0,0.0,0.0,0.0,0.0,0.0,0.0,0.0,0.0,0.0,0.0,0.0,0.0,0.0,0.0,0.0,0.0,0.0,0.0,-0.5901,-0.6327,-0.555,-0.5439,-0.47,-0.3013,-0.4175,-0.3097,0.1498,0.2362,0.0,0.0,0.0,0.0,0.0,0.0,0.0,0.0,0.0,0.0,0.0,0.0,0.0,0.0,0.0,0.0,0.0,0.0,0.0,0.0,0.0,0.0,0.0,0.0,0.0,0.0,0.0,0.0,0.0,0.0,0.0,0.0,0.0,0.0,0.0,0.0,0.0,0.0,0.0,0.0,0.0,0.0,0.0,0.0,0.0,0.0,0.0,0.0,0.0,0.0,0.0,0.0,0.0,0.0,0.0,0.0,0.0,0.0,0.0,0.0,0.0,0.0,0.0,0.0,0.0,0.0,0.0,0.0,0.0,0.0,0.0,0.0,0.0,0.0,0.0,0.0,0.0,0.0,0.0,0.0,0.0,0.0,0.0,0.0,0.0,0.0,0.0,0.0,0.0,0.0,0.0,0.0,0.0,0.0,0.0,0.0,0.0,0.0,0.0,0.0,0.0,0.0,-0.5086,-0.5477,0.0,-0.5389,-0.5125,-0.4445,-0.0871,0.145,0.1772,0.0,0.0,0.0,0.0,0.0,0.0,0.0,0.0,0.0,0.0,0.0,0.0,0.0,0.0,0.0,0.0,0.0,0.0,0.0,0.0,0.0,0.0,0.0,0.0,0.0,0.0,0.0,0.0,0.0,0.0,0.0,0.0,0.0,0.0,0.0,0.0,0.0,0.0,0.0,0.0,0.0,0.0,0.0,0.0,0.0,0.0,0.0,0.0,0.0,0.0,0.0,0.0,0.0,0.0,0.0,0.0,0.0,0.0,0.0,0.0,0.0,0.0,0.0,0.0,0.0,0.0,0.0,0.0,0.0,0.0,0.0,0.0,0.0,0.0,0.0,0.0,0.0,0.0,0.0,0.0,0.0,0.0,0.0,0.0,0.0,0.0,0.0,0.0,0.0,0.0,0.0,0.0,0.0,0.0,0.0,0.0,0.0,0.0,0.0,0.0,0.0,0.0,-0.4247,-0.471,-0.4897,0.0,-0.5055,-0.4931,-0.3766,0.1877,0.4589,0.2674,0.0,0.0,0.0,0.0,0.0,0.0,0.0,0.0,0.0,0.0,0.0,0.0,0.0,0.0,0.0,0.0,0.0,0.0,0.0,0.0,0.0,0.0,0.0,0.0,0.0,0.0,0.0,0.0,0.0,0.0,0.0,0.0,0.0,0.0,0.0,0.0,0.0,0.0,0.0,0.0,0.0,0.0,0.0,0.0,0.0,0.0,0.0,0.0,0.0,0.0,0.0,0.0,0.0,0.0,0.0,0.0,0.0,0.0,0.0,0.0,0.0,0.0,0.0,0.0,0.0,0.0,0.0,0.0,0.0,0.0,0.0,0.0,0.0,0.0,0.0,0.0,0.0,0.0,0.0,0.0,0.0,0.0,0.0,0.0,0.0,0.0,0.0,0.0,0.0,0.0,0.0,0.0,0.0,0.0,0.0,0.0,0.0,0.0,0.0,0.0,0.0,0.0,-0.4383,-0.5023,-0.4709,-0.2947,-0.4241,-0.3832,-0.0267,0.3357,0.5078,0.0,0.0,0.0,0.0,0.0,0.0,0.0,0.0,0.0,0.0,0.0,0.0,0.0,0.0,0.0,0.0,0.0,0.0,0.0,0.0,0.0,0.0,0.0,0.0,0.0,0.0,0.0,0.0,0.0,0.0,0.0,0.0,0.0,0.0,0.0,0.0,0.0,0.0,0.0,0.0,0.0,0.0,0.0,0.0,0.0,0.0,0.0,0.0,0.0,0.0,0.0,0.0,0.0,0.0,0.0,0.0,0.0,0.0,0.0,0.0,0.0,0.0,0.0,0.0,0.0,0.0,0.0,0.0,0.0,0.0,0.0,0.0,0.0,0.0,0.0,0.0,0.0,0.0,0.0,0.0,0.0,0.0,0.0,0.0,0.0,0.0,0.0,0.0,0.0,0.0,0.0,0.0,0.0,0.0,0.0,0.0,0.0,0.0,0.0,0.0,0.0,0.0,0.0,-0.2486,-0.4256,-0.5202,-0.4651,-0.0536,0.2618,0.3699,0.4779,0.5497,0.5762,0.0,0.0,0.0,0.0,0.0,0.0,0.0,0.0,0.0,0.0,0.0,0.0,0.0,0.0,0.0,0.0,0.0,0.0,0.0,0.0,0.0,0.0,0.0,0.0,0.0,0.0,0.0,0.0,0.0,0.0,0.0,0.0,0.0,0.0,0.0,0.0,0.0,0.0,0.0,0.0,0.0,0.0,0.0,0.0,0.0,0.0,0.0,0.0,0.0,0.0,0.0,0.0,0.0,0.0,0.0,0.0,0.0,0.0,0.0,0.0,0.0,0.0,0.0,0.0,0.0,0.0,0.0,0.0,0.0,0.0,0.0,0.0,0.0,0.0,0.0,0.0,0.0,0.0,0.0,0.0,0.0,0.0,0.0,0.0,0.0,0.0,0.0,0.0,0.0,0.0,0.0,0.0,0.0,0.0,0.0,0.0,0.0,0.0,0.0,0.0,0.0,0.0,-0.0,-0.0634,-0.134,-0.2076,0.1741,0.4648,0.5329,0.5386,0.5792,0.6741,0.0,0.0,0.0,0.0,0.0,0.0,0.0,0.0,0.0,0.0,0.0,0.0,0.0,0.0,0.0,0.0,0.0,0.0,0.0,0.0,0.0,0.0,0.0,0.0,0.0,0.0,0.0,0.0,0.0,0.0,0.0,0.0,0.0,0.0,0.0,0.0,0.0,0.0,0.0,0.0,0.0,0.0,0.0,0.0,0.0,0.0,0.0,0.0,0.0,0.0,0.0,0.0,0.0,0.0,0.0,0.0,0.0,0.0,0.0,0.0,0.0,0.0,0.0,0.0,0.0,0.0,0.0,0.0,0.0,0.0,0.0,0.0,0.0,0.0,0.0,0.0,0.0,0.0,0.0,0.0,0.0,0.0,0.0,0.0,0.0,0.0,0.0,0.0,0.0,0.0,0.0,0.0,0.0,0.0,0.0,0.0,0.0,0.0,0.0,0.0,0.0,0.0,0.2534,0.4287,0.4788,0.3149,0.2945,0.3682,0.5572,0.5638,0.6241,0.772,0.0,0.0,0.0,0.0,0.0,0.0,0.0,0.0,0.0,0.0,0.0,0.0,0.0,0.0,0.0,0.0,0.0,0.0,0.0,0.0,0.0,0.0,0.0,0.0,0.0,0.0,0.0,0.0,0.0,0.0,0.0,0.0,0.0,0.0,0.0,0.0,0.0,0.0,0.0,0.0,0.0,0.0,0.0,0.0,0.0,0.0,0.0,0.0,0.0,0.0,0.0,0.0,0.0,0.0,0.0,0.0,0.0,0.0,0.0,0.0,1.2634,0.0,0.0,0.0,0.0,0.0,0.0,0.0,0.0,0.0,0.0,0.0,0.0,0.0,0.0,0.0,0.0,0.0,0.0,0.0,0.0,0.0,0.0,0.0,0.0,0.0,0.0,0.0,0.0,0.0,0.0,0.0,0.0,0.0,0.0,0.0,0.0,0.0,0.0,0.0,0.0,0.0,0.2802,0.4271,0.5262,0.4846,0.484,0.5686,0.7787,0.7623,0.8329,1.059,0.0,0.0,0.0,0.0,0.0,0.0,0.0,0.0,0.0,0.0,0.0,0.0,0.0,0.0,0.0,0.0,0.0,0.0,0.0,0.0,0.0,0.0,0.0,0.0,0.0,0.0,0.0,0.0,0.0,0.0,0.0,0.0,0.0,0.0,0.0,0.0,0.0,0.0,0.0,0.0,0.0,0.0,0.0,0.0,0.0,0.0,0.0,0.0,0.0,0.0,0.0,0.0,0.0,0.0,0.0,0.0,0.0,0.0,0.0,0.0,0.0,1.3525,0.0,0.0,0.0,0.0,0.0,0.0,0.0,0.0,0.0,0.0,0.0,0.0,0.0,0.0,0.0,0.0,0.0,0.0,0.0,0.0,0.0,0.0,0.0,0.0,0.0,0.0,0.0,0.0,0.0,0.0,0.0,0.0,0.0,0.0,0.0,0.0,0.0,0.0,0.0,0.0,0.395,0.5664,0.6881,0.6601,0.7353,0.8243,0.94,0.9243,1.0027,1.2109,1.2184,0.0,0.0,0.0,0.0,0.0,0.0,0.0,0.0,0.0,0.0,0.0,0.0,0.0,0.0,0.0,0.0,0.0,0.0,0.0,0.0,0.0,0.0,0.0,0.0,0.0,0.0,0.0,0.0,0.0,0.0,0.0,0.0,0.0,0.0,0.0,0.0,0.0,0.0,0.0,0.0,0.0,0.0,0.0,0.0,0.0,0.0,0.0,0.0,0.0,0.0,0.0,0.0,0.0,1.9151,1.908,1.9018,1.8948,1.9427,2.0152,1.8029,1.7243,1.7221,0.0,0.0,0.0,0.0,0.0,0.0,0.0,0.0,0.0,0.0,0.0,0.0,0.0,0.0,0.0,0.0,0.0,0.0,0.0,0.0,0.0,0.0,0.0,0.0,0.0,0.8326,0.7921,0.0,0.0,0.0,0.0,0.0,0.0,0.0,0.0,0.0,0.0,0.0,0.0,0.5974,0.7746,0.8849,0.8414,0.9599,1.0532,1.0781,1.0843,1.1637,1.3425,1.3411,1.4014,0.0,0.0,0.0,0.0,0.0,0.0,0.0,0.0,0.0,0.0,0.0,0.0,0.0,0.0,0.0,0.0,0.0,0.0,0.0,0.0,0.0,0.0,0.0,0.0,0.0,0.0,0.0,0.0,0.0,0.0,0.0,0.0,2.4195,2.3742,0.0,0.0,0.0,0.0,0.0,0.0,0.0,0.0,0.0,0.0,0.0,0.0,0.0,2.1418,2.0857,2.2442,2.303,2.2577,2.4039,2.4537,2.4216,2.4202,2.4035,2.3697,2.2859,0.0,1.9443,1.7835,0.0,0.0,0.0,0.0,0.0,0.0,0.0,0.0,0.0,0.0,0.0,0.0,0.0,0.0,0.0,0.0,0.0,0.0,0.0,0.0,0.0,0.0,1.2096,1.1333,1.1157,1.1074,0.0,0.9296,0.8132,0.8103,0.8783,0.0,0.0,0.0,0.0,0.0,0.0,0.0,0.9547,0.9927,1.0171,1.0095,1.0283,1.096,1.2445,1.2567,1.3544,1.5871,1.5997,1.625,1.6721,1.6158,0.0,0.0,0.0,0.0,0.0,0.0,0.0,0.0,0.0,0.0,0.0,0.0,0.0,0.0,0.0,0.0,0.0,0.0,0.0,0.0,0.0,0.0,0.0,0.0,0.0,0.0,0.0,0.0,0.0,2.2746,2.2899,2.2722,2.1894,2.0987,0.0,0.0,0.0,0.0,0.0,0.0,0.0,0.0,0.0,2.4664,2.4272,2.4261,2.4683,2.5347,2.5423,2.4946,2.5714,2.5872,2.5554,2.5554,2.5271,2.4816,2.4236,2.3438,2.2309,2.0,1.8215,1.6804,0.0,0.0,0.0,0.0,1.4235,1.4306,1.4697,1.4848,0.0,0.0,0.0,0.0,0.0,0.0,0.0,0.0,0.0,0.0,0.0,0.0,0.0,1.3254,1.3348,1.3661,1.36,1.3588,1.3023,0.0,1.0335,1.0436,1.1874,0.0,0.0,0.0,0.0,0.0,1.0458,1.1518,1.2442,1.2442,1.3983,1.5174,1.5531,1.5879,1.6406,1.7079,1.7523,1.7804,1.7961,1.7734,1.7268,0.0,0.0,0.0,0.0,0.0,0.0,0.0,0.0,0.0,0.0,0.0,0.0,0.0,0.0,0.0,0.0,0.0,0.0,0.0,0.0,0.0,0.0,0.0,0.0,0.0,0.0,0.0,0.0,2.2773,2.3064,2.2599,2.2843,2.2374,0.0,0.0,0.0,0.0,0.0,0.0,2.4933,2.4711,2.5353,2.7046,2.6741,2.6952,2.7823,2.7634,2.7327,2.6922,2.6882,2.6649,2.6337,2.6217,2.5936,2.5512,2.4996,2.4736,2.4409,2.1766,1.9898,1.8609,1.8199,1.7521,1.69,1.698,1.7027,1.7097,1.7496,1.7618,1.7618,1.7618,0.0,1.7363,1.7241,0.0,0.0,0.0,0.0,1.6849,1.6483,1.6318,1.6165,1.5632,1.5905,1.6322,1.6543,1.7136,1.6808,0.0,1.2906,1.2998,1.4733,0.0,0.0,0.0,0.0,1.4118,1.289,1.4313,1.5392,1.5392,1.7289,1.8437,1.8109,1.8247,1.8354,1.8377,1.8732,1.9113,1.9465,1.9422,1.9046,1.8172,0.0,0.0,0.0,0.0,0.0,0.0,0.0,0.0,0.0,0.0,0.0,0.0,0.0,0.0,0.0,0.0,0.0,0.0,0.0,0.0,0.0,0.0,0.0,0.0,0.0,0.0,0.0,0.0,0.0,2.5311,2.6238,0.0,0.0,0.0,0.0,2.4602,2.4427,2.5153,2.7125,2.7209,2.7864,2.9281,2.9303,2.9195,2.9016,2.8809,2.8686,2.8686,2.8424,2.8121,2.7794,2.7391,2.695,2.6404,2.6054,2.5615,2.5012,2.3274,2.1832,2.0692,2.0113,1.9198,1.8249,1.8614,1.8755,1.883,1.9208,1.9395,1.9395,1.9395,1.897,1.863,1.9179,1.8524,0.0,0.0,1.8931,1.8613,1.9125,1.9267,1.9255,1.9255,1.9255,1.9471,2.0176,1.9244,1.7832,0.0,1.7752,1.8909,1.846,0.0,1.9179,1.9191,1.9152,1.914,1.9064,1.914,1.9204,1.9204,1.8851,1.8823,1.9343,1.8342,1.8419,2.0315,1.9927,2.0205,2.1506,2.0868,2.0005,1.8992,1.751,0.0,0.0,0.0,0.0,0.0,0.0,0.0,0.0,0.0,0.0,0.0,0.0,0.0,0.0,0.0,0.0,0.0,0.0,0.0,0.0,0.0,0.0,0.0,0.0,0.0,0.0,0.0,0.0,2.5225,2.665,0.0,0.0,2.6165,2.6738,2.6796,2.7757,2.8683,2.9427,2.9466,2.9669,3.0129,3.003,2.9846,2.9666,2.9476,2.9381,2.9381,2.9153,2.8842,2.8474,2.8157,2.7654,2.6982,2.6522,2.6108,2.5652,2.4721,2.3622,2.2527,2.1962,2.1213,2.0509,2.0664,2.0684,2.071,2.0863,2.093,2.093,2.093,2.0748,2.065,2.0846,2.0601,2.0317,2.0797,2.0748,2.0539,2.0289,2.0562,2.0903,2.0721,2.107,2.1583,2.2212,2.2216,2.1846,2.1015,1.9722,1.8988,1.9775,1.9661,1.9484,1.9484,1.9484,1.9484,1.9484,1.9913,2.0239,2.0239,2.082,2.1137,2.093,2.0908,2.1019,2.126,2.1094,2.1205,2.1697,2.1431,2.0731,1.946,1.8914,1.7426,0.0,0.0,0.0,0.0,0.0,0.0,0.0,0.0,0.0,0.0,0.0,0.0,0.0,0.0,0.0,0.0,0.0,0.0,0.0,0.0,0.0,0.0,0.0,0.0,0.0,0.0,2.7302,2.5313,2.7362,2.8237,2.6421,2.7907,2.8929,2.8841,3.0009,3.0681,3.0643,3.0624,3.0611,3.0537,3.0385,3.0406,3.0612,3.0373,3.04,3.0684,3.0453,3.016,2.9802,2.9515,2.9053,2.8481,2.7993,2.767,2.7419,2.6713,2.6025,2.5199,2.3997,2.3274,2.2878,2.2878,2.2878,2.2878,2.2878,2.2878,2.2878,2.2878,2.273,2.2595,2.2819,2.2595,2.2309,2.2774,2.2624,2.2306,2.2193,2.2372,2.264,2.2659,2.3052,2.3498,2.3845,2.4259,2.4411,2.4025,2.213,2.0894,2.1695,2.1588,2.1442,2.15,2.1302,2.1165,2.1215,2.1459,2.16,2.16,2.2257,2.2589,2.2363,2.2331,2.2346,2.2363,2.2132,2.2132,2.2317,2.2363,2.1633,2.0132,1.9447,1.7906,1.5416,0.0,0.0,0.0,0.0,0.0,0.0,0.0,0.0,0.0,0.0,0.0,0.0,0.0,0.0,0.0,0.0,0.0,0.0,0.0,0.0,0.0,0.0,0.0,2.5909,2.7113,2.758,2.5952,2.8622,2.9975,2.8335,2.9705,3.0699,3.0699,3.0857,3.0877,3.076,3.0774,3.0755,3.0689,3.0622,3.0991,3.1844,3.152,3.1794,3.2615,3.2327,3.209,3.1803,3.1478,3.1174,3.0884,3.0487,3.0308,3.0229,2.9317,2.8951,2.8708,2.6243,2.5269,2.5253,2.5253,2.5237,2.5221,2.5221,2.5221,2.5221,2.5221,2.4753,2.4356,2.498,2.4356,2.3606,2.4847,2.4409,2.383,2.4918,2.4816,2.4552,2.5105,2.5221,2.5221,2.5259,2.5259,2.5259,2.5259,2.5259,2.5019,2.4356,2.4792,2.525,2.5346,2.4823,0.0,2.4597,2.4043,2.3653,2.3668,2.3157,2.3009,2.3625,2.2546,2.2363,2.358,2.3098,2.3009,2.3595,2.3595,2.2747,2.0973,1.8907,1.7249,1.5933,0.0,0.0,0.0,0.0,0.0,0.0,0.0,0.0,0.0,0.0,0.0,0.0,0.0,0.0,0.0,0.0,0.0,0.0,0.0,0.0,0.0,0.0,2.7989,2.7487,2.8891,2.9806,2.9357,3.0196,3.0636,3.017,3.0488,3.0697,3.0697,3.1317,3.1688,3.1634,3.2285,3.2627,3.2557,3.2541,3.263,3.2804,3.2714,3.2773,3.2963,3.2692,3.2512,3.2365,3.1871,3.1496,3.1181,3.0857,3.0563,3.0277,3.0025,2.9913,2.9732,2.7613,2.6463,2.599,2.599,2.567,2.5221,2.5221,2.5221,2.5221,2.5221,2.5073,2.498,2.5128,2.498,2.4737,2.5089,2.4957,2.48,2.5128,2.5105,2.5105,2.5652,2.5762,2.5872,2.6193,2.628,2.628,2.628,2.628,2.5999,2.508,2.5073,2.5208,2.5243,2.5116,0.0,2.5019,2.4862,2.4981,2.5485,2.4954,2.4804,2.5501,2.4745,2.4409,2.4736,2.4251,2.4017,2.4184,2.3794,2.2951,2.1522,1.8683,1.7271,0.0,0.0,0.0,0.0,0.0,0.0,0.0,0.0,0.0,0.0,0.0,0.0,0.0,0.0,0.0,0.0,0.0,0.0,0.0,0.0,0.0,0.0,2.8506,2.9327,2.9272,3.014,3.0756,3.0702,3.1092,3.1356,3.1326,3.1574,3.1748,3.1748,3.222,3.2506,3.2547,3.3053,3.3359,3.3332,3.3302,3.3457,3.3775,3.3768,3.3881,3.419,3.3993,3.3833,3.3681,3.3335,3.2941,0.0,3.2353,3.2101,3.1766,3.1572,3.153,0.0,0.0,0.0,0.0,0.0,2.7372,2.6593,2.6593,2.6267,2.5819,2.5819,2.5947,2.6057,2.6057,2.618,2.6336,2.6336,2.6182,2.606,2.6251,2.6165,2.613,2.6656,2.6805,2.6888,2.7129,2.7051,2.6987,2.7178,2.6939,0.0,2.6144,2.5947,2.5844,2.5875,2.5681,2.5562,2.5598,2.5374,2.5365,2.5798,2.5461,2.5381,2.5798,2.5461,0.0,0.0,0.0,2.4307,2.4074,2.331,0.0,0.0,0.0,1.8659,1.8651,0.0,0.0,0.0,1.4181,1.383,0.0,0.0,0.0,0.0,0.0,0.0,0.0,0.0,0.0,0.0,0.0,0.0,0.0,0.0,0.0,0.0,2.9861,3.1055,3.1055,3.1113,3.1091,3.0899,3.1627,3.2112,3.2057,3.2746,3.3179,3.3179,3.3276,3.3355,3.3418,0.0,0.0,0.0,0.0,3.3968,3.4744,3.4701,3.5015,3.5717,3.5666,3.5502,3.5245,3.5139,3.4813,3.4292,3.4223,3.4093,3.385,3.3447,3.3273,3.3099,3.1171,3.0432,3.0414,3.0343,2.962,2.8697,2.8697,0.0,0.0,2.7096,2.7289,2.7517,2.7517,2.7689,2.7897,2.7897,2.7578,2.73,2.7776,2.7549,2.73,2.7776,2.7897,2.7897,2.7897,2.7619,2.747,2.784,2.7317,2.6971,2.7303,2.7004,2.6723,2.6854,2.6409,2.6118,2.6221,2.5738,2.5389,2.5486,0.0,0.0,2.5486,2.5422,2.5373,2.5373,2.4855,2.4307,2.3709,2.2642,2.2265,2.2694,2.1489,2.0454,1.971,1.9595,1.8573,1.6715,1.5117,1.4205,0.0,0.0,0.0,0.0,0.0,0.0,0.0,0.0,0.0,0.0,0.0,0.0,0.0,0.0,0.0,2.9125,3.0778,3.1953,3.1953,3.2452,3.26,3.1971,3.258,3.3044,3.3037,3.3036,3.3034,3.3034,3.3683,3.4089,3.4107,3.4814,0.0,3.524,3.5357,3.5474,3.565,3.5683,3.5767,3.5869,0.0,0.0,3.551,3.5284,3.5085,3.4907,3.4405,3.4334,3.4464,3.391,3.368,3.3515,3.1834,3.1182,3.1111,3.0538,3.014,2.9955,2.9955,2.9788,2.9603,2.9603,2.9211,2.8741,2.8741,2.8346,0.0,2.7897,2.7823,2.7776,2.7851,2.7823,2.7776,2.7897,2.7897,2.7897,2.7897,2.784,2.7811,2.7897,2.7765,2.7678,2.7783,2.7178,2.6708,2.6724,2.664,2.6555,2.6602,2.6485,2.6619,2.7222,2.6753,2.6636,2.7238,2.6736,2.6385,2.6385,2.5944,2.5259,2.4282,2.3571,2.3054,2.2694,2.1342,2.0348,1.971,1.9092,1.8588,1.8067,1.728,1.643,0.0,0.0,0.0,0.0,0.0,0.0,0.0,0.0,0.0,0.0,0.0,2.6601,0.0,0.0,2.9375,3.0641,3.1601,3.2323,3.2707,3.3434,3.3636,3.2801,3.3345,3.3782,3.3755,3.404,3.4241,3.4241,3.4658,3.4917,3.4952,3.5397,3.5671,3.5703,3.5836,3.5903,3.5903,3.5972,3.5976,3.5948,3.5913,3.5816,3.5646,3.5472,3.5282,3.5088,3.4794,3.4675,3.4674,3.4375,3.4255,3.4176,3.3382,3.2867,3.2545,3.2195,3.1683,3.1213,3.1213,3.0796,3.0308,3.0308,3.016,3.0001,3.0001,2.9826,2.9565,2.9168,2.9034,2.8943,2.8564,2.8456,2.8456,2.8456,2.8456,2.8456,2.8456,2.8402,2.8417,2.8628,2.8322,2.8103,2.8322,2.777,2.7303,2.7303,2.7303,2.7303,2.7303,2.7303,2.7442,2.7791,2.7339,2.7141,2.7535,2.7029,2.6674,2.659,2.6229,2.554,2.443,2.4112,2.3706,2.3143,2.2457,2.1782,2.1205,2.1189,2.0746,2.0047,2.0096,1.9259,0.0,0.0,0.0,0.0,0.0,0.0,0.0,0.0,2.4609,2.6348,2.7266,2.7969,2.8672,2.9512,3.0566,3.1973,3.2461,3.2865,3.3464,3.4261,3.45,3.3757,3.4186,3.4522,3.4475,3.5232,3.5738,3.5738,3.5892,3.6003,3.606,3.6071,3.6086,3.6148,3.6261,3.6333,3.6333,3.6411,3.6463,3.6463,3.6261,3.6107,3.5982,3.5724,3.5473,3.52,3.5187,3.4999,3.4694,3.4773,3.4753,3.4694,3.4694,3.4398,3.3954,3.3902,3.3259,3.2436,3.2436,3.1784,3.0993,3.0993,3.1096,3.1229,3.1229,3.1308,3.1256,3.0613,3.043,3.0283,2.9641,2.9342,2.9214,2.9214,2.9104,2.8994,2.8994,2.8925,2.8938,2.927,2.8787,2.8451,2.8787,2.8435,2.8065,2.7926,2.7897,2.7897,2.7897,2.7897,2.7897,2.7897,2.7589,2.7426,2.7426,2.7051,2.6774,2.6655,2.6334,2.5652,2.4592,2.4552,2.4266,2.3595,2.3729,2.3482,2.2881,2.3562,2.3273,2.2148,2.2578,2.1655,2.0977,2.1562,2.3475,2.4794,2.5226,2.6122,0.0,0.0,2.8203,2.9961,3.0391,3.0488,3.0586,3.1328,3.1973,3.2168,3.3408,3.4362,3.4436,3.5048,3.5456,3.534,3.5408,3.5445,3.5435,3.6119,3.6584,3.6584,3.7276,3.7733,3.7728,3.7728,3.7742,3.7737,3.7823,3.785,3.785,3.8032,3.8131,3.8112,3.7459,3.7102,3.7008,3.6099,3.5646,3.5538,3.5489,3.5174,3.4714,3.4963,3.4926,3.4694,3.4694,3.4653,3.4551,3.4265,3.3913,3.3606,3.3606,3.3506,3.3405,3.3405,3.2975,3.2415,3.2415,3.1946,3.1366,3.1274,3.1256,3.1237,3.1146,3.0595,3.0081,3.0081,2.9531,2.8994,2.8994,2.8975,2.8998,2.904,2.8957,2.8934,2.8957,2.8929,2.8651,2.801,2.7897,2.7897,2.7897,2.7897,2.7897,2.7897,2.7869,2.784,2.784,2.747,2.7224,2.7206,2.6824,2.6158,2.5128,2.5105,2.4617,2.3638,2.4193,2.4176,2.3591,2.4274,2.444,2.4171,2.3566,2.2426,2.5251,2.5111,2.5394,0.0,2.6996,2.7488,2.8915,2.8743,2.8945,3.1191,3.166,3.1797,3.2266,3.2656,3.3046,0.0,3.4153,3.4744,3.5125,3.5426,3.5753,3.6183,3.6247,3.6247,3.6247,3.6972,3.7469,3.7469,3.7796,3.8007,3.8007,3.8007,3.8007,3.8007,3.8073,3.8098,3.8098,3.8268,3.8355,3.8397,3.8082,3.7676,3.7172,3.6682,3.6123,3.5553,3.5515,3.5369,3.5155,3.5289,3.5273,3.5174,3.5174,3.507,3.487,3.4383,3.4123,3.3993,3.3868,3.3807,3.3807,3.3807,3.3568,3.3311,3.3311,3.3054,3.2687,3.2228,3.21,3.199,3.1513,3.1146,3.0937,3.1094,3.0757,3.0441,3.0594,3.0635,3.0631,3.0631,3.0631,3.0631,3.0631,3.0494,3.0277,2.9987,2.9156,2.8533,2.8533,2.8533,2.8456,2.821,2.8183,2.8183,2.8183,2.7631,2.7378,2.7619,2.7051,2.6428,2.5806,2.5767,2.5472,2.4762,2.5061,2.5057,2.4793,2.549,2.5786,2.5734,2.5367,2.4627,2.693,2.7225,2.7213,2.8028,2.8883,2.9533,2.9574,2.963,3.0213,3.2148,3.2539,3.2715,3.3281,3.3573,3.3919,3.4518,3.4764,3.5048,3.5534,3.5579,3.5847,3.6617,3.6911,3.7161,3.7392,3.7988,3.8354,3.8354,3.8565,3.8681,3.8681,3.8681,3.8681,3.8681,3.8749,3.8755,3.8755,3.8889,3.9004,3.9053,3.8857,3.8469,3.7909,3.7297,3.6472,3.5534,3.5501,3.5493,3.5493,3.5493,3.5493,3.5493,3.5493,3.5383,3.5138,3.4636,3.4383,3.4311,3.4111,3.4055,3.4055,3.4055,3.4055,3.4012,3.3954,3.3902,3.3773,3.3117,3.2944,3.2797,3.221,3.1955,3.1874,3.1997,3.183,3.164,3.1667,3.1753,3.1793,3.1704,3.17,3.17,3.17,3.1513,3.1384,3.1384,3.0411,2.9659,2.9659,2.9659,2.9545,2.9268,2.9243,2.9192,2.9061,2.847,2.8159,2.831,2.7719,2.7183,2.6783,2.676,2.6451,2.5848,2.6045,2.6042,2.5884,2.6542,2.6856,2.6871,2.6607,2.6229,2.3457,2.5872,2.8055,2.8863,3.0974,3.2889,3.3018,3.3093,3.32,3.3339,3.3359,3.3379,3.3398,3.4033,3.4573,3.4592,3.5157,3.5582,3.5591,3.5534,3.5795,3.6603,3.745,3.8296,0.0,3.9238,3.9258,3.9258,3.9969,4.0412,4.0412,4.0412,4.0412,4.0412,4.0427,4.0427,4.0427,4.0572,4.0664,4.0723,4.0009,3.973,3.9746,3.7869,3.6495,3.559,3.5534,3.5493,3.5493,3.5493,3.5493,3.5493,3.5493,3.5493,3.5446,3.519,3.4908,3.4674,3.4674,3.4674,3.4674,3.4674,3.4674,3.4612,3.4288,3.4195,3.4123,3.3858,3.3752,3.3752,3.3733,3.3321,3.2878,3.2636,3.2359,3.2032,3.1518,3.1617,3.1734,3.1464,3.1409,3.1409,3.1409,3.1409,3.1384,3.1384,3.1347,3.1329,3.1329,3.1329,3.1311,3.1311,3.1311,3.1159,3.0766,3.0356,2.991,2.9486,2.9107,2.8706,2.8163,2.8124,2.7591,2.6479,2.7131,2.7164,2.6557,2.7215,2.7595,2.7545,2.6811,2.651,2.5668,2.8224,3.0602,3.141,3.2323,3.3006,3.3052,3.3186,3.3461,3.4064,3.3309,3.271,3.3281,3.3551,3.3668,3.3671,3.4753,3.5579,3.5553,3.5515,3.6007,3.7411,3.7815,0.0,0.0,0.0,0.0,4.0085,4.0335,4.0489,4.0489,4.0489,4.0489,4.0489,4.0489,4.0489,4.0489,4.0545,4.066,4.0782,4.0145,3.9805,3.971,3.7944,3.6885,3.6434,3.5828,3.5534,3.5493,3.5493,3.5493,3.5493,3.5493,3.5493,3.5493,3.5398,3.5304,3.519,3.4813,3.4694,3.4694,3.4694,3.4694,3.4632,3.4311,3.4357,3.4464,3.4147,3.4237,3.4353,3.4117,3.3918,3.3785,3.3666,3.3456,3.3258,3.3276,3.3179,3.3117,3.3007,3.2981,3.2981,3.2981,3.2981,3.2981,3.2981,3.2082,3.1384,3.1384,3.1384,3.1384,3.1384,3.1384,3.1334,3.1206,3.0866,3.061,3.0428,2.9772,2.9348,2.9278,2.8992,2.8714,2.8421,2.8264,2.806,2.7852,2.7705,2.7625,2.7575,2.7357,2.6982,2.8051,3.0418,3.2333,3.316,3.3639,3.3901,3.3915,3.4031,3.4305,3.4936,3.3692,3.2664,3.3257,3.3243,3.2965,3.2349,3.3587,3.4612,3.4578,3.4584,3.5315,3.7296,3.7815,3.8546,0.0,0.0,0.0,4.0489,4.0489,4.0489,4.0489,4.0489,4.0489,4.0489,4.0489,4.0489,4.0489,4.0489,4.061,4.0801,4.0491,4.0155,3.9713,3.8274,3.7375,3.6899,3.5989,3.5562,3.5493,3.5493,3.5493,3.5493,3.5493,3.5493,3.5493,3.5493,3.5493,3.5446,3.5105,3.4981,3.4981,3.4981,3.4981,3.4944,3.4615,3.4675,3.4774,3.4467,3.4529,3.4653,3.4423,3.4379,3.4357,3.4223,3.4165,3.4111,3.4068,3.4093,3.4055,3.3842,3.3876,3.3928,3.3815,3.3807,3.3807,3.3807,3.2908,3.2247,3.2247,3.2247,3.2247,3.2247,3.2247,3.2195,3.2046,3.1855,3.1657,3.1464,3.0806,3.0438,3.0526,3.0113,2.9857,2.9701,2.9134,2.8748,2.8511,2.7894,2.7625,2.7625,2.7625,2.7357,3.0257,3.221,3.3237,3.4064,3.4891,3.5528,3.5588,3.56,3.5639,3.5739,3.4321,3.3053,3.3038,3.2979,3.2425,3.0776,3.1929,3.3026,3.3026,3.3026,3.3949,0.0,0.0,0.0,0.0,0.0,0.0,4.0489,0.0,4.0489,4.0489,4.0489,4.0489,4.0489,4.0489,4.0489,4.0489,4.0504,4.061,4.0793,4.1055,4.0762,3.9922,3.8873,3.7912,3.7014,3.6027,3.5574,3.5493,3.5493,3.5493,3.5493,3.5493,3.5493,3.5493,3.5493,3.5493,3.5493,3.5493,3.5493,3.5493,3.5493,3.5493,3.5446,3.519,3.5105,3.5051,3.4812,3.4714,3.4734,3.4714,3.4714,3.4653,3.4292,3.4486,3.4548,3.3954,3.426,3.4505,3.3928,3.4018,3.4123,3.3842,3.3807,3.3807,3.3807,3.3807,3.3807,3.3807,3.3807,3.3807,3.3807,3.3807,3.3652,3.3273,3.3243,3.3045,3.2583,3.2092,3.1861,3.1861,3.1411,3.0918,3.0351,2.9761,2.918,2.8606,2.7993,2.766,2.7675,2.7675,2.7625,3.0877,3.3067,3.4891,3.5122,3.5353,3.5488,3.5522,3.5574,3.5263,3.4054,3.2404,3.0833,2.963,3.0347,3.0962,3.0549,3.2937,0.0,3.4853,3.4853,0.0,3.6546,0.0,3.8334,3.9219,4.0027,0.0,0.0,4.0489,4.0489,4.0489,4.0489,4.0489,4.0489,4.0489,4.0489,4.0489,4.0596,4.066,4.0721,4.0959,4.0935,4.0662,3.9219,3.8333,3.7877,3.6343,3.5601,3.5493,3.5493,3.5493,3.5493,3.5493,3.5493,3.5493,3.5493,3.5493,3.5493,3.5493,3.5493,3.5493,3.5493,3.5493,3.5446,3.519,3.5239,3.5335,3.507,3.5138,3.5239,3.5053,3.4999,3.4926,3.4634,3.4632,3.4591,3.4171,3.4218,3.4288,3.4123,3.4147,3.4123,3.3842,3.3807,3.3807,3.3807,3.3807,3.3807,3.3807,3.3807,3.3807,3.3807,3.3807,3.3762,3.3652,3.3652,3.3606,3.3476,3.2759,3.2316,3.2316,3.1582,3.1151,3.0975,3.0393,2.9978,2.9848,2.9225,2.8732,2.8286,2.8286,2.8042,3.2589,3.4318,3.5493,3.5493,3.5493,3.5315,3.4526,3.4391,3.395,3.2309,3.0577,2.9087,2.823,2.9331,3.0183,0.0,0.0,0.0,3.4372,3.4372,3.4754,0.0,3.6738,0.0,3.8266,3.9214,3.9936,0.0,4.0422,4.0489,4.0489,4.0489,4.0489,4.0489,4.0489,4.0489,4.0489,4.0636,4.0707,4.0762,4.0928,4.1026,4.1023,3.9354,3.8504,3.8244,0.0,3.569,3.5534,3.5534,3.5534,3.5493,3.5493,3.5493,3.5493,3.5493,3.5493,3.5493,3.5493,3.5493,3.5493,3.5493,3.5493,3.546,3.532,3.5383,3.5479,3.532,3.5383,3.5479,3.5304,3.519,3.507,3.4908,3.4793,3.4653,3.4445,3.451,3.4576,3.4576,3.451,3.4357,3.4232,3.4208,3.4208,3.4208,3.4208,3.4136,3.3986,3.3876,3.3807,3.3807,3.3807,3.3807,3.3807,3.3807,3.3807,3.3807,3.2996,3.2484,3.2484,3.1657,3.119,3.119,3.0617,3.0293,3.0293,2.9673,2.9088,2.8511,2.8511,2.8189,3.4338,3.5383,3.5493,3.5493,3.5493,3.5045,3.3295,3.2891,3.2382,3.053,2.8956,2.7846,2.7663,2.8965,2.9679,2.8429,0.0,3.2987,3.3218,3.3256,3.3709,3.495,3.581,3.6501,3.7057,3.8194,3.9242,4.0043,4.0356,4.0489,4.0489,4.0489,4.0489,4.0489,4.0489,4.0489,4.0489,4.061,4.0699,4.076,4.0908,4.1026,4.1091,3.9375,3.8531,3.8307,0.0,0.0,3.5611,3.5601,3.5574,3.5515,3.5507,3.5493,3.5493,3.5493,3.5493,3.5493,3.5493,3.5493,3.5493,3.5493,3.5493,3.5493,3.5493,3.5493,3.5493,3.5493,3.5493,3.5493,3.5493,3.5339,3.5138,3.5138,3.4981,3.4812,3.4754,3.4944,3.5088,3.5034,3.4889,3.4734,3.4713,3.4694,3.4694,3.4694,3.4694,3.4593,3.4292,3.4018,3.3842,3.3788,3.3807,3.3807,3.3807,3.3807,3.3807,3.3807,3.3027,3.255,3.2517,3.1714,3.1252,3.119,3.0699,3.0435,3.0435,2.9892,2.9316,2.8732,2.8732,2.8415,3.3669,3.4779,3.5493,3.5493,3.5493,3.5045,3.3295,3.2891,0.0,0.0,2.8104,2.7458,2.6025,2.718,2.8698,2.9794,0.0,0.0,0.0,0.0,3.5072,0.0,0.0,0.0,0.0,0.0,0.0,0.0,0.0,4.0489,4.0489,4.0489,4.0489,4.0489,4.0489,4.0489,4.0489,4.0534,4.0545,4.0549,4.0752,4.085,4.0812,3.9285,3.8531,3.8307,3.6625,0.0,3.5675,3.5621,3.559,3.5577,3.5522,3.5493,3.5493,3.5493,3.5493,3.5493,3.5493,3.5493,3.5493,3.5493,3.5493,3.5493,3.5493,3.5493,3.5493,3.5493,3.5493,3.5493,3.5493,3.5479,3.5432,3.5432,3.5403,3.5304,3.5088,3.507,3.5034,3.4813,3.4908,3.4963,3.4734,3.4694,3.4694,3.4694,3.4694,3.4674,3.4632,3.4334,3.4043,3.3815,3.3807,3.3807,3.3807,3.3807,3.3807,3.3807,3.3361,3.2903,3.2517,3.1968,3.1545,3.119,3.1112,3.1055,3.1055,3.0935,3.0576,2.9995,2.9995,2.9673,3.3473,3.4534,3.5339,3.5479,3.5493,3.4814,3.2199,0.0,0.0,2.7255,2.6544,2.6294,2.5437,2.6717,0.0,2.8967,0.0,0.0,0.0,0.0,0.0,0.0,0.0,0.0,0.0,0.0,0.0,0.0,0.0,4.0356,4.0489,4.0489,4.0489,4.0489,4.0489,4.0489,4.0489,4.0489,4.0549,4.061,4.0699,4.0574,4.0187,3.9036,3.8241,3.7766,3.6495,0.0,3.5802,3.5762,3.5682,3.56,3.5574,3.5528,3.5488,3.554,3.5558,3.555,3.559,3.5588,3.5558,3.5558,3.5534,3.5493,3.5493,3.5493,3.5493,3.5493,3.5493,3.5493,3.5493,3.5493,3.5493,3.5493,3.5493,3.546,3.5339,3.5304,3.5273,3.5138,3.5223,3.5273,3.5138,3.5122,3.5122,3.5122,3.5122,3.507,3.4926,3.4655,3.4334,3.4043,3.3993,3.3961,3.3815,3.3807,3.3807,3.3807,3.3419,3.3105,3.2872,3.2196,3.1733,3.1507,3.1329,3.119,3.119,3.119,3.0878,3.0293,3.0293,2.9995,3.2937,3.4082,3.4926,3.533,3.5446,3.4589,3.1167,3.0398,0.0,2.5995,2.5303,2.5303,2.5303,2.6428,2.7467,0.0,3.0102,3.2083,0.0,0.0,0.0,0.0,0.0,0.0,0.0,0.0,0.0,0.0,0.0,0.0,4.0489,4.0489,4.0489,4.0489,4.0489,4.0489,4.0489,4.0489,4.0545,4.0662,4.0486,4.016,3.9608,3.8599,3.7831,3.7225,3.6367,0.0,0.0,3.5907,3.5805,3.5668,3.5621,3.559,3.5546,3.5591,3.5611,3.563,3.5682,3.5671,3.5611,3.5611,3.5574,3.5493,3.5493,3.5493,3.5493,3.5493,3.5493,3.5493,3.5493,3.5493,3.5493,3.5493,3.5493,3.5493,3.5493,3.5493,3.5493,3.5493,3.5493,3.5493,3.5493,3.5493,3.5493,3.5493,3.5493,3.5432,3.5207,3.4944,3.4655,3.4357,3.4195,3.4018,3.3815,3.3807,3.3807,3.3807,3.3494,3.3302,3.3214,3.24,3.188,3.1789,3.1411,3.119,3.119,3.119,3.0975,3.0477,3.0477,3.0251,3.1343,3.294,3.4127,3.4928,3.532,3.4589,3.1167,0.0,2.9417,2.5995,2.5303,2.5303,2.5303,2.5418,2.6063,2.764,2.8159,2.941,3.2468,0.0,0.0,0.0,0.0,0.0,0.0,0.0,0.0,0.0,0.0,0.0,4.0489,4.0489,4.0489,4.0489,4.0489,4.0489,4.0489,4.0489,4.0504,4.05,3.985,3.9486,3.9383,3.796,3.7273,3.7162,3.6345,0.0,0.0,3.5938,3.5896,3.5864,3.5743,3.5689,3.5682,3.5689,3.5689,3.5696,3.5703,3.5696,3.5689,3.5689,3.5601,3.5493,3.5493,3.5493,3.5493,3.5493,3.5493,3.5493,3.5493,3.5493,3.5493,3.5493,3.5493,3.5493,3.5493,3.5493,3.5493,3.5493,3.5493,3.5493,3.5493,3.5493,3.5493,3.5493,3.5493,3.5493,3.5479,3.5223,3.4963,3.4694,3.416,3.3815,3.3788,3.3807,3.3807,3.3807,3.378,3.3578,3.3214,3.2713,3.2248,3.1825,3.1411,3.119,3.119,3.119,3.119,3.1112,3.1112,3.1095,3.0846,3.2502,3.3726,3.4393,3.3876,3.2718,3.0821,0.0,2.7582,2.5687,2.5303,2.5303,2.5303,2.5303,2.5534,2.6217,2.7217,2.8371,2.9698,0.0,0.0,0.0,0.0,0.0,0.0,0.0,0.0,0.0,0.0,0.0,4.0489,4.0489,4.0489,4.0489,4.0489,4.0489,4.0489,4.0008,3.9777,3.9773,3.8994,3.8384,3.7935,3.7381,3.6891,3.6459,3.6132,0.0,0.0,3.5973,3.5942,3.588,3.5841,3.5766,3.571,3.5797,3.5812,3.5836,3.5868,3.5841,3.5812,3.5812,3.5735,3.5611,3.5611,3.5562,3.5501,3.5546,3.5528,3.5493,3.5493,3.5493,3.5493,3.5493,3.5493,3.5493,3.5493,3.5493,3.5493,3.5493,3.5493,3.5493,3.5493,3.5493,3.5493,3.5493,3.5493,3.5446,3.5289,3.5035,3.4754,3.4423,3.4171,3.3986,3.3815,3.3807,3.3807,3.3807,3.3807,3.3734,3.3578,3.2872,3.2417,3.223,3.1562,3.119,3.119,3.119,3.119,3.119,3.119,3.119,2.9691,3.1535,3.2988,3.3868,3.2699,3.1102,0.0,0.0,2.6294,2.5178,2.5139,2.5303,2.5303,2.5303,2.5303,2.5303,2.6332,2.7313,2.7832,2.965,0.0,0.0,0.0,0.0,0.0,0.0,0.0,0.0,0.0,0.0,0.0,4.0489,4.0489,4.0489,4.0489,4.0392,4.0142,3.9565,3.9172,3.894,3.8129,3.7492,3.6993,3.6826,3.6462,3.5973,0.0,0.0,0.0,3.5996,3.5973,3.594,3.594,3.5864,3.5797,3.589,3.594,3.5942,3.5976,3.5973,3.594,3.594,3.5853,3.5766,3.5788,3.5671,3.5554,3.559,3.5558,3.5488,3.5522,3.5495,3.5493,3.5493,3.5493,3.5493,3.5493,3.5493,3.5493,3.5493,3.5493,3.5493,3.5493,3.5493,3.5493,3.5493,3.5493,3.5398,3.5122,3.487,3.4572,3.4242,3.4123,3.4012,3.3815,3.3807,3.3807,3.3807,3.3807,3.3807,3.3807,3.2965,3.2484,3.2484,3.1657,3.119,3.119,3.119,3.119,3.119,3.119,3.1309,2.74,2.9693,3.171,3.3388,3.2091,3.0198,2.9313,2.7813,2.612,2.4456,2.4755,2.5303,2.5303,2.5303,2.5303,2.5303,2.5322,2.5928,2.7659,2.7523,0.0,0.0,0.0,0.0,0.0,0.0,0.0,0.0,0.0,0.0,0.0,4.0489,4.0489,4.0489,4.0489,4.0104,3.9315,3.9296,3.8901,3.8098,3.7304,3.6949,3.6973,3.6246,3.5903,0.0,0.0,0.0,0.0,3.5996,3.5996,3.5996,3.5996,3.5996,3.5996,3.5996,3.5996,3.5996,3.5996,3.5996,3.5996,3.5996,3.595,3.591,3.5974,3.5868,3.5682,3.5631,3.5558,3.5528,3.5588,3.5558,3.5493,3.5493,3.5493,3.5493,3.5493,3.5493,3.5493,3.5493,3.5493,3.5493,3.5493,3.5493,3.5493,3.5493,3.5493,3.5398,3.5122,3.487,3.4572,3.4242,3.3961,3.3788,3.3807,3.3807,3.3807,3.3807,3.3807,3.3807,3.3807,3.2965,3.2484,3.2484,3.1657,3.119,3.119,3.119,3.119,3.119,3.119,3.1579,2.5013,2.6626,2.785,2.8564,2.7405,2.6159,2.6447,2.5216,2.4024,2.4091,2.4736,2.5303,2.5303,2.5303,2.5303,2.5303,2.5303,2.5426,0.0,0.0,0.0,0.0,0.0,0.0,0.0,0.0,0.0,0.0,0.0,0.0,0.0,3.9969,3.9931,4.0469,3.9969,3.9546,3.9296,3.8123,3.7401,3.7128,3.6406,3.6083,3.6112,3.601,0.0,0.0,0.0,0.0,0.0,3.5996,3.5996,3.5996,3.5996,3.5996,3.5996,3.5996,3.5996,3.5996,3.5996,3.5996,3.5996,3.5996,3.5995,3.5973,3.5996,3.5868,3.5696,3.5667,3.5611,3.5566,3.56,3.5558,3.5493,3.5493,3.5493,3.5493,3.5493,3.5493,3.5493,3.5493,3.5493,3.5493,3.5493,3.5493,3.5493,3.5493,3.5493,3.5398,3.5122,3.5035,3.4851,3.4572,3.4265,3.4012,3.3815,3.3807,3.3807,3.3807,3.3807,3.3807,3.3807,3.3273,3.2983,3.2983,3.2384,3.2092,3.2092,3.2092,3.2192,3.2448,3.2982,3.3436,2.2885,2.452,2.5772,2.6282,2.4982,0.0,2.4659,2.3793,2.2947,2.3494,2.4505,2.5303,2.5303,2.5303,2.5303,2.5303,2.5243,2.5351,0.0,0.0,0.0,0.0,0.0,0.0,0.0,0.0,0.0,0.0,0.0,0.0,0.0,3.9084,3.9027,3.9527,3.9065,3.8642,3.8315,3.7238,3.6554,3.6273,3.5863,3.5687,3.571,3.5874,0.0,0.0,0.0,0.0,0.0,3.5996,3.5996,3.5996,3.5996,3.5996,3.5996,3.5996,3.5996,3.5996,3.5996,3.5996,3.5996,3.5996,3.5996,3.5996,3.5996,3.5899,3.5777,3.5802,3.5736,3.5648,3.5648,3.5579,3.5528,3.552,3.5493,3.5493,3.5493,3.5493,3.5493,3.5493,3.5493,3.5493,3.5493,3.5493,3.5493,3.5493,3.5493,3.5398,3.5122,3.5105,3.4999,3.4714,3.4401,3.4123,3.3961,3.3868,3.3807,3.3807,3.3807,3.3807,3.3807,3.3419,3.3214,3.3214,3.2745,3.2484,3.2484,3.28,3.3125,3.3453,3.4254,3.4558,0.0,2.306,2.4908,2.5741,2.4251,2.2822,2.3648,2.3244,0.0,2.2793,2.4101,2.5226,2.5284,2.5303,2.5303,2.5274,2.5111,2.5577,0.0,0.0,0.0,0.0,0.0,0.0,0.0,0.0,0.0,0.0,0.0,0.0,0.0,3.793,3.7911,3.7911,3.7853,3.7469,3.6719,3.6642,3.628,3.559,3.56,3.563,3.5696,3.5836,0.0,0.0,0.0,0.0,0.0,3.5996,3.5996,3.5996,3.5996,3.5996,3.5996,3.5996,3.5996,3.5996,3.5996,3.5996,3.5996,3.5996,3.5996,3.5996,3.5996,3.595,3.5916,3.5975,3.5871,3.571,3.571,3.5646,3.5568,3.5528,3.5493,3.5493,3.5493,3.5493,3.5493,3.5493,3.5493,3.5493,3.5493,3.5493,3.5493,3.5493,3.5493,3.5417,3.5155,3.5122,3.5016,3.4774,3.4467,3.4246,3.4242,3.3961,3.3807,3.3807,3.3807,3.3807,3.3807,3.3437,3.3243,3.3243,3.2862,3.2672,3.2672,3.3521,3.404,3.4328,3.5035,3.5074,1.92,0.0,2.0973,2.1285,2.0991,2.0747,0.0,2.1504,2.1985,2.2658,2.3639,2.4562,2.5187,2.5303,2.5253,2.5099,2.5034,2.5487,0.0,0.0,0.0,0.0,0.0,0.0,0.0,0.0,0.0,0.0,0.0,0.0,0.0,3.726,3.7007,3.7007,3.6411,3.6276,3.6699,3.6103,3.5694,3.5522,3.5577,3.5611,3.5621,3.5816,0.0,0.0,0.0,0.0,3.5996,3.5996,3.5996,3.5996,3.5996,3.5996,3.5996,3.5996,3.5996,3.5996,3.5996,3.5996,3.5996,3.5996,3.5996,3.5996,3.5996,3.5996,3.5975,3.5996,3.5925,3.5836,3.5723,3.5646,3.5568,3.5528,3.5493,3.5493,3.5493,3.5493,3.5493,3.5493,3.5493,3.5493,3.5493,3.5493,3.5493,3.5493,3.5493,3.5479,3.5398,3.5417,3.5383,3.532,3.5051,3.4813,3.4593,3.4111,3.3807,3.3807,3.3807,3.3807,3.3807,3.3707,3.3652,3.3652,3.4152,3.4404,3.4404,3.5493,3.5828,3.55,3.5936,3.5864,1.8752,1.9196,1.9636,1.9774,1.9858,1.9982,2.0233,2.0866,2.1674,2.2611,2.342,2.4204,2.5009,2.5715,2.5895,2.505,2.6076,0.0,0.0,0.0,0.0,0.0,0.0,0.0,0.0,0.0,0.0,0.0,0.0,0.0,0.0,3.6138,3.6021,3.6147,3.5738,3.5718,3.6161,3.5718,3.5493,3.5507,3.554,3.5538,3.555,3.5702,3.5774,0.0,0.0,0.0,3.5996,3.5996,3.5996,3.5996,3.5996,3.5996,3.5996,3.5996,3.5996,3.5996,3.5996,3.5996,3.5996,3.5996,3.5996,3.5996,3.5996,3.6289,3.6504,3.6113,3.5974,3.5994,3.6242,3.6262,3.6309,3.6581,3.6661,3.6546,3.6142,3.6065,3.5949,3.557,3.5493,3.5493,3.5493,3.5493,3.5493,3.5493,3.5493,3.5493,3.5493,3.5493,3.5493,3.5493,3.5138,3.487,3.4714,3.4136,3.3807,3.3807,3.3807,3.3807,3.3807,3.3807,3.3972,3.4357,3.5183,3.5789,3.6156,3.6536,3.6629,3.6481,3.6452,3.6097,1.8789,1.933,1.9777,1.977,1.9774,1.9843,2.0153,2.0661,2.1386,2.2508,2.3184,2.3933,2.5114,2.6162,0.0,0.0,0.0,0.0,0.0,0.0,0.0,0.0,0.0,0.0,0.0,0.0,0.0,0.0,0.0,0.0,0.0,3.5051,3.5207,3.5432,3.5479,3.5493,3.5493,3.5493,3.5493,3.5493,3.5493,3.5493,3.5507,3.5566,3.563,0.0,0.0,0.0,3.5976,3.5976,3.5996,3.5996,3.5996,3.5996,3.5996,3.5996,3.5996,3.5996,3.5996,3.5996,3.5996,3.5996,3.5996,3.6016,3.6152,3.6719,3.7168,3.6562,3.6406,3.652,3.7063,3.7209,3.7342,3.79,3.8017,3.7796,3.7065,3.6911,3.6699,3.6007,3.5776,3.568,3.568,3.557,3.5493,3.5493,3.5493,3.5493,3.5493,3.5493,3.5493,3.5446,3.5016,3.4714,3.4632,3.416,3.3842,3.3788,3.3807,3.3862,3.3972,3.399,3.4376,3.5174,3.6046,3.6817,3.7507,3.7015,3.6934,3.719,3.658,3.6011,1.8136,1.9462,2.0457,1.98,1.9636,1.9669,1.9843,1.996,2.0479,2.2041,2.2464,2.3421,2.6318,2.5921,2.5483,0.0,0.0,0.0,0.0,0.0,0.0,0.0,0.0,0.0,0.0,0.0,0.0,0.0,0.0,0.0,0.0,3.4813,3.5122,3.5155,3.5383,3.5493,3.5493,3.5493,3.5493,3.5493,3.5493,3.5493,3.5507,3.5566,3.5601,3.5631,0.0,3.5807,3.5913,3.5913,3.5948,3.5996,3.5996,3.5996,3.5996,3.5996,3.5996,3.5996,3.5996,3.5996,3.5996,3.5996,3.5996,3.6133,3.6875,3.7187,3.7422,3.8027,3.8203,3.8202,3.8193,3.8135,3.8105,3.8169,3.8074,3.7969,3.7834,3.7796,3.7757,3.7642,3.7026,3.6526,3.6526,3.5949,3.5493,3.5493,3.5493,3.5493,3.5493,3.5493,3.5398,3.519,3.5088,3.4832,3.4315,3.4195,3.4043,3.3815,3.3807,3.4119,3.477,3.4807,3.5238,3.6083,3.689,3.7367,3.7496,3.7235,3.7142,3.719,3.6165,3.5694,1.7692,1.8799,1.9954,2.0456,2.1167,2.1986,2.2847,2.2993,2.3057,2.3507,2.3866,2.4575,0.0,0.0,0.0,0.0,0.0,0.0,0.0,0.0,0.0,0.0,0.0,0.0,0.0,0.0,0.0,0.0,0.0,0.0,0.0,0.0,3.4756,3.5088,3.5223,3.5354,3.5493,3.5493,3.5493,3.5493,3.5493,3.5493,3.5507,3.5528,3.5554,3.5563,0.0,3.5791,3.5903,3.5945,3.5973,3.5996,3.5996,3.5996,3.5996,3.5996,3.5996,3.5996,3.5996,3.5996,3.5996,3.5996,3.5996,3.6152,3.7031,3.7637,3.8184,3.9062,3.8965,3.8671,3.9016,3.9051,3.9096,3.9458,3.9457,3.9219,3.8796,3.87,3.8565,3.8084,3.768,3.7411,3.7411,3.7103,3.6699,3.6219,3.6161,3.5988,3.5565,3.5493,3.5446,3.532,3.507,3.4774,3.4489,3.4165,3.391,3.3807,3.4211,3.4605,3.4972,3.5881,3.6541,3.6927,3.7734,3.8138,3.8157,3.7506,3.719,3.7173,3.6079,3.5622,1.7128,1.8212,1.9553,2.0886,2.192,2.308,2.4983,2.5187,2.5004,2.512,2.5651,2.619,0.0,0.0,0.0,0.0,0.0,0.0,0.0,0.0,0.0,0.0,0.0,0.0,0.0,0.0,0.0,0.0,0.0,0.0,0.0,0.0,3.4449,3.4981,3.507,3.5223,3.5493,3.5493,3.5493,3.5493,3.5493,3.5493,3.5493,3.5493,3.5496,3.551,3.5611,3.5742,3.5888,3.5921,3.5954,3.5996,3.5996,3.5996,3.5996,3.5996,3.5996,3.5996,3.5996,3.5996,3.5996,3.5996,3.5996,3.6191,3.7285,3.8066,3.8828,3.9902,3.9726,3.9335,3.9906,3.9964,4.001,4.0586,4.0604,4.0315,3.97,3.9565,3.9373,3.8719,3.843,3.8296,3.8296,3.8142,3.7777,3.7103,3.7007,3.6776,3.6161,3.6022,3.5944,3.5879,3.5268,3.4776,3.4505,3.408,3.388,3.4082,3.4642,3.5082,3.5312,3.6707,3.7569,3.7771,3.8395,3.8707,3.8707,3.7791,3.736,3.7323,3.6399,3.5968,1.6203,1.8124,2.0047,2.0535,2.0114,2.0429,2.3603,2.3732,2.3805,2.6011,2.7096,2.7864,0.0,0.0,0.0,0.0,0.0,0.0,0.0,0.0,0.0,0.0,0.0,0.0,0.0,0.0,0.0,0.0,0.0,0.0,0.0,0.0,0.0,3.4714,3.4963,3.5223,3.5493,3.5493,3.5493,3.5493,3.5493,3.5493,3.5493,3.5493,3.5507,3.5501,3.5515,3.5618,3.5795,3.5743,3.5838,3.5996,3.5996,3.5996,3.5996,3.5996,3.5996,3.5996,3.5996,3.5996,3.5996,3.5996,3.5996,3.6309,3.8008,3.8555,3.8945,4.0625,4.1055,4.1035,4.1074,4.0894,4.0735,4.0785,4.0633,4.0469,4.0431,4.0412,4.0392,4.0315,3.9719,3.92,3.92,3.8546,3.7988,3.7911,3.7911,3.7892,3.7834,3.7548,3.7262,3.7005,3.6058,3.4996,3.395,3.3815,3.4119,3.4862,3.4954,3.5367,3.6174,3.7037,3.7845,3.8597,3.867,3.8707,3.8707,3.815,3.7859,3.7825,3.7323,3.7058,1.487,1.7192,1.9631,1.9861,2.0091,2.1287,2.5281,2.6469,2.6576,2.597,2.8081,2.9824,0.0,0.0,0.0,0.0,0.0,0.0,0.0,0.0,0.0,0.0,0.0,0.0,0.0,0.0,0.0,0.0,0.0,0.0,0.0,0.0,0.0,3.4379,3.4675,3.4981,3.5258,3.5417,3.5493,3.5493,3.5493,3.5493,3.5493,3.5493,3.5493,3.5493,3.5545,3.5615,3.5691,3.5836,3.5932,3.5996,3.5996,3.5996,3.5996,3.5996,3.5996,3.5996,3.5996,3.5996,3.5996,3.5996,3.5996,3.6328,3.8066,3.8594,3.8965,4.0703,4.1191,4.1191,4.1191,4.0996,4.0801,4.0801,4.0665,4.0489,4.0489,4.0489,4.0489,4.0489,4.0239,4.0046,4.0046,3.9758,3.9373,3.8873,3.8815,3.8604,3.8065,3.7723,3.7452,3.7356,3.6686,3.6003,3.5395,3.5349,3.5477,3.5789,3.5807,3.6174,3.7,3.7808,3.8395,3.8689,3.8707,3.8707,3.8707,3.815,3.7893,3.7911,3.7433,3.719,1.4967,1.711,1.9461,2.0211,2.0517,2.1731,2.5761,2.7423,2.7908,2.7071,2.9198,3.091,2.9947,0.0,0.0,0.0,0.0,0.0,0.0,0.0,0.0,0.0,0.0,0.0,0.0,0.0,0.0,0.0,0.0,0.0,0.0,0.0,0.0,0.0,3.4529,3.4832,3.5105,3.5369,3.5493,3.5493,3.5493,3.5493,3.5493,3.5493,3.5493,3.5493,3.5565,3.5596,3.5652,3.5841,3.5955,3.5996,3.5996,3.5996,3.5996,3.5996,3.5996,3.5996,3.5996,3.5996,3.5996,3.5996,3.5996,3.6328,3.8066,3.8594,3.8965,4.0703,4.1171,4.115,4.1191,4.0996,4.0793,4.077,4.0616,4.0489,4.0489,4.0489,4.0489,4.0489,4.0489,4.0489,4.0489,4.0489,4.0296,3.9758,3.9681,3.945,3.8873,3.8419,3.8,3.7546,3.7187,3.6777,3.635,3.6303,3.6413,3.6652,3.667,3.6927,3.7489,3.8267,3.8707,3.8707,3.8707,3.8707,3.8707,3.8332,3.8132,3.8132,3.7826,3.7667,1.6837,1.8101,1.9778,2.1776,2.1353,2.126,2.4396,2.5664,2.697,2.9686,3.0505,3.0893,3.1309,0.0,0.0,0.0,0.0,0.0,0.0,0.0,0.0,0.0,0.0,0.0,0.0,0.0,0.0,0.0,0.0,0.0,0.0,0.0,0.0,0.0,3.4529,3.4832,3.5088,3.5369,3.5493,3.5493,3.5493,3.5493,3.5493,3.5493,3.5493,3.5507,3.5507,3.5577,3.5703,3.5768,3.5888,3.5996,3.5996,3.5996,3.5996,3.5996,3.5996,3.5996,3.5996,3.5996,3.5996,3.5996,3.5996,3.6328,3.8066,3.8594,3.8965,4.0703,4.1103,4.1026,4.1151,4.0996,4.0768,4.0718,4.0596,4.0489,4.0489,4.0489,4.0489,4.0489,4.0489,4.0489,4.0489,4.0489,4.0489,4.0489,4.0489,4.0489,4.0489,3.9965,3.9058,3.7669,3.7526,3.7195,3.6376,3.6321,3.6652,3.7441,3.7526,3.7526,3.7526,3.8267,3.8707,3.8707,3.8707,3.8707,3.8707,3.8707,3.8707,3.8707,3.8707,3.8707,1.4104,1.6934,1.9697,1.9234,2.124,2.3522,2.4466,2.605,2.8187,3.119,3.0548,2.9663,3.0362,0.0,0.0,0.0,0.0,0.0,0.0,0.0,0.0,0.0,0.0,0.0,0.0,0.0,0.0,0.0,0.0,0.0,0.0,0.0,0.0,0.0,3.442,3.4734,3.4832,3.5273,3.5493,3.5493,3.5493,3.5493,3.5493,3.5493,3.5493,3.5501,3.5553,3.5613,3.5717,3.5868,3.5953,3.5996,3.5996,3.5996,3.5996,3.5996,3.5996,3.5996,3.5996,3.5996,3.5996,3.5996,3.5996,3.6328,3.8066,3.8594,3.8965,4.0703,4.1171,4.1105,4.0959,4.0864,4.0793,4.0779,4.0629,4.0489,4.0489,4.0489,4.0489,4.0489,4.0489,4.0489,4.0489,4.0489,4.0489,4.0489,4.0489,4.0422,4.0232,4.0062,3.9615,3.8701,3.8646,3.846,3.8021,3.7991,3.8083,3.8322,3.834,3.834,3.834,3.8579,3.8707,3.8707,3.8707,3.8707,3.8707,3.8707,3.8707,3.8707,3.8707,3.8707,1.6334,1.8461,2.0196,2.1097,2.2919,2.4743,2.5609,2.7103,0.0,0.0,3.0979,3.0267,3.0935,0.0,0.0,0.0,0.0,0.0,0.0,0.0,0.0,0.0,0.0,0.0,0.0,0.0,0.0,0.0,0.0,0.0,0.0,0.0,0.0,0.0,3.4394,3.4694,3.4694,3.5223,3.5493,3.5493,3.5493,3.5493,3.5493,3.5493,3.5496,3.554,3.5631,3.5733,3.5841,3.595,3.5996,3.5996,3.5996,3.5996,3.5996,3.5996,3.5996,3.5996,3.5996,3.5996,3.5996,3.5996,3.5996,3.6328,3.8066,3.8594,3.8965,4.0703,4.1126,4.1023,4.0914,4.0788,4.0671,4.0671,4.0584,4.0489,4.0489,4.0489,4.0489,4.0489,4.0489,4.0489,4.0489,4.0489,4.0489,4.0489,4.0489,4.0389,4.0139,4.0101,3.9901,3.9339,3.916,3.9036,3.8884,3.8762,3.8707,3.8707,3.8707,3.8707,3.8707,3.8707,3.8707,3.8707,3.8707,3.8707,3.8707,3.8707,3.8707,3.8707,3.8707,3.8707,2.1053,2.1389,2.1297,2.5392,2.5554,0.0,2.7249,2.8315,2.933,3.0946,0.0,3.1861,0.0,0.0,0.0,0.0,0.0,0.0,0.0,0.0,0.0,0.0,0.0,0.0,0.0,0.0,0.0,0.0,0.0,0.0,0.0,0.0,0.0,3.3807,3.4394,3.4694,3.4694,3.5223,3.5493,3.5493,3.5493,3.5493,3.5493,3.5493,3.5549,3.5612,3.5747,3.5884,3.6007,3.5994,3.5996,3.5996,3.5996,3.5996,3.5996,3.5996,3.5996,3.5996,3.5996,3.5996,3.5996,3.5996,3.5996,3.6309,3.7988,3.8535,3.8945,4.0605,4.0941,4.0831,4.0955,4.0752,4.0519,4.0504,4.0489,4.0489,4.0489,4.0489,4.0489,4.0489,4.0489,4.0489,4.0489,4.0489,4.0489,4.0489,4.0489,4.0406,4.0158,4.0139,4.0002,3.9645,3.9314,3.9125,3.9072,3.8844,3.8707,3.8707,3.8707,3.8707,3.8707,3.8707,3.8707,3.8707,3.8707,3.8707,3.8707,3.8707,3.8707,3.8707,3.8707,3.8707,1.7697,2.0321,2.2884,2.3865,2.5172,2.6336,2.6826,2.7504,2.851,3.0048,0.0,0.0,0.0,0.0,0.0,0.0,0.0,0.0,0.0,0.0,0.0,0.0,0.0,0.0,0.0,0.0,0.0,0.0,0.0,0.0,0.0,0.0,0.0,3.3807,3.4394,3.4694,3.4694,3.5223,3.5493,0.0,3.5493,3.5493,3.5493,3.5493,3.5572,3.5677,3.5757,3.5882,3.5995,3.5996,3.5996,3.5996,3.5996,3.5996,3.5996,3.5996,3.5996,3.5996,3.5996,3.5996,3.5996,3.5996,3.5996,3.6191,3.7266,3.8066,3.8828,3.9883,4.0552,4.095,4.0864,4.0752,4.0636,4.0534,4.0489,4.0489,4.0489,4.0489,4.0489,4.0489,4.0489,4.0489,4.0489,4.0489,4.0489,4.0489,4.0489,4.0473,4.0406,4.0406,4.0212,3.9668,3.9552,3.9301,3.8833,3.875,3.8707,3.8707,3.8707,3.8707,3.8707,3.8707,3.8707,3.8707,3.8707,3.8707,3.8707,3.8707,3.8707,3.8707,3.8707,3.8707,1.8926,2.0745,2.2163,2.4419,0.0,2.6691,2.6691,2.725,2.8015,2.883,0.0,0.0,0.0,0.0,0.0,0.0,0.0,0.0,0.0,0.0,0.0,0.0,0.0,0.0,0.0,0.0,0.0,0.0,0.0,0.0,0.0,3.3807,3.3807,3.3807,3.4394,3.4694,3.4694,3.5223,3.5493,3.5493,3.5493,3.5493,3.5493,3.5545,3.5592,3.5708,3.5793,3.5903,3.5996,3.5996,3.5996,3.5996,3.5996,3.5996,3.5996,3.5996,3.5996,3.5996,3.5996,3.5996,3.5996,3.5996,3.5996,3.6152,3.7031,3.791,3.8769,3.9584,4.0333,4.087,4.079,4.0684,4.0602,4.0519,4.0489,4.0489,4.0489,4.0489,4.0489,4.0489,4.0489,4.0489,4.0489,4.0489,4.0489,4.0489,4.0489,4.0489,4.0489,4.0489,4.0336,3.9901,3.9709,3.9408,3.8923,3.8792,3.8707,3.8707,3.8707,3.8707,3.8707,3.8707,3.8707,3.8707,3.8707,3.8707,3.8707,3.8707,3.8707,3.8707,3.8707,3.8707,2.0638,2.1302,2.1361,2.5629,2.6691,0.0,2.6691,2.7182,2.764,0.0,0.0,0.0,0.0,0.0,0.0,0.0,0.0,0.0,0.0,0.0,0.0,0.0,0.0,0.0,0.0,0.0,0.0,0.0,0.0,0.0,3.3807,3.3807,3.3807,3.3807,3.4394,3.4694,3.4694,3.5223,3.5493,3.5493,3.5493,3.5493,3.5493,3.5565,3.562,3.57,3.5838,3.5942,3.5996,3.5996,3.5996,3.5996,3.5996,3.5996,3.5996,3.5996,3.5996,3.5996,3.5996,3.5996,3.5996,3.5996,3.5996,3.6133,3.6855,3.7793,3.873,3.9309,4.0129,4.0777,4.0718,4.0596,4.0489,4.0489,4.0489,4.0489,4.0489,4.0489,4.0489,4.0489,4.0489,4.0489,4.0489,4.0489,4.0489,4.0489,4.0489,4.0489,4.0441,4.0441,4.0302,3.9963,3.9668,3.9364,3.9063,3.8815,3.8707,3.8707,3.8707,3.8707,3.8707,3.8707,3.8707,3.8707,3.8707,3.8707,3.8707,3.8707,3.8707,3.8707,3.8707,3.8707,1.7324,2.0187,2.3506,0.0,2.6691,2.6691,0.0,0.0,0.0,0.0,0.0,0.0,0.0,0.0,0.0,0.0,0.0,0.0,0.0,0.0,0.0,0.0,0.0,0.0,0.0,0.0,0.0,0.0,0.0,0.0,3.3807,3.3807,3.3807,3.3807,3.4394,3.4694,3.4694,3.5223,3.5493,3.5493,3.5493,3.5493,3.5493,3.5526,3.5581,3.57,3.5838,3.5942,3.5996,3.5996,3.5996,3.5996,3.5996,3.5996,3.5996,3.5996,3.5996,3.5996,3.5996,3.5996,3.5996,3.5996,3.5996,3.6016,3.6133,3.7305,3.8593,3.8587,3.9655,4.0777,4.0718,4.0596,4.0489,4.0489,4.0489,4.0489,4.0489,4.0489,4.0489,4.0489,4.0489,4.0489,4.0489,4.0489,4.0489,4.0489,4.0489,4.0425,4.0177,4.0158,3.9922,3.9289,3.9186,3.9036,3.8792,3.8719,3.8707,3.8707,3.8707,3.8707,3.8707,3.8707,3.8707,3.8707,3.8707,3.8707,3.8707,3.8707,3.8707,3.8707,3.8707,3.8707,1.7866,2.0927,2.3933,0.0,2.6691,2.6691,2.6691,0.0,0.0,0.0,0.0,0.0,0.0,0.0,0.0,0.0,0.0,0.0,0.0,0.0,0.0,0.0,0.0,0.0,0.0,0.0,0.0,0.0,0.0,3.3807,3.3807,3.3807,3.3807,3.3807,3.4394,3.471,3.4698,3.5229,3.5493,3.5493,3.5493,3.5493,3.5493,3.5493,3.5568,3.5702,3.5752,3.5868,3.5996,3.5996,3.5996,3.5996,3.5996,3.5996,3.5996,3.5996,3.5996,3.5996,3.5996,3.5996,3.5996,3.5996,3.5996,3.5996,3.5996,3.7226,3.8552,3.839,3.9539,4.0779,4.061,4.0545,4.0489,4.0489,4.0489,4.0489,4.0489,4.0489,4.0489,4.0489,4.0489,4.0489,4.0489,4.0489,4.0489,4.0489,4.0489,4.0389,4.0139,4.0101,3.984,3.916,3.9099,3.8999,3.8719,3.8707,3.8707,3.8707,3.8707,3.8707,3.8707,3.8707,3.8707,3.8707,3.8707,3.8707,3.8707,3.8707,3.8707,3.8707,3.8707,3.8707,1.8115,0.0,2.2371,2.5146,2.5866,2.6017,0.0,0.0,0.0,0.0,0.0,0.0,0.0,0.0,0.0,0.0,0.0,0.0,0.0,0.0,0.0,0.0,0.0,0.0,0.0,0.0,0.0,0.0,0.0,3.3807,3.3807,3.3807,3.3807,3.3807,3.4386,3.4703,3.4711,3.5231,3.5493,3.5493,3.5493,3.5493,3.5493,3.5493,3.5566,3.5703,3.5703,3.5806,3.5996,3.5996,3.5996,3.5996,3.5996,3.5996,3.5996,3.5996,3.5996,3.5996,3.5996,3.5996,3.5996,3.5996,3.5996,3.5996,3.5996,3.7226,3.8551,3.8364,3.9501,4.0751,4.0554,4.0489,4.0489,4.0489,4.0489,4.0489,4.0489,4.0489,4.0489,4.0489,4.0489,4.0489,4.0489,4.0489,4.0489,4.0489,4.0489,4.0372,4.0022,3.9982,3.9731,3.9063,3.8999,3.8923,3.8719,3.8707,3.8707,3.8707,3.8707,3.8707,3.8707,3.8707,3.8707,3.8707,3.8707,3.8707,3.8707,3.8707,3.8707,3.8707,3.8707,3.8707,1.6241,1.6948,0.0,2.2474,2.3587,0.0,0.0,0.0,0.0,0.0,0.0,0.0,0.0,0.0,0.0,0.0,0.0,0.0,0.0,0.0,0.0,0.0,0.0,0.0,0.0,0.0,0.0,0.0,0.0,3.3807,3.3807,3.3807,3.3807,3.3807,3.4375,3.4695,3.4693,3.5223,3.5493,3.5493,3.5493,3.5493,3.5493,3.5493,3.5566,3.5703,3.5703,3.5806,3.5996,3.5996,3.5996,3.5996,3.5996,3.5996,3.5996,3.5996,3.5996,3.5996,3.5996,3.5996,3.5996,3.5996,3.5996,3.5996,3.5996,3.7226,3.8551,3.8364,3.9501,4.0751,4.0554,4.0489,4.0489,4.0489,4.0489,4.0489,4.0489,4.0489,4.0489,4.0489,4.0489,4.0489,4.0489,4.0489,4.0489,4.0489,4.0489,4.0283,3.9712,3.9622,3.9402,3.8792,3.8719,3.8738,3.8707,3.8707,3.8707,3.8707,3.8707,3.8707,3.8707,3.8707,3.8707,3.8707,3.8707,3.8707,3.8707,3.8707,3.8707,3.8707,3.8707,3.8707,0.0,0.0,0.0,2.0471,2.2312,2.3606,0.0,0.0,0.0,0.0,0.0,0.0,0.0,0.0,0.0,0.0,0.0,0.0,0.0,0.0,0.0,0.0,0.0,0.0,0.0,0.0,0.0,0.0,0.0,0.0,3.3807,3.3807,3.3807,3.3807,3.4386,3.4873,3.5207,3.5398,3.5493,3.5493,3.5493,3.5493,3.5493,3.5493,3.5566,3.5703,3.5703,3.5806,3.5996,3.5996,3.5996,3.5996,3.5996,3.5996,3.5996,3.5996,3.5996,3.5996,3.5996,3.5996,3.5996,3.5996,3.5996,3.5996,3.5996,3.7226,3.8551,3.8364,3.9501,4.0751,4.0554,4.0489,4.0489,4.0489,4.0489,4.0489,4.0489,4.0489,4.0489,4.0489,4.0489,4.0489,4.0489,4.0489,4.0489,4.0489,4.0969,4.1109,4.0438,4.0858,4.0971,4.0325,4.0249,4.0249,4.0249,3.9772,3.946,3.946,3.9001,3.8707,3.8707,3.8707,3.8707,3.8707,3.8707,3.8707,3.8707,3.8707,3.8707,3.8707,3.8707,3.8707,1.5191,0.0,0.0,0.0,0.0,2.1532,0.0,0.0,0.0,0.0,0.0,0.0,0.0,0.0,0.0,0.0,0.0,0.0,0.0,0.0,0.0,0.0,0.0,0.0,0.0,0.0,0.0,0.0,0.0,0.0,3.3807,3.3807,3.3844,3.3944,3.4413,3.4906,3.5359,3.5455,3.5493,3.5493,3.5493,3.5493,3.5493,3.5493,3.5566,3.5703,3.5703,3.5806,3.5996,3.5996,3.5996,3.5996,3.5996,3.5996,3.5996,3.5996,3.5996,3.5996,3.5996,3.5996,3.5996,3.5996,3.5996,3.5996,3.5996,3.7187,3.8502,3.8338,3.9496,4.0732,4.054,4.0489,4.0489,4.0489,4.0489,4.0489,4.0489,4.0489,4.0489,4.0489,4.0489,4.0489,4.0489,4.0489,4.0585,4.0893,4.1327,4.1533,4.1269,4.1625,4.1707,4.1158,4.1111,4.1111,4.1111,4.0616,4.0194,3.9918,3.9473,3.9139,3.8862,3.8844,3.8844,3.8844,3.875,3.8707,3.8707,3.8707,3.8707,3.8707,3.8707,3.8836,0.0,0.0,0.0,0.0,0.0,0.0,0.0,0.0,0.0,0.0,0.0,0.0,0.0,0.0,0.0,0.0,0.0,0.0,0.0,0.0,0.0,0.0,0.0,0.0,0.0,0.0,0.0,0.0,0.0,3.3807,3.3807,3.3807,3.3925,3.4191,3.4529,3.4817,3.5109,3.5359,3.5493,3.5493,3.5493,3.5493,3.5507,3.5507,3.5577,3.5703,3.571,3.583,3.5996,3.5996,3.5996,3.5996,3.5996,3.5996,3.5996,3.5996,3.5996,3.5996,3.5996,3.5996,3.5996,3.5996,3.5996,3.5996,3.5996,3.712,3.8365,3.8318,3.9452,4.0667,4.053,4.0489,4.0489,4.0489,4.0489,4.0489,4.0489,4.0489,4.0489,4.0489,4.0489,4.0489,4.0489,4.0489,4.0796,4.1681,4.1532,4.154,4.2057,4.1873,4.1579,4.1199,4.1185,4.1185,4.1167,4.1148,4.0799,4.0042,4.0193,3.9965,3.9192,3.9154,3.9136,3.9136,3.8844,3.8707,3.8707,3.8707,3.8707,3.8707,3.8726,3.9184,1.3771,0.0,0.0,0.0,0.0,0.0,0.0,0.0,0.0,0.0,0.0,0.0,0.0,0.0,0.0,0.0,0.0,0.0,0.0,0.0,0.0,0.0,0.0,0.0,0.0,0.0,0.0,0.0,3.3486,3.3807,3.3807,3.3807,3.3925,3.4191,3.4531,3.4827,3.5095,3.5359,3.5493,3.5493,3.5493,3.5493,3.5507,3.5558,3.5631,3.571,3.5802,3.5896,3.5996,3.5996,3.5996,3.5996,3.5996,3.5996,3.5996,3.5996,3.5996,3.5996,3.5996,3.5996,3.5996,3.5996,3.5996,3.5996,3.5996,3.6827,3.7834,3.8201,3.9452,4.0667,4.053,4.0489,4.0489,4.0489,4.0489,4.0489,4.0489,4.0489,4.0489,4.0489,4.0489,4.0489,4.0489,4.0489,4.0796,4.1681,4.2266,4.2699,4.2931,4.3446,4.3539,4.2919,4.2837,4.2934,4.32,4.2656,4.2229,4.2006,4.1529,4.1033,4.0554,3.9982,3.9681,3.9681,3.9044,3.8707,3.8707,3.8707,3.8707,3.8707,3.9294,4.0304,0.0,0.0,0.0,0.0,0.0,0.0,1.7948,2.0494,0.0,0.0,0.0,0.0,0.0,0.0,0.0,0.0,0.0,0.0,0.0,0.0,0.0,0.0,0.0,0.0,0.0,0.0,0.0,3.2082,3.2529,3.282,3.282,3.282,3.2912,3.3176,3.3827,3.4283,3.4562,3.5185,3.5493,3.5493,3.5493,3.5493,3.5507,3.5566,3.5639,3.571,3.5841,3.5942,3.5996,3.5996,3.5996,3.5996,3.5996,3.5996,3.5996,3.5996,3.5996,3.5996,3.5996,3.5996,3.5996,3.5996,3.5996,3.5996,3.5992,3.6414,3.7066,3.8022,3.9417,4.0596,4.0519,4.0489,4.0489,4.0489,4.0489,4.0489,4.0489,4.0489,4.0489,4.0489,4.0489,4.0489,4.0489,4.0796,4.1335,4.222,4.2942,4.354,4.3995,4.438,4.4447,4.4004,4.3962,4.4035,4.4233,4.383,4.3399,4.3025,4.269,4.2216,4.1545,4.108,4.0733,4.0591,4.0013,3.9717,3.9698,3.9038,3.8872,3.9239,4.0377,4.1405,0.0,0.0,0.0,0.0,0.0,0.0,1.8758,1.9837,2.1093,0.0,0.0,0.0,0.0,0.0,0.0,0.0,0.0,0.0,0.0,0.0,0.0,0.0,0.0,0.0,0.0,3.0632,3.0888,3.1227,3.1354,3.1391,3.1391,3.1391,3.1516,3.1803,3.2747,3.3396,3.3646,3.4705,3.5218,3.5218,3.5218,3.5257,3.5353,3.5441,3.556,3.571,3.5849,3.5947,3.5996,3.5996,3.5996,3.5996,3.5996,3.5996,3.5996,3.5996,3.5996,3.5996,3.5996,3.5996,3.5996,3.5996,3.5996,3.5995,3.5974,3.6142,3.6634,3.8128,3.9502,4.0489,4.0489,4.0489,4.0489,4.0489,4.0489,4.0489,4.0489,4.0489,4.0489,4.0489,4.0489,4.0489,4.0489,4.1143,4.1989,4.2951,4.3446,4.405,4.4982,4.4849,4.4631,4.4606,4.458,4.4624,4.4657,4.4676,4.4317,4.3542,4.3779,4.3456,4.241,4.2228,4.2036,4.1744,4.1304,4.1111,4.1111,3.9662,3.9386,4.0194,4.1625,4.2359,0.0,0.0,0.0,0.0,0.0,0.0,1.5154,1.6894,1.8503,0.0,0.0,0.0,0.0,0.0,0.0,0.0,0.0,0.0,0.0,0.0,0.0,0.0,0.0,0.0,0.0,2.9747,3.0346,3.0423,3.1028,3.1384,3.1384,3.1384,3.1518,3.1788,3.222,3.2538,3.2744,3.3179,3.3423,3.341,3.341,3.3776,3.4462,3.4622,3.5086,3.5717,3.5901,3.5996,3.5996,3.5996,3.5996,3.5996,3.5996,3.5996,3.5996,3.5996,3.5996,3.5996,3.5996,3.5996,3.5996,3.5996,3.5996,3.5976,3.5876,3.7044,3.8654,3.9766,4.0269,4.0489,4.0489,4.0489,4.0489,4.0489,4.0489,4.0489,4.0489,4.0489,4.0489,4.0489,4.0489,4.0489,4.0489,4.0642,4.1277,4.2854,4.3186,4.3694,4.4927,4.5052,4.4896,4.4631,4.458,4.4707,4.4966,4.4988,4.4931,4.476,4.4827,4.4638,4.4134,4.3165,4.2632,4.2574,4.1612,4.1111,4.1111,4.0799,4.1056,4.1846,4.2158,4.2653,0.0,0.0,0.0,1.438,0.0,0.0,0.0,1.683,1.7965,0.0,0.0,0.0,0.0,0.0,0.0,0.0,0.0,0.0,0.0,0.0,0.0,0.0,0.0,0.0,0.0,2.926,2.9596,2.9596,2.9973,3.0199,3.0199,3.0199,3.0373,3.0748,3.131,3.1769,3.209,3.2622,3.2891,3.2891,3.2891,3.3122,3.3558,3.3732,3.4268,3.5113,3.5249,3.5564,3.5996,3.5996,3.5996,3.5996,3.5996,3.5996,3.5996,3.5996,3.5996,3.5996,3.5996,3.5996,3.5996,3.5996,3.5996,3.5975,3.5791,3.7619,3.9847,4.0357,4.0489,4.0489,4.0489,4.0489,4.0489,4.0489,4.0489,4.0489,4.0489,4.0489,4.0489,4.0489,4.0489,4.0489,4.0489,4.0854,4.1585,4.2893,4.3431,4.4109,4.5208,4.5342,4.5283,4.5118,4.5096,4.5161,4.5342,4.5342,4.5342,4.5342,4.5342,4.5118,4.4606,4.4006,4.3519,4.3161,4.2603,4.2304,4.2304,4.2304,4.2304,4.2304,4.2708,4.3112,0.0,0.0,0.0,0.0,0.0,1.5125,0.0,0.0,0.0,1.9133,0.0,0.0,0.0,0.0,0.0,0.0,0.0,0.0,0.0,0.0,0.0,0.0,0.0,0.0,0.0,2.8466,2.8672,2.8998,2.8714,2.8677,2.8975,2.9052,2.9277,2.9696,3.0408,3.1006,3.1455,3.209,3.2429,3.2429,3.2429,3.2506,3.2673,3.2803,3.3371,3.4257,3.4514,3.5052,3.5762,3.5937,3.5996,3.5996,3.5996,3.5996,3.5996,3.5996,3.5996,3.5996,3.5996,3.5996,3.5996,3.5996,3.5996,3.6009,3.6156,3.7996,4.0077,4.0423,4.0489,4.0489,4.0489,4.0489,4.0489,4.0489,4.0489,4.0489,4.0489,4.0489,4.0489,4.0489,4.0489,4.0489,4.0489,4.1085,4.1854,4.272,4.3547,4.4374,4.524,4.549,4.5586,4.5586,4.5586,4.5586,4.5586,4.5586,4.5586,4.5586,4.5586,4.5362,4.4806,4.4657,4.4252,4.3513,4.3497,4.3497,4.3497,4.3497,4.3167,4.2543,4.3185,4.3497,0.0,0.0,0.0,0.0,1.4776,0.0,0.0,0.0,1.5088,1.5332,0.0,0.0,0.0,0.0,0.0,0.0,0.0,0.0,0.0,0.0,0.0,0.0,0.0,0.0,0.0,0.0,2.7461,2.8888,2.7679,2.7492,2.892,2.9228,2.9456,2.9677,2.998,3.0259,3.0533,3.0629,3.0667,3.0667,3.0667,3.1102,3.1845,3.1972,3.2526,3.34,3.4303,3.4746,3.4902,3.5684,3.5996,3.5996,3.5996,3.5996,3.5996,3.5996,3.5996,3.5996,3.5996,3.5996,3.5996,3.5996,3.5951,3.6173,3.7585,3.8132,3.8593,4.0072,4.0489,4.0489,4.0489,4.0489,4.0489,4.0489,4.0489,4.0489,4.0489,4.0489,4.0489,4.0489,4.0489,4.0489,4.0489,4.0566,4.0931,4.1816,4.2681,4.3528,4.4335,4.5124,4.5586,4.5586,4.5586,4.5586,4.5586,4.5586,4.5586,4.5586,4.5586,4.5568,4.5495,4.4919,4.4252,4.3513,4.3497,4.3497,4.3497,4.3497,4.3442,4.3369,4.3442,4.3497,0.0,0.0,0.0,0.0,0.0,0.0,0.0,0.0,1.4813,0.0,0.0,0.0,0.0,0.0,0.0,0.0,0.0,0.0,0.0,0.0,0.0,0.0,0.0,0.0,0.0,0.0,0.0,0.0,2.8615,2.8575,2.9364,2.9506,2.9677,2.9877,2.9966,3.0126,3.0398,3.0398,3.0398,3.0398,3.0398,3.059,3.0948,3.1003,3.1557,3.2499,3.3423,3.4166,3.4766,3.5644,3.5996,3.5996,3.5996,3.5996,3.5996,3.5996,3.5996,3.5996,3.5996,3.5996,3.5996,3.5996,3.595,3.6204,3.7812,3.8161,3.8353,4.0029,4.0489,4.0489,4.0489,4.0489,4.0489,4.0489,4.0489,4.0489,4.0489,4.0489,4.0489,4.0489,4.0489,4.0489,4.0489,4.0489,4.0796,4.1681,4.2547,4.3393,4.4201,4.5047,4.5586,4.5586,4.5586,4.5586,4.5586,4.5586,4.5586,4.5586,4.5419,4.5222,4.5033,4.4535,4.4016,4.3513,4.3693,4.3804,4.3804,4.4035,4.4154,4.4125,4.3899,4.3931,1.6392,0.0,0.0,0.0,0.0,0.0,0.0,0.0,0.0,0.0,0.0,0.0,0.0,0.0,0.0,1.4987,0.0,0.0,0.0,0.0,0.0,0.0,0.0,0.0,0.0,0.0,0.0,2.8632,2.8761,2.907,2.9595,2.9709,2.9859,2.9999,3.0075,3.0209,3.0398,3.0398,3.0398,3.0398,3.0398,3.0398,3.041,3.0425,3.0829,3.1584,3.2488,3.3425,3.4414,3.5273,3.5781,3.5996,3.5996,3.5996,3.5996,3.5996,3.5996,3.5996,3.5996,3.5996,3.5996,3.5996,3.5972,3.6219,3.7819,3.8199,3.8418,4.0044,4.0489,4.0489,4.0489,4.0489,4.0489,4.0489,4.0489,4.0489,4.0489,4.0489,4.0489,4.0489,4.0489,4.0489,4.0489,4.0489,4.07,4.1354,4.22,4.3047,4.3874,4.472,4.5336,4.5566,4.5586,4.5586,4.5586,4.5586,4.5586,4.5586,4.5362,4.5096,4.4732,4.4455,4.4146,4.3823,4.4046,4.4146,4.4165,4.4474,4.465,4.4751,4.4346,4.4318,0.0,0.0,0.0,1.5521,0.0,0.0,0.0,0.0,1.5007,0.0,0.0,0.0,0.0,0.0,1.5035,1.5171,1.526,0.0,0.0,0.0,0.0,0.0,0.0,0.0,0.0,0.0,0.0,2.6712,2.7184,2.7968,2.9339,2.978,2.998,2.9999,3.0254,3.0398,3.0398,3.0398,3.0398,3.0398,3.0398,3.0398,3.041,3.0472,3.0556,3.0689,3.1633,3.2567,3.3516,3.4375,3.5234,3.5996,3.5996,3.5996,3.5996,3.5996,3.5996,3.5996,3.5996,3.5996,3.5996,3.5996,3.5996,3.6286,3.7819,3.8307,3.8606,4.0072,4.0489,4.0489,4.0489,4.0489,4.0489,4.0489,4.0489,4.0489,4.0489,4.0489,4.0489,4.0489,4.0489,4.0489,4.0489,4.0489,4.0508,4.0527,4.1277,4.2162,4.3028,4.3835,4.4662,4.5509,4.5586,4.5586,4.5586,4.5586,4.5586,4.5586,4.5586,4.5438,4.5096,4.5074,4.4919,4.4553,4.458,4.458,4.458,4.458,4.4776,4.5074,4.4751,4.458,0.0,0.0,2.2018,1.8268,0.0,0.0,0.0,0.0,0.0,0.0,0.0,0.0,0.0,0.0,1.5204,1.5195,1.5234,1.525,0.0,0.0,0.0,0.0,0.0,0.0,0.0,0.0,0.0,2.7157,2.84,2.9383,3.0037,3.0202,3.0267,3.0267,3.0355,3.0398,3.0398,3.0398,3.0398,3.0398,3.0398,3.0398,3.041,3.0417,3.049,3.0645,3.1554,3.2492,3.3476,3.4336,3.5215,3.5996,3.5996,3.5996,3.5996,3.5996,3.5996,3.5996,3.5996,3.5996,3.5996,3.5996,3.5996,3.6286,3.7819,3.8572,3.9111,4.02,4.0498,4.0497,4.0507,4.0501,4.0494,4.05,4.0489,4.0489,4.0489,4.0489,4.0489,4.0489,4.0489,4.0489,4.0489,4.0489,4.0489,4.0489,4.1239,4.2104,4.2989,4.3797,4.4624,4.5509,4.5586,4.5586,4.5586,4.5586,4.5586,4.5586,4.5586,4.5438,4.5118,4.5096,4.4943,4.4624,4.4825,4.4919,4.4919,4.514,4.5322,4.5419,4.5303,4.514,2.3327,2.4227,0.0,2.0662,2.0886,0.0,1.7278,0.0,0.0,0.0,0.0,0.0,0.0,0.0,1.5555,1.6328,1.5805,1.528,0.0,1.5268,0.0,0.0,0.0,0.0,0.0,0.0,2.4904,2.7317,2.8586,2.9551,0.0,0.0,3.0398,3.0398,3.0398,3.0398,3.0398,3.0398,3.0398,3.0398,3.0398,3.0398,3.0398,3.0398,3.0463,3.0619,3.1164,3.2166,3.3437,3.3982,3.4901,3.5996,3.5996,3.5996,3.5996,3.5996,3.5996,3.5996,3.5996,3.5996,3.5996,3.5996,3.5996,3.6287,3.7854,3.8731,3.939,4.0344,4.0684,4.0757,4.0757,4.0633,4.05,4.0496,4.0489,4.0489,4.0489,4.0489,4.0489,4.0489,4.0489,4.0489,4.0489,4.0489,4.0489,4.0489,4.0969,4.1643,4.2527,4.3355,4.4201,4.5047,4.5413,4.5586,4.5586,4.5586,4.5586,4.5586,4.5586,4.5495,4.5302,4.5282,4.518,4.4966,4.518,4.5282,4.5282,4.5495,4.5586,4.5586,4.5586,4.5362]}]]